[[{"header":{"parameterUnit":"m.s-1","parameterCategory":1,"la1":30.6,"la2":28.766,"lo1":-90.7593,"lo2":-88.6598,"dy":0.0162,"dx":0.0183,"nx":116,"ny":114,"refTime":"2023-07-24T06:00:00:Z","depth":0,"parameterNumber":2,"parameterNumberName":"U-component_of_WINDS"},"data":[0.0,0.0,0.0,0.0,0.0,0.0,0.0,0.0,0.0,0.0,0.0,0.0,0.0,0.0,0.0,0.0,0.0,0.0,0.0,0.0,0.0,0.0,0.0,0.0,0.0,0.0,0.0,0.0,0.0,0.0,0.0,0.0,0.0,0.0,0.0,0.0,0.0,0.0,0.0,0.0,0.0,0.0,0.0,0.0,0.0,0.0,0.0,0.0,0.0,0.0,0.0,0.0,0.0,0.0,0.0,0.0,0.0,0.0,0.0,0.0,0.0,0.0,0.0,0.0,0.0,0.0,0.0,0.0,0.0,0.0,0.0,0.0,0.0,0.0,0.0,0.0,0.0,0.0,0.0,0.0,0.0,0.0,0.0,0.0,0.0,0.0,0.0,0.0,0.0,0.0,0.0,0.0,0.0,0.0,0.0,0.0,0.0,0.0,0.0,0.0,0.0,0.0,0.0,0.0,0.0,0.0,0.0,0.0,0.0,0.0,0.0,0.0,0.0,0.0,0.0,0.0,0.0,0.0,0.0,0.0,0.0,0.0,0.0,0.0,0.0,0.0,0.0,0.0,0.0,0.0,0.0,0.0,0.0,0.0,0.0,0.0,0.0,0.0,0.0,0.0,0.0,0.0,0.0,0.0,0.0,0.0,0.0,0.0,0.0,0.0,0.0,0.0,0.0,0.0,0.0,0.0,0.0,0.0,0.0,0.0,0.0,0.0,0.0,0.0,0.0,0.0,0.0,0.0,0.0,0.0,0.0,0.0,0.0,0.0,0.0,0.0,0.0,0.0,0.0,0.0,0.0,0.0,0.0,0.0,0.0,0.0,0.0,0.0,0.0,0.0,0.0,0.0,0.0,0.0,0.0,0.0,0.0,0.0,0.0,0.0,0.0,0.0,0.0,0.0,0.0,0.0,0.0,0.0,0.0,0.0,0.0,0.0,0.0,0.0,0.0,0.0,0.0,0.0,0.0,0.0,0.0,0.0,0.0,0.0,0.0,0.0,0.0,0.0,0.0,0.0,0.0,0.0,0.0,0.0,0.0,0.0,0.0,0.0,0.0,0.0,0.0,0.0,0.0,0.0,0.0,0.0,0.0,0.0,0.0,0.0,0.0,0.0,0.0,0.0,0.0,0.0,0.0,0.0,0.0,0.0,0.0,0.0,0.0,0.0,0.0,0.0,0.0,0.0,0.0,0.0,0.0,0.0,0.0,0.0,0.0,0.0,0.0,0.0,0.0,0.0,0.0,0.0,0.0,0.0,0.0,0.0,0.0,0.0,0.0,0.0,0.0,0.0,0.0,0.0,0.0,0.0,0.0,0.0,0.0,0.0,0.0,0.0,0.0,0.0,0.0,0.0,0.0,0.0,0.0,0.0,0.0,0.0,0.0,0.0,0.0,0.0,0.0,0.0,0.0,0.0,0.0,0.0,0.0,0.0,0.0,0.0,0.0,0.0,0.0,0.0,0.0,0.0,0.0,0.0,0.0,0.0,0.0,0.0,0.0,0.0,0.0,0.0,0.0,0.0,0.0,0.0,0.0,0.0,0.0,0.0,0.0,0.0,0.0,0.0,0.0,0.0,0.0,0.0,0.0,0.0,0.0,0.0,0.0,0.0,0.0,0.0,0.0,0.0,0.0,0.0,0.0,0.0,0.0,0.0,0.0,0.0,0.0,0.0,0.0,0.0,0.0,0.0,0.0,0.0,0.0,0.0,0.0,0.0,0.0,0.0,0.0,0.0,0.0,0.0,0.0,0.0,0.0,0.0,0.0,0.0,0.0,0.0,0.0,0.0,0.0,0.0,0.0,0.0,0.0,0.0,0.0,0.0,0.0,0.0,0.0,0.0,0.0,0.0,0.0,0.0,0.0,0.0,0.0,0.0,0.0,0.0,0.0,0.0,0.0,0.0,0.0,0.0,0.0,0.0,0.0,0.0,0.0,0.0,0.0,0.0,0.0,0.0,0.0,0.0,0.0,0.0,0.0,0.0,0.0,0.0,0.0,0.0,0.0,0.0,0.0,0.0,0.0,0.0,0.0,0.0,0.0,0.0,0.0,0.0,0.0,0.0,0.0,0.0,0.0,0.0,0.0,0.0,0.0,0.0,0.0,0.0,0.0,0.0,0.0,0.0,0.0,0.0,0.0,0.0,0.0,0.0,0.0,0.0,0.0,0.0,0.0,0.0,0.0,0.0,0.0,0.0,0.0,0.0,0.0,0.0,0.0,0.0,0.0,0.0,0.0,0.0,0.0,0.0,0.0,0.0,0.0,0.0,0.0,0.0,0.0,0.0,0.0,0.0,0.0,0.0,0.0,0.0,0.0,0.0,0.0,0.0,0.0,0.0,0.0,0.0,0.0,0.0,0.0,0.0,0.0,0.0,0.0,0.0,0.0,0.0,0.0,0.0,0.0,0.0,0.0,0.0,0.0,0.0,0.0,0.0,0.0,0.0,0.0,0.0,0.0,0.0,0.0,0.0,0.0,0.0,0.0,0.0,0.0,0.0,0.0,0.0,0.0,0.0,0.0,0.0,0.0,0.0,0.0,0.0,0.0,0.0,0.0,0.0,0.0,0.0,0.0,0.0,0.0,0.0,0.0,0.0,0.0,0.0,0.0,0.0,0.0,0.0,0.0,0.0,0.0,0.0,0.0,0.0,0.0,0.0,0.0,0.0,0.0,0.0,0.0,0.0,0.0,0.0,0.0,0.0,0.0,0.0,0.0,0.0,0.0,0.0,0.0,0.0,0.0,0.0,0.0,0.0,0.0,0.0,0.0,0.0,0.0,0.0,0.0,0.0,0.0,0.0,0.0,0.0,0.0,0.0,0.0,0.0,0.0,0.0,0.0,0.0,0.0,0.0,0.0,0.0,0.0,0.0,0.0,0.0,0.0,0.0,0.0,0.0,0.0,0.0,0.0,0.0,0.0,0.0,0.0,0.0,0.0,0.0,0.0,0.0,0.0,0.0,0.0,0.0,0.0,0.0,0.0,0.0,0.0,0.0,0.0,0.0,0.0,0.0,0.0,0.0,0.0,0.0,0.0,0.0,0.0,0.0,0.0,0.0,0.0,0.0,0.0,0.0,0.0,0.0,0.0,0.0,0.0,0.0,0.0,0.0,0.0,0.0,0.0,0.0,0.0,0.0,0.0,0.0,0.0,0.0,0.0,0.0,0.0,0.0,0.0,0.0,0.0,0.0,0.0,0.0,0.0,0.0,0.0,0.0,0.0,0.0,0.0,0.0,0.0,0.0,0.0,0.0,0.0,0.0,0.0,0.0,0.0,0.0,0.0,0.0,0.0,0.0,0.0,0.0,0.0,0.0,0.0,0.0,0.0,0.0,0.0,0.0,0.0,0.0,0.0,0.0,0.0,0.0,0.0,0.0,0.0,0.0,0.0,0.0,0.0,0.0,0.0,0.0,0.0,0.0,0.0,0.0,0.0,0.0,0.0,0.0,0.0,0.0,0.0,0.0,0.0,0.0,0.0,0.0,0.0,0.0,0.0,0.0,0.0,0.0,0.0,0.0,0.0,0.0,0.0,0.0,0.0,0.0,0.0,0.0,0.0,0.0,0.0,0.0,0.0,0.0,0.0,0.0,0.0,0.0,0.0,0.0,0.0,0.0,0.0,0.0,0.0,0.0,0.0,0.0,0.0,0.0,0.0,0.0,0.0,0.0,0.0,0.0,0.0,0.0,0.0,0.0,0.0,0.0,0.0,0.0,0.0,0.0,0.0,0.0,0.0,0.0,0.0,0.0,0.0,0.0,0.0,0.0,0.0,0.0,0.0,0.0,0.0,0.0,0.0,0.0,0.0,0.0,0.0,0.0,0.0,0.0,0.0,0.0,0.0,0.0,0.0,0.0,0.0,0.0,0.0,0.0,0.0,0.0,0.0,0.0,0.0,0.0,0.0,0.0,0.0,0.0,0.0,0.0,0.0,0.0,0.0,0.0,0.0,0.0,0.0,0.0,0.0,0.0,0.0,0.0,0.0,0.0,0.0,0.0,0.0,0.0,0.0,0.0,0.0,0.0,0.0,0.0,0.0,0.0,0.0,0.0,0.0,0.0,0.0,0.0,0.0,0.0,0.0,0.0,0.0,0.0,0.0,0.0,0.0,0.0,0.0,0.0,0.0,0.0,0.0,0.0,0.0,0.0,0.0,0.0,0.0,0.0,0.0,0.0,0.0,0.0,0.0,0.0,0.0,0.0,0.0,0.0,0.0,0.0,0.0,0.0,0.0,0.0,0.0,0.0,0.0,0.0,0.0,0.0,0.0,0.0,0.0,0.0,0.0,0.0,0.0,0.0,0.0,0.0,0.0,0.0,0.0,0.0,0.0,0.0,0.0,0.0,0.0,0.0,0.0,0.0,0.0,0.0,0.0,0.0,0.0,0.0,0.0,0.0,0.0,0.0,0.0,0.0,0.0,0.0,0.0,0.0,0.0,0.0,0.0,0.0,0.0,0.0,0.0,0.0,0.0,0.0,0.0,0.0,0.0,0.0,0.0,0.0,0.0,0.0,0.0,0.0,0.0,0.0,0.0,0.0,0.0,0.0,0.0,0.0,0.0,0.0,0.0,0.0,0.0,0.0,0.0,0.0,0.0,0.0,0.0,0.0,0.0,0.0,0.0,0.0,0.0,0.0,0.0,0.0,0.0,0.0,0.0,0.0,0.0,0.0,0.0,0.0,0.0,0.0,0.0,0.0,0.0,0.0,0.0,0.0,0.0,0.0,0.0,0.0,0.0,0.0,0.0,0.0,0.0,0.0,0.0,0.0,0.0,0.0,0.0,0.0,0.0,0.0,0.0,0.0,0.0,0.0,0.0,0.0,0.0,0.0,0.0,0.0,0.0,0.0,0.0,0.0,0.0,0.0,0.0,0.0,0.0,0.0,0.0,0.0,0.0,0.0,0.0,0.0,0.0,0.0,0.0,0.0,0.0,0.0,0.0,0.0,0.0,0.0,0.0,0.0,0.0,0.0,0.0,0.0,0.0,0.0,0.0,0.0,0.0,0.0,0.0,0.0,0.0,0.0,0.0,0.0,0.0,0.0,0.0,0.0,0.0,0.0,0.0,0.0,0.0,0.0,0.0,0.0,0.0,0.0,0.0,0.0,0.0,0.0,0.0,0.0,0.0,0.0,0.0,0.0,0.0,0.0,0.0,0.0,0.0,0.0,0.0,0.0,0.0,0.0,0.0,0.0,0.0,0.0,0.0,0.0,0.0,0.0,0.0,0.0,0.0,0.0,0.0,0.0,0.0,0.0,0.0,0.0,0.0,0.0,0.0,0.0,0.0,0.0,0.0,0.0,0.0,0.0,0.0,0.0,0.0,0.0,0.0,0.0,0.0,0.0,0.0,0.0,0.0,0.0,0.0,0.0,0.0,0.0,0.0,0.0,0.0,0.0,0.0,0.0,0.0,0.0,0.0,0.0,0.0,0.0,0.0,0.0,0.0,0.0,0.0,0.0,0.0,0.0,0.0,0.0,0.0,0.0,0.0,0.0,0.0,0.0,0.0,0.0,0.0,0.0,0.0,0.0,0.0,0.0,0.0,0.0,0.0,0.0,0.0,0.0,0.0,0.0,0.0,0.0,0.0,0.0,0.0,0.0,0.0,0.0,0.0,0.0,0.0,0.0,0.0,0.0,0.0,0.0,0.0,0.0,0.0,0.0,0.0,0.0,0.0,0.0,0.0,0.0,0.0,0.0,0.0,0.0,0.0,0.0,0.0,0.0,0.0,0.0,0.0,0.0,0.0,0.0,0.0,0.0,0.0,0.0,0.0,0.0,0.0,0.0,0.0,0.0,0.0,0.0,0.0,0.0,0.0,0.0,0.0,0.0,0.0,0.0,0.0,0.0,0.0,0.0,0.0,0.0,0.0,0.0,0.0,0.0,0.0,0.0,0.0,0.0,0.0,0.0,0.0,0.0,0.0,0.0,0.0,0.0,0.0,0.0,0.0,0.0,0.0,0.0,0.0,0.0,0.0,0.0,0.0,0.0,0.0,0.0,0.0,0.0,0.0,0.0,0.0,0.0,0.0,0.0,0.0,0.0,0.0,0.0,0.0,0.0,0.0,0.0,0.0,0.0,0.0,0.0,0.0,0.0,0.0,0.0,0.0,0.0,-4.2576,0.0,0.0,0.0,0.0,0.0,0.0,0.0,0.0,0.0,0.0,0.0,0.0,0.0,0.0,0.0,0.0,0.0,0.0,0.0,0.0,0.0,0.0,0.0,0.0,0.0,0.0,0.0,0.0,0.0,0.0,0.0,0.0,0.0,0.0,0.0,0.0,0.0,0.0,0.0,0.0,0.0,0.0,0.0,0.0,0.0,0.0,0.0,0.0,0.0,0.0,0.0,0.0,0.0,0.0,0.0,0.0,0.0,0.0,0.0,0.0,0.0,0.0,0.0,0.0,0.0,0.0,0.0,0.0,0.0,0.0,0.0,0.0,0.0,0.0,0.0,0.0,0.0,0.0,0.0,0.0,0.0,0.0,0.0,0.0,0.0,0.0,0.0,0.0,0.0,0.0,0.0,0.0,0.0,0.0,0.0,0.0,0.0,0.0,0.0,0.0,0.0,0.0,0.0,0.0,0.0,0.0,0.0,0.0,0.0,0.0,0.0,0.0,0.0,0.0,0.0,0.0,-4.3887,0.0,0.0,0.0,0.0,0.0,0.0,0.0,0.0,0.0,0.0,0.0,0.0,0.0,0.0,0.0,0.0,0.0,0.0,0.0,0.0,0.0,0.0,0.0,0.0,0.0,0.0,0.0,0.0,0.0,0.0,0.0,0.0,0.0,0.0,0.0,0.0,0.0,0.0,0.0,0.0,0.0,0.0,0.0,0.0,0.0,0.0,0.0,0.0,0.0,0.0,0.0,0.0,0.0,0.0,0.0,0.0,0.0,0.0,0.0,0.0,0.0,0.0,0.0,0.0,0.0,0.0,0.0,0.0,0.0,0.0,0.0,0.0,0.0,0.0,0.0,0.0,0.0,0.0,0.0,0.0,0.0,0.0,0.0,0.0,0.0,0.0,0.0,0.0,0.0,0.0,0.0,0.0,0.0,0.0,0.0,0.0,0.0,0.0,0.0,0.0,0.0,0.0,0.0,0.0,0.0,0.0,0.0,0.0,-4.8576,-4.9008,-4.9029,-4.9775,-5.0185,-5.0158,-4.8034,-4.679,-4.6112,0.0,0.0,0.0,0.0,0.0,0.0,0.0,0.0,0.0,0.0,0.0,0.0,0.0,0.0,0.0,0.0,0.0,0.0,0.0,0.0,0.0,0.0,0.0,0.0,0.0,0.0,0.0,0.0,0.0,0.0,0.0,0.0,0.0,0.0,0.0,0.0,0.0,0.0,0.0,-3.6613,-3.7448,-3.8186,-3.8689,0.0,0.0,0.0,0.0,0.0,0.0,0.0,0.0,0.0,0.0,0.0,0.0,0.0,0.0,0.0,0.0,0.0,0.0,0.0,0.0,0.0,0.0,0.0,0.0,0.0,0.0,0.0,0.0,0.0,0.0,0.0,0.0,0.0,0.0,0.0,0.0,0.0,0.0,0.0,0.0,0.0,0.0,0.0,0.0,-4.2936,-4.3587,0.0,0.0,0.0,0.0,0.0,0.0,0.0,0.0,0.0,0.0,0.0,0.0,0.0,-4.7386,-4.8007,-4.9557,-5.0293,-5.024,-5.1882,-5.2638,-5.2549,-5.2879,-5.2996,-5.2879,-5.255,0.0,-4.7898,-4.6827,0.0,0.0,0.0,0.0,0.0,0.0,0.0,0.0,0.0,0.0,0.0,0.0,0.0,0.0,0.0,0.0,0.0,0.0,0.0,0.0,0.0,0.0,0.0,0.0,0.0,0.0,0.0,0.0,0.0,0.0,0.0,0.0,0.0,0.0,0.0,0.0,-3.501,-3.6951,-3.8259,-3.8742,-3.9471,-4.0306,-3.949,-3.8753,-3.8061,-3.717,0.0,0.0,0.0,0.0,0.0,0.0,0.0,0.0,0.0,0.0,0.0,0.0,0.0,0.0,0.0,0.0,0.0,0.0,0.0,0.0,0.0,0.0,0.0,0.0,0.0,0.0,0.0,0.0,0.0,0.0,0.0,0.0,0.0,0.0,0.0,0.0,0.0,0.0,0.0,-4.132,-4.4363,-4.438,-4.4932,-4.418,0.0,0.0,0.0,0.0,0.0,0.0,0.0,0.0,0.0,-4.9004,-4.9492,-5.0068,-5.0745,-5.1954,-5.2748,-5.3078,-5.3858,-5.4213,-5.4168,-5.4288,-5.4039,-5.3521,-5.3521,-5.233,-5.0317,-4.8889,-4.7009,-4.4951,0.0,0.0,0.0,0.0,-4.3104,-4.3052,0.0,0.0,0.0,0.0,0.0,0.0,0.0,0.0,0.0,0.0,0.0,0.0,0.0,0.0,0.0,-2.9729,0.0,0.0,0.0,0.0,0.0,0.0,0.0,0.0,0.0,0.0,0.0,0.0,-3.6168,-3.7856,-3.8726,-3.912,-3.9666,-4.0308,-4.0412,-4.0108,-3.9435,-3.8814,-3.7233,0.0,0.0,0.0,0.0,0.0,0.0,0.0,0.0,0.0,0.0,0.0,0.0,0.0,0.0,0.0,0.0,0.0,0.0,0.0,0.0,0.0,0.0,0.0,0.0,0.0,0.0,0.0,0.0,0.0,0.0,0.0,0.0,0.0,0.0,0.0,0.0,0.0,0.0,-4.3525,-4.6214,-4.5666,-4.7528,-4.7259,0.0,0.0,0.0,0.0,0.0,0.0,-4.8341,-4.9546,-5.0605,-5.1484,-5.2305,-5.2984,-5.3489,-5.4133,-5.4716,-5.5229,-5.5045,-5.4918,-5.4877,-5.4732,-5.4292,-5.3653,-5.3653,-5.3086,-5.2031,-5.0439,-4.8507,-4.6471,-4.5393,-4.4605,-4.4047,-4.3816,-4.3739,-4.3782,0.0,0.0,0.0,0.0,0.0,0.0,0.0,0.0,0.0,0.0,0.0,0.0,0.0,0.0,-2.704,-3.0352,-3.1087,-3.0743,0.0,0.0,0.0,0.0,0.0,0.0,0.0,0.0,0.0,-3.4624,-3.5598,-3.6559,-3.7414,-3.82,-3.8574,-3.8645,-3.9376,-4.0105,-4.0711,-3.9014,-3.7842,-3.686,0.0,0.0,0.0,0.0,0.0,0.0,0.0,0.0,0.0,0.0,0.0,0.0,0.0,0.0,0.0,0.0,0.0,0.0,0.0,0.0,0.0,0.0,0.0,0.0,0.0,0.0,0.0,0.0,0.0,0.0,0.0,0.0,0.0,0.0,0.0,0.0,0.0,0.0,0.0,-4.9317,-5.2087,0.0,0.0,0.0,0.0,-4.7973,-4.9001,-5.0053,-5.1058,-5.2788,-5.4141,-5.5019,-5.5898,-5.6302,-5.6196,-5.6255,-5.6211,-5.6133,-5.5424,-5.5014,-5.4888,-5.431,-5.3954,-5.3786,-5.3786,-5.3214,-5.2212,-5.123,-5.0204,-4.9048,-4.7413,-4.674,-4.6605,-4.5778,-4.547,-4.5398,0.0,0.0,0.0,0.0,0.0,0.0,0.0,0.0,0.0,0.0,0.0,0.0,0.0,-2.4756,-2.6838,-2.8908,-2.9163,-2.8955,-2.8332,0.0,0.0,0.0,0.0,0.0,0.0,0.0,-3.3647,-3.4379,-3.4976,-3.5439,-3.5758,-3.6043,-3.6167,-3.622,-3.7001,-3.7488,-3.7785,-3.8504,-3.7961,-3.6508,-3.5211,-3.3562,0.0,0.0,0.0,0.0,0.0,0.0,0.0,0.0,0.0,0.0,0.0,0.0,0.0,0.0,0.0,0.0,0.0,0.0,0.0,0.0,0.0,0.0,0.0,0.0,0.0,0.0,0.0,0.0,0.0,0.0,0.0,0.0,0.0,0.0,0.0,0.0,0.0,-5.1894,-5.4376,0.0,-5.1337,-5.1241,-5.1483,-5.1692,-5.2562,-5.3564,-5.4642,-5.5312,-5.582,-5.6133,-5.6445,-5.6581,-5.6536,-5.597,-5.567,-5.5618,-5.4792,-5.4069,-5.3487,-5.3258,-5.2831,-5.2238,-5.1711,-5.1182,-5.0617,-4.972,-4.9049,-4.8509,-4.7913,-4.7009,-4.6028,-4.5701,-4.5586,-4.5513,0.0,0.0,0.0,0.0,0.0,0.0,0.0,0.0,0.0,0.0,0.0,-2.0695,-2.1348,-2.36,-2.5654,-2.7178,-2.7259,-2.6885,-2.6085,0.0,0.0,0.0,0.0,0.0,0.0,-3.1599,-3.2591,-3.3313,-3.3162,-3.3201,-3.3404,-3.2962,-3.2876,-3.3097,-3.3913,-3.4202,-3.4306,-3.6313,-3.6808,-3.6131,-3.5729,-3.4439,-3.2627,0.0,0.0,0.0,0.0,0.0,0.0,0.0,0.0,0.0,0.0,0.0,0.0,0.0,0.0,0.0,0.0,0.0,0.0,0.0,0.0,0.0,0.0,0.0,0.0,0.0,0.0,0.0,0.0,0.0,0.0,0.0,0.0,0.0,0.0,0.0,-5.3238,-5.2992,-5.5849,-5.6626,-5.3491,-5.4241,-5.4882,-5.4815,-5.5664,-5.6285,-5.6515,-5.7128,-5.7207,-5.6621,-5.6894,-5.6758,-5.6172,-5.5586,-5.5156,-5.4844,-5.3984,-5.3105,-5.2266,-5.2266,-5.1641,-5.0547,-5.0293,-4.9876,-4.9313,-4.8749,-4.8173,-4.7702,-4.7702,-4.7028,-4.599,-4.5701,-4.5586,-4.5513,0.0,0.0,0.0,0.0,0.0,0.0,0.0,0.0,0.0,0.0,-1.7218,-1.8669,-2.055,-2.1768,-2.323,-2.5153,-2.5315,-2.4462,-2.2505,-2.4168,0.0,0.0,0.0,0.0,-3.0302,-3.0396,-3.0796,-3.1486,-3.009,-2.9753,-3.0394,-2.9058,-2.8801,-2.9476,-3.018,-3.0502,-3.0645,-3.2512,-3.4245,-3.5733,-3.5823,-3.5084,-3.3852,0.0,0.0,0.0,0.0,0.0,0.0,0.0,0.0,0.0,0.0,0.0,0.0,0.0,0.0,0.0,0.0,0.0,0.0,0.0,0.0,0.0,0.0,0.0,0.0,0.0,0.0,0.0,0.0,0.0,0.0,0.0,0.0,0.0,-4.8871,-5.2158,-5.4108,-5.2863,-5.6745,-5.8546,-5.6066,-5.7357,-5.8042,-5.7323,-5.8137,-5.8004,-5.6523,-5.8138,-5.834,-5.664,-5.7383,-5.7012,-5.5312,-5.5254,-5.4785,-5.3945,-5.3047,-5.2187,-5.1367,-5.1328,-5.0449,-4.8945,-4.9766,-4.9485,-4.8457,-4.8437,-4.7818,-4.6855,-4.6894,-4.6894,-4.6759,-4.5913,-4.5586,-4.5495,0.0,0.0,0.0,0.0,0.0,0.0,0.0,0.0,0.0,0.0,-1.617,-1.7115,-1.7637,-1.8771,-1.9843,-2.0689,-2.0893,-2.0656,-2.001,0.0,0.0,0.0,0.0,0.0,-2.7593,-2.8489,-2.9079,-2.9331,-2.8415,-2.8078,-2.8255,-2.7869,-2.7788,-2.7981,-2.8174,-2.8587,-2.9134,-3.0138,-3.1144,-3.224,-3.4318,-3.4914,-3.4481,0.0,0.0,0.0,0.0,0.0,0.0,0.0,0.0,0.0,0.0,0.0,0.0,0.0,0.0,0.0,0.0,0.0,0.0,0.0,0.0,0.0,0.0,0.0,0.0,0.0,0.0,0.0,0.0,0.0,0.0,0.0,0.0,-5.0945,-5.2227,-5.4601,-5.655,-5.7402,-5.8948,-5.9652,-5.8945,-5.9062,-5.9162,-5.9082,-5.8253,-5.7653,-5.7361,-5.7317,-5.7109,-5.6621,-5.6211,-5.5781,-5.5293,-5.4043,-5.3281,-5.3047,-5.1582,-5.0762,-5.0508,-4.9883,-4.9336,-4.8887,-4.8496,-4.8077,-4.7657,-4.6925,-4.6402,-4.6158,-4.6694,-4.6509,-4.5932,-4.5682,-4.5438,-4.5084,0.0,0.0,0.0,0.0,0.0,0.0,0.0,0.0,0.0,0.0,-1.4562,-1.5207,-1.4886,-1.5938,-1.6857,-1.7414,-1.7501,-1.7574,-1.754,0.0,0.0,0.0,0.0,-2.4684,-2.5296,-2.5845,-2.6138,-2.6138,-2.5234,-2.4912,-2.5173,-2.4606,-2.4594,-2.5085,-2.5085,-2.5452,-2.6169,-2.7342,-2.8429,-2.9627,-3.2057,-3.3384,-3.3819,-3.3777,-3.3768,-3.3803,-3.3962,-3.5135,-3.6466,-3.5597,0.0,0.0,0.0,0.0,0.0,0.0,0.0,0.0,0.0,0.0,0.0,0.0,0.0,0.0,0.0,0.0,0.0,0.0,0.0,0.0,0.0,0.0,0.0,0.0,-4.94,-5.2352,-5.4063,-5.6107,-5.7702,-5.8502,-5.9146,-5.9417,-5.9073,-5.9013,-5.8886,-5.8665,-5.7862,-5.7293,-5.7073,-5.6432,-5.6055,-5.6055,-5.5215,-5.457,-5.4219,-5.3203,-5.2344,-5.1641,-5.0664,-4.9824,-4.9101,-4.8965,-4.8496,0.0,-4.7656,-4.7274,-4.6729,-4.6146,-4.5828,0.0,0.0,0.0,0.0,0.0,-4.5476,-4.5148,0.0,0.0,0.0,0.0,0.0,0.0,0.0,0.0,0.0,0.0,0.0,-1.2897,-1.2214,-1.3114,-1.4027,-1.4644,-1.4882,-1.5141,0.0,0.0,0.0,-2.1042,-2.1861,-2.256,-2.3146,-2.2719,-2.2422,-2.2367,-2.1287,-2.1084,-2.1643,-2.047,-2.0495,-2.1578,-2.1647,-2.1979,-2.2616,-2.4413,-2.6002,-2.7385,-2.9197,-3.1028,-3.2592,-3.2604,-3.368,-3.5048,-3.4449,-3.548,-3.7097,-3.725,0.0,0.0,0.0,0.0,0.0,0.0,0.0,0.0,0.0,0.0,0.0,0.0,0.0,0.0,0.0,0.0,0.0,0.0,0.0,0.0,0.0,0.0,0.0,0.0,-5.0785,-5.3181,-5.4706,-5.6611,-5.7714,-5.7314,-5.8012,-5.8253,-5.7587,-5.7851,-5.7774,-5.7049,-5.7133,-5.6889,-5.6094,0.0,0.0,0.0,0.0,-5.3437,-5.2558,-5.2461,-5.1621,-5.0058,-4.9941,-4.9101,-4.7617,-4.8301,-4.7754,-4.6348,-4.7129,-4.6873,-4.5916,-4.5907,-4.5769,-4.5586,-4.5586,-4.5586,-4.5586,-4.5586,-4.5528,-4.5281,0.0,0.0,0.0,0.0,0.0,0.0,0.0,0.0,0.0,-1.0199,-1.0297,-1.0218,-0.9533,-1.0128,-1.0618,-1.0759,-1.2323,-1.3845,0.0,0.0,-1.7139,-1.8321,-1.9162,-1.9668,-1.9753,-1.987,-1.969,-1.9211,-1.8943,-1.8891,-1.9041,-1.8774,-1.9027,-1.9759,-2.0186,-2.0696,-2.1329,-2.2657,-2.3705,-2.4535,-2.5929,-2.8944,-3.2656,-3.3182,-3.3607,-3.3969,-3.4406,-3.5842,-3.7445,-3.674,-3.7644,-3.8805,-3.7662,0.0,0.0,0.0,0.0,0.0,0.0,0.0,0.0,0.0,0.0,0.0,0.0,0.0,0.0,0.0,0.0,0.0,0.0,0.0,0.0,-4.9247,-5.186,-5.3754,-5.4409,-5.541,-5.6061,-5.5951,-5.6457,-5.6866,-5.7035,-5.6863,-5.683,-5.6992,-5.6497,-5.5888,-5.5189,-5.5152,0.0,-5.4277,-5.3418,-5.2539,-5.166,-5.1016,-5.0176,-4.9141,0.0,0.0,-4.7578,-4.7051,-4.6621,-4.6308,-4.6484,-4.6358,-4.6045,-4.594,-4.5769,-4.5586,-4.5586,-4.5586,-4.5586,-4.5586,-4.5163,-4.4378,0.0,0.0,0.0,0.0,0.0,0.0,0.0,0.0,0.0,0.0,-0.8639,-0.8384,-0.7712,-0.8305,-0.8829,-0.9179,-1.0764,0.0,0.0,-1.4123,-1.4778,-1.5614,-1.6565,-1.706,-1.7031,-1.7239,-1.7027,-1.6397,-1.6477,-1.6312,-1.5986,-1.6358,-1.6791,-1.735,-1.7858,-1.8411,-1.9006,-2.0114,-2.117,-2.2247,-2.3497,-2.6059,-2.9162,-3.051,-3.1643,-3.2656,-3.3401,-3.5223,-3.7232,-3.7186,-3.8031,-3.9127,-3.899,-3.9241,-3.9432,0.0,0.0,0.0,0.0,0.0,0.0,0.0,0.0,0.0,0.0,0.0,0.0,0.0,0.0,-4.4445,0.0,0.0,-4.8837,-5.0712,-5.2391,-5.3588,-5.3781,-5.3794,-5.4087,-5.4895,-5.538,-5.5641,-5.5715,-5.5721,-5.5913,-5.6316,-5.5708,-5.5157,-5.4828,-5.4153,-5.3635,-5.3268,-5.2479,-5.1641,-5.0801,-5.0391,-4.9531,-4.8242,-4.7812,-4.7363,-4.6933,-4.6504,-4.6308,-4.6308,-4.6308,-4.6223,-4.6084,-4.592,-4.575,-4.5586,-4.5586,-4.5586,-4.5547,-4.5105,-4.4662,-4.4088,0.0,0.0,0.0,0.0,0.0,0.0,0.0,0.0,0.0,0.0,0.0,-0.6924,-0.6258,-0.6961,-0.7865,0.0,0.0,0.0,0.0,-1.2254,-1.2761,-1.3345,-1.4145,-1.4574,-1.4574,-1.4591,-1.431,-1.3768,-1.3884,-1.3669,-1.3165,-1.3669,-1.4264,-1.4882,-1.5531,-1.6177,-1.6791,-1.7857,-1.9107,-2.0481,-2.1644,-2.3158,-2.4991,-2.6891,-2.9015,-3.1078,-3.1911,-3.3808,-3.6079,-3.7059,-3.785,-3.8731,-3.9946,-4.004,-3.952,-3.8515,-3.8117,0.0,0.0,0.0,0.0,0.0,0.0,0.0,0.0,0.0,-4.3664,-4.5031,-4.5748,-4.6819,-4.901,-4.9786,-5.0527,-5.1995,-5.2784,-5.317,-5.3004,-5.2417,-5.2417,-5.3573,-5.4112,-5.4373,-5.425,-5.4695,-5.5186,-5.5662,-5.5035,-5.4594,-5.4452,-5.3011,-5.2129,-5.2021,-5.1279,-5.0507,-4.9707,-4.9687,-4.8906,-4.7344,-4.7344,-4.6973,-4.6308,-4.6308,-4.6308,-4.6308,-4.6247,-4.615,-4.6059,-4.5844,-4.5692,-4.5586,-4.5586,-4.5586,-4.5509,-4.4797,-4.4355,-4.3874,0.0,0.0,0.0,0.0,0.0,0.0,0.0,0.0,0.0,0.0,0.0,0.0,0.0,0.0,0.0,0.0,0.0,0.0,-1.1469,-1.1835,-1.2091,-1.2256,-1.2038,-1.193,-1.193,-1.1507,-1.1318,-1.1209,-1.1225,-1.1199,-1.1157,-1.1199,-1.1692,-1.2623,-1.388,-1.491,-1.5848,-1.7126,-1.8329,-1.9376,-2.0262,-2.1271,-2.2482,-2.4106,-2.6376,-2.8731,-3.0158,-3.1649,-3.3117,-3.4607,-3.595,-3.718,-3.8038,-3.8975,-3.9489,-3.8044,0.0,-3.6962,-3.5296,-3.6114,-3.8084,-4.0895,-4.1156,-4.1914,0.0,0.0,-4.7438,-4.9588,-5.0659,-5.1301,-5.1599,-5.1687,-5.2013,-5.2931,-5.3151,-5.2968,-5.2234,-5.205,-5.1793,-5.1279,-5.1852,-5.2584,-5.3289,-5.4113,-5.4876,-5.564,-5.4975,-5.4227,-5.3584,-5.1978,-5.0828,-5.0299,-4.9454,-4.8638,-4.7891,-4.7891,-4.7402,-4.6445,-4.6445,-4.6387,-4.6308,-4.6308,-4.6308,-4.6289,-4.6045,-4.5932,-4.5899,-4.5713,-4.562,-4.5586,-4.5586,-4.5586,-4.5586,-4.549,-4.4509,-4.3201,0.0,0.0,0.0,0.0,0.0,0.0,0.0,0.0,0.0,0.0,0.0,0.0,0.0,0.0,0.0,0.0,0.0,0.0,-0.901,-0.9028,-0.9079,-0.9305,-0.9651,-0.9873,-0.9873,-1.047,-1.0618,-1.0218,-1.0618,-1.0724,-1.0522,-1.0926,-1.1369,-1.1935,-1.2762,-1.3432,-1.4041,-1.4799,-1.6096,-1.7544,-1.7912,-1.9599,-2.1939,-2.2665,-2.4287,-2.6426,-2.8121,-2.9275,0.0,0.0,-3.3928,-3.4675,-3.6249,-3.6748,-3.6484,-3.4975,-3.5036,0.0,-3.6823,-3.7492,-3.85,0.0,-4.2149,-4.3297,-4.5962,-4.7041,-4.8025,-4.9898,-5.0897,-5.1597,-5.2,-5.2045,-5.2324,0.0,-5.3206,-5.2931,-5.2105,-5.1187,-5.0288,-4.9462,-5.0086,-5.1287,-5.3025,-5.3107,-5.3585,-5.4891,-5.376,-5.2646,-5.1873,-5.077,-4.9795,-4.9022,-4.8733,-4.8234,-4.7486,-4.7486,-4.7083,-4.6308,-4.6308,-4.6308,-4.6308,-4.6308,-4.6308,-4.6289,-4.6175,-4.6045,-4.589,-4.5817,-4.5404,-4.4836,-4.4836,-4.4547,-4.4143,-4.4143,-4.3701,-4.2951,0.0,0.0,0.0,0.0,0.0,0.0,0.0,0.0,0.0,0.0,0.0,0.0,0.0,0.0,0.0,0.0,0.0,0.0,0.0,-0.705,-0.7065,-0.7225,-0.7862,-0.8211,-0.8211,-0.9138,-0.9569,-0.9369,-0.9829,-1.0105,-1.0118,-1.0372,-1.0684,-1.0981,-1.1338,-1.1615,-1.1963,-1.2881,-1.4122,-1.5629,-1.6561,-1.862,-2.1221,-2.1963,-2.2998,-2.4242,-2.6339,-2.7414,0.0,0.0,-3.152,-3.2099,-3.3668,-3.4097,-3.3761,-3.2537,-3.2817,-3.4177,-3.681,0.0,0.0,-4.0674,-4.2282,-4.3652,-4.494,-4.6196,-4.7583,-4.9531,-5.0396,-5.0992,-5.1705,-5.1952,-5.2271,-5.2831,-5.306,-5.2858,-5.1811,-5.0453,-4.926,-4.8398,-4.8655,-4.9917,-5.2451,-5.2479,-5.2826,-5.4045,-5.276,-5.1664,-5.1048,-4.9864,-4.8914,-4.8313,-4.7947,-4.7512,-4.6981,-4.7021,-4.6772,-4.6247,-4.6289,-4.6308,-4.6308,-4.6308,-4.6172,-4.5957,-4.615,-4.6007,-4.5589,-4.555,-4.5059,-4.4322,-4.408,-4.3605,-4.3066,-4.2835,-4.2739,-4.2566,0.0,0.0,0.0,0.0,0.0,0.0,0.0,0.0,0.0,0.0,0.0,0.0,0.0,0.0,0.0,0.0,0.0,0.0,0.0,-0.7163,-0.7225,-0.7121,-0.7014,-0.6951,-0.6951,-0.6798,-0.7236,-0.8267,-0.8267,-0.8745,-0.9724,-0.8884,-0.8673,-0.9093,-0.9122,-0.9325,-0.9811,-1.195,-1.3101,-1.3769,-1.6988,-1.8589,-1.9409,-2.2162,-2.2628,-2.2157,-2.5068,0.0,0.0,0.0,-2.8571,-2.9735,-2.9844,-3.1112,0.0,-3.1736,-3.1433,0.0,0.0,0.0,-3.6412,-3.941,-4.0731,-4.2039,-4.4923,-4.5597,-4.648,-4.9374,-5.0021,-5.027,-5.0996,-5.1643,-5.2112,-5.2112,-5.2707,-5.2656,-5.1059,-5.0105,-4.926,-4.8398,-4.7645,-4.8311,0.0,-5.2494,-5.3177,-5.3238,-5.2414,-5.1895,-5.1875,-4.949,-4.8193,-4.8285,-4.6726,-4.5902,-4.5946,-4.6078,-4.6128,-4.6113,-4.6246,-4.6308,-4.6308,-4.6308,-4.584,-4.5078,-4.5799,-4.562,-4.4826,-4.4617,-4.4531,-4.4408,-4.3493,-4.3124,-4.3008,-4.2162,-4.1854,-4.1835,0.0,0.0,0.0,0.0,0.0,0.0,0.0,0.0,0.0,0.0,0.0,0.0,0.0,0.0,0.0,0.0,0.0,0.0,0.0,-0.4085,-0.4117,-0.4033,-0.4355,-0.4507,-0.4525,-0.5505,-0.6271,-0.6713,-0.799,-0.8949,-0.9576,-0.9244,-0.897,-0.8573,-0.7864,-0.7347,-0.7147,-0.8652,-0.9874,-1.1044,-1.3436,-1.6038,-1.8598,-1.9512,-2.1074,-2.284,0.0,0.0,0.0,0.0,-2.6858,-2.776,-2.8697,-2.9335,0.0,-2.9956,-3.089,-3.2408,-3.4641,0.0,-3.7736,-4.0223,-4.1035,-4.1713,-4.3676,-4.4121,-4.4724,-4.6725,-4.6315,-4.5977,-4.723,-4.7625,-4.8084,-4.9103,-5.0277,-5.1034,-5.0877,-5.0159,-4.9307,-4.8414,-4.904,0.0,0.0,0.0,0.0,-5.2657,-5.0677,-4.9394,-4.9394,-4.8067,-4.7064,-4.6532,-4.5954,-4.5718,-4.5825,-4.5869,-4.592,-4.5974,-4.6089,-4.6173,-4.6153,-4.5662,-4.5273,-4.498,-4.4646,-4.4321,-4.3992,-4.3817,-4.3391,-4.2731,-4.1759,-4.1046,-4.0469,-3.9604,-3.9277,-3.9354,0.0,0.0,0.0,0.0,0.0,0.0,0.0,0.0,0.0,0.0,0.0,0.0,0.0,0.0,0.0,0.0,0.0,0.0,0.0,0.0,-0.2529,-0.2567,-0.2849,-0.3028,-0.3025,-0.4282,-0.5369,-0.6158,-0.7809,-0.9087,-1.0043,-0.9462,-0.8764,-0.7977,-0.6578,-0.552,-0.4874,-0.6131,-0.7326,-0.8688,-1.1134,-1.4086,-1.7072,-1.8119,-1.9855,0.0,0.0,0.0,0.0,-2.4212,-2.5286,-2.6075,-2.6927,-2.7613,-2.8264,-2.9291,-3.0718,-3.2508,-3.4932,-3.6307,-3.7551,-3.9511,-3.9993,-4.0309,-4.1504,-4.2011,-4.2629,-4.4196,-4.349,-4.3073,-4.4524,-4.4836,-4.5192,-4.6438,-4.7815,-4.9096,-4.9992,-4.9153,-4.8665,-4.9127,-4.9627,0.0,0.0,0.0,0.0,-5.1548,-5.0308,-4.9202,-4.8606,-4.7778,-4.6951,-4.6086,-4.5759,-4.5651,-4.5737,-4.5789,-4.5825,-4.5899,-4.6039,-4.5933,-4.562,-4.5191,-4.4668,-4.4062,-4.3808,-4.3493,-4.3141,-4.2713,-4.2174,-4.1468,-4.0159,-3.9316,-3.8757,-3.82,-3.7796,-3.7661,0.0,0.0,0.0,0.0,0.0,0.0,0.0,0.0,0.0,0.0,0.0,0.0,0.0,0.0,0.0,0.0,0.0,0.0,0.0,0.0,0.0,-0.2629,-0.2455,-0.2397,-0.246,-0.3199,-0.4479,-0.6371,-0.7595,-0.9137,-1.0883,-0.9369,-0.8196,-0.7186,-0.5372,-0.4012,-0.3185,-0.4511,-0.5607,-0.6617,-1.0186,-1.2667,-1.4731,-1.786,0.0,0.0,0.0,0.0,0.0,0.0,0.0,0.0,0.0,-2.6138,-2.8047,-2.9817,-3.0927,-3.2203,-3.4883,-3.5648,-3.5999,-3.7412,-3.779,-3.7934,-3.8697,-3.9438,-4.0358,-4.1807,-4.1498,-4.1388,0.0,0.0,-4.3478,-4.426,-4.5655,-4.7137,-4.856,-4.7475,-4.7596,0.0,0.0,0.0,0.0,0.0,0.0,-4.9936,0.0,-5.0952,-4.9394,-4.8471,-4.7625,-4.6855,-4.6028,-4.5586,-4.5586,-4.5679,-4.5794,-4.5881,-4.593,-4.5558,-4.4797,-4.4838,-4.3965,-4.2441,-4.3183,-4.3047,-4.2207,-4.127,-4.0833,-4.0583,-3.8753,-3.7977,-3.7868,-3.7815,-3.7257,-3.6622,0.0,0.0,0.0,0.0,0.0,0.0,0.0,0.0,0.0,0.0,0.0,0.0,0.0,0.0,0.0,0.0,0.0,0.0,0.0,0.0,0.0,0.0,0.0,0.0,0.0,0.0,0.0,0.0,0.0,-0.8991,-1.0206,-1.0043,-0.8988,-0.7267,-0.624,-0.4794,-0.3183,-0.4459,-0.5155,-0.567,0.0,-1.105,-1.2692,0.0,0.0,0.0,0.0,0.0,0.0,0.0,0.0,0.0,0.0,-2.9039,-3.0353,-3.1482,-3.3102,-3.4707,-3.5425,-3.6039,-3.6686,-3.7582,-3.7406,-3.7254,-3.7902,-3.8251,-3.8489,-3.8882,-3.8338,-3.7986,0.0,0.0,0.0,-4.2636,-4.5066,0.0,-4.9396,-4.9814,0.0,-5.0805,0.0,-5.1499,-5.0325,-5.1065,0.0,0.0,-4.7947,-4.7799,-4.7971,-4.6858,-4.6144,-4.5932,-4.572,-4.5586,-4.5586,-4.4999,-4.5009,-4.5669,-4.4599,-4.4304,-4.4694,-4.3562,-4.2812,-4.2344,-4.1308,-4.0742,-4.0469,-3.9471,-3.9052,-3.8912,-3.7695,-3.6798,-3.6134,-3.5425,-3.4622,-3.391,0.0,0.0,0.0,0.0,0.0,0.0,0.0,0.0,0.0,0.0,0.0,0.0,0.0,0.0,0.0,0.0,0.0,0.0,0.0,0.0,0.0,0.0,0.0,0.0,0.0,0.0,0.0,0.0,0.0,0.0,0.0,-1.1396,-1.0688,-0.9485,-0.7927,-0.6403,-0.5123,0.0,0.0,0.0,0.0,0.0,0.0,0.0,0.0,0.0,0.0,0.0,0.0,0.0,0.0,-2.6142,-2.8335,-2.9743,-3.0822,-3.1916,0.0,-3.4736,-3.5031,-3.5431,-3.5864,-3.6269,-3.6066,-3.5708,-3.5521,-3.575,-3.5864,-3.5209,-3.4748,0.0,0.0,0.0,0.0,0.0,0.0,0.0,-4.828,-4.8888,-4.9601,0.0,-5.1338,0.0,-5.0251,-5.047,-4.9954,0.0,-4.7843,-4.7528,-4.6999,-4.6296,-4.5803,-4.5605,-4.5586,-4.5586,-4.5586,-4.4393,-4.4201,-4.5026,-4.3853,-4.3384,-4.3491,-4.2709,-4.1945,-4.1166,0.0,-3.9687,-3.9238,-3.7883,-3.7321,-3.716,-3.5833,-3.5002,-3.4486,-3.3955,-3.3409,-3.2891,0.0,0.0,0.0,0.0,0.0,0.0,0.0,0.0,0.0,0.0,0.0,0.0,0.0,0.0,0.0,0.0,0.0,0.0,0.0,0.0,0.0,0.0,0.0,0.0,0.0,0.0,0.0,0.0,0.0,0.0,0.0,0.0,0.0,0.0,0.0,0.0,0.0,0.0,0.0,0.0,0.0,0.0,0.0,0.0,0.0,0.0,0.0,0.0,0.0,0.0,-2.4259,-2.591,-2.8036,-2.9389,-3.0523,-3.194,-3.2942,-3.3734,-3.4457,-3.4487,-3.4382,-3.4562,-3.4412,-3.3918,-3.2781,-3.3054,-3.3144,-3.17,0.0,-3.2257,-3.3952,-3.5547,-3.7169,-3.8856,0.0,-4.4079,-4.6529,-4.6878,-4.784,-5.0349,-5.0171,-4.9999,-5.0309,-4.9111,-4.8177,-4.7865,-4.8511,-4.8126,-4.6235,-4.6096,-4.5886,-4.5476,-4.5453,-4.5395,-4.5358,-4.3742,-4.3335,-4.4124,-4.3278,-4.2504,-4.1826,-4.1929,-4.1074,-3.9513,0.0,0.0,-3.8125,-3.6367,-3.5621,-3.5422,-3.389,-3.3195,-3.3038,-3.3025,-3.287,-3.258,0.0,0.0,0.0,0.0,0.0,0.0,0.0,0.0,0.0,0.0,0.0,0.0,0.0,0.0,0.0,0.0,0.0,0.0,0.0,0.0,0.0,0.0,0.0,0.0,0.0,0.0,0.0,0.0,0.0,0.0,0.0,0.0,0.0,0.0,0.0,0.0,0.0,0.0,0.0,0.0,0.0,0.0,0.0,0.0,0.0,0.0,0.0,0.0,0.0,0.0,-2.4427,-2.659,-2.817,-2.9738,-3.1392,-3.3149,-3.3778,-3.4155,-3.507,-3.4517,-3.3933,-3.5055,-3.4083,-3.2796,-3.2557,-3.2631,0.0,0.0,0.0,-3.2325,-3.2023,-3.4129,-3.6771,-3.9446,0.0,0.0,0.0,0.0,-4.8687,0.0,0.0,0.0,0.0,0.0,0.0,0.0,0.0,-4.5504,-4.541,-4.5092,-4.4859,-4.4776,-4.4614,-4.4401,-4.4111,-4.2713,-4.247,-4.3278,-4.1834,-4.1071,-4.0897,-4.0383,-3.9591,-3.8541,-3.7243,0.0,-3.6328,-3.457,-3.3847,-3.3807,-3.3434,-3.2853,-3.2202,-3.2141,-3.1657,-3.1009,0.0,0.0,0.0,0.0,0.0,0.0,0.0,0.0,0.0,0.0,0.0,0.0,0.0,0.0,0.0,0.0,0.0,0.0,0.0,0.0,0.0,0.0,0.0,0.0,0.0,0.0,0.0,0.0,0.0,0.0,0.0,0.0,0.0,0.0,0.0,0.0,0.0,0.0,0.0,0.0,0.0,0.0,0.0,0.0,0.0,0.0,0.0,0.0,0.0,0.0,-2.3292,-2.5351,-2.7639,-2.9288,-3.0641,-3.2078,-3.3241,-3.4037,-3.423,-3.4154,-3.4158,-3.4816,-3.3993,-3.2662,-3.13,0.0,0.0,0.0,-2.8804,-3.0109,-3.0402,0.0,0.0,0.0,0.0,0.0,0.0,0.0,0.0,0.0,0.0,0.0,0.0,0.0,0.0,0.0,0.0,-4.4236,-4.4563,-4.4167,-4.3737,-4.3303,-4.2813,-4.2752,-4.317,-4.1667,-4.1411,-4.2393,-4.0752,-3.9978,-3.9953,-3.928,-3.8505,-3.762,-3.6497,0.0,-3.5195,-3.3476,-3.2773,-3.2734,-3.2241,-3.1809,-3.1418,-3.1382,-3.1071,-3.0583,0.0,0.0,0.0,0.0,0.0,0.0,0.0,0.0,0.0,0.0,0.0,0.0,0.0,0.0,0.0,0.0,0.0,0.0,0.0,0.0,0.0,0.0,0.0,0.0,0.0,0.0,0.0,0.0,0.0,0.0,0.0,0.0,0.0,0.0,0.0,0.0,0.0,0.0,0.0,0.0,0.0,0.0,0.0,0.0,0.0,0.0,0.0,0.0,0.0,0.0,-2.2536,-2.3967,-2.6741,-2.8239,-2.9263,-3.0372,-3.1949,-3.335,-3.3317,-3.3776,-3.4312,-3.4651,-3.3978,-3.2632,-3.0148,-2.9579,0.0,0.0,-2.6782,-2.8142,-2.9175,0.0,-3.2546,0.0,0.0,0.0,0.0,0.0,0.0,0.0,0.0,0.0,0.0,0.0,0.0,0.0,0.0,0.0,-4.3602,-4.3193,-4.2629,-4.1912,-4.1229,-4.1283,-4.2107,-4.0534,-4.0215,-4.1138,-3.9657,-3.8881,-3.8734,-3.8228,-3.7452,-3.6423,-3.5723,0.0,0.0,-3.2539,-3.1914,-3.1855,-3.1172,-3.0781,-3.0625,-3.0625,-3.0446,-3.0118,0.0,0.0,0.0,0.0,0.0,0.0,0.0,0.0,0.0,0.0,0.0,0.0,0.0,0.0,0.0,0.0,0.0,0.0,0.0,0.0,0.0,0.0,0.0,0.0,0.0,0.0,0.0,0.0,0.0,0.0,0.0,0.0,0.0,0.0,0.0,0.0,0.0,0.0,0.0,0.0,0.0,0.0,0.0,0.0,0.0,0.0,0.0,0.0,0.0,0.0,0.0,-2.3579,-2.5273,-2.6697,-2.7883,-2.8703,0.0,0.0,-3.3462,-3.3619,-3.3543,-3.5041,-3.3993,-3.2078,-3.0043,0.0,0.0,-2.6153,-2.7156,-2.8529,-2.8568,-2.927,-3.0485,0.0,0.0,0.0,0.0,0.0,0.0,0.0,0.0,0.0,0.0,0.0,0.0,0.0,0.0,0.0,-4.2426,-4.2006,-4.1582,-4.1204,-4.0993,-4.0785,-4.0504,-3.9204,-3.8738,-3.9071,-3.8191,-3.7472,-3.693,-3.7007,-3.6192,-3.4692,-3.3891,0.0,0.0,-3.1406,-3.1016,-3.1016,-3.0937,-3.043,-2.9726,-2.9726,-2.9219,-2.8593,0.0,0.0,0.0,0.0,0.0,0.0,0.0,0.0,0.0,0.0,0.0,0.0,0.0,0.0,0.0,0.0,0.0,0.0,0.0,0.0,0.0,0.0,0.0,0.0,0.0,0.0,0.0,0.0,0.0,0.0,0.0,0.0,0.0,0.0,0.0,0.0,0.0,0.0,0.0,0.0,0.0,0.0,0.0,0.0,0.0,0.0,0.0,0.0,0.0,0.0,0.0,0.0,-2.3594,-2.4855,0.0,0.0,-2.9197,-3.0498,-3.1915,-3.2582,-3.3097,-3.4269,-3.2806,-3.0822,-2.9814,0.0,-2.7844,-2.5989,-2.6871,-2.7991,-2.7955,-2.8505,-2.9383,0.0,0.0,0.0,0.0,0.0,0.0,0.0,0.0,0.0,0.0,0.0,0.0,0.0,0.0,0.0,-3.8995,-3.9559,-3.9349,-3.8248,-3.8146,-3.8114,-3.813,-3.7629,-3.7618,-3.806,-3.6743,-3.6042,-3.5949,-3.5024,-3.4254,-3.3608,-3.2844,0.0,0.0,-3.0398,-2.9758,-2.927,-2.927,-2.9099,-2.8828,-2.8828,-2.8594,-2.8262,0.0,0.0,0.0,0.0,0.0,0.0,0.0,0.0,0.0,0.0,0.0,0.0,0.0,0.0,0.0,0.0,0.0,0.0,0.0,0.0,0.0,0.0,0.0,0.0,0.0,0.0,0.0,0.0,0.0,0.0,0.0,0.0,0.0,0.0,0.0,0.0,0.0,0.0,0.0,0.0,0.0,0.0,0.0,0.0,0.0,0.0,0.0,0.0,0.0,0.0,0.0,0.0,0.0,0.0,0.0,0.0,-2.846,-3.0044,-3.1145,-3.226,-3.3241,-3.4177,-3.2474,-3.0367,0.0,0.0,-2.726,-2.6138,-2.6961,-2.7934,-2.8128,-2.8412,-2.8748,0.0,0.0,0.0,0.0,0.0,0.0,0.0,0.0,0.0,0.0,0.0,0.0,0.0,0.0,0.0,0.0,-3.6635,-3.6826,-3.6321,-3.6303,-3.639,-3.6586,-3.6103,-3.6101,-3.6577,-3.4908,-3.4308,-3.4611,-3.3203,-3.2473,-3.2288,0.0,0.0,0.0,-2.9324,-2.8714,-2.8168,-2.8198,-2.8075,-2.7889,-2.791,-2.7754,-2.7441,0.0,0.0,0.0,0.0,0.0,0.0,0.0,0.0,0.0,0.0,0.0,0.0,0.0,0.0,0.0,0.0,0.0,0.0,0.0,0.0,0.0,0.0,0.0,0.0,0.0,0.0,0.0,0.0,0.0,0.0,0.0,0.0,0.0,0.0,0.0,0.0,0.0,0.0,0.0,0.0,0.0,0.0,0.0,0.0,0.0,0.0,0.0,0.0,0.0,0.0,0.0,0.0,0.0,0.0,0.0,0.0,-2.7709,-3.0812,-3.1817,-3.301,-3.4245,-3.5213,-3.3438,-3.1123,0.0,0.0,-2.738,-2.6722,-2.7649,-2.8786,-2.9445,-2.9026,-2.8607,-2.8607,0.0,0.0,0.0,0.0,0.0,0.0,0.0,0.0,0.0,0.0,0.0,0.0,0.0,0.0,0.0,-3.3432,-3.4189,-3.6248,-3.6303,-3.6285,-3.6285,-3.4651,-3.3972,-3.4218,-3.2605,-3.2108,-3.26,-3.1707,-3.1021,0.0,0.0,0.0,0.0,-2.8116,-2.8116,-2.8106,-2.8168,-2.7674,-2.6915,-2.6991,-2.6465,-2.5723,0.0,0.0,0.0,0.0,0.0,0.0,0.0,0.0,0.0,0.0,0.0,0.0,0.0,0.0,0.0,0.0,0.0,0.0,0.0,0.0,0.0,0.0,0.0,0.0,0.0,0.0,0.0,0.0,0.0,0.0,0.0,0.0,0.0,0.0,0.0,0.0,0.0,0.0,0.0,0.0,0.0,0.0,0.0,0.0,0.0,0.0,0.0,0.0,0.0,0.0,0.0,0.0,0.0,0.0,0.0,0.0,0.0,0.0,-2.9351,-2.9748,-3.0009,-3.1426,-2.9827,-2.805,-2.8785,-2.7874,-2.6976,-2.7215,-2.8338,-2.9205,-2.8951,-2.9445,-2.9759,-2.934,-3.0398,0.0,0.0,0.0,0.0,0.0,0.0,0.0,0.0,0.0,0.0,0.0,0.0,0.0,0.0,-3.1827,-3.2409,-3.3325,-3.3086,-3.2944,-3.2944,-3.2412,-3.2293,-3.2545,-3.0942,-3.0339,-3.0639,-2.9355,0.0,0.0,0.0,0.0,0.0,-2.7128,-2.6786,-2.6262,-2.6287,-2.615,-2.5956,-2.6015,-2.5868,-2.5636,0.0,0.0,0.0,0.0,0.0,0.0,0.0,0.0,0.0,0.0,0.0,0.0,0.0,0.0,0.0,0.0,0.0,0.0,0.0,0.0,0.0,0.0,0.0,0.0,0.0,0.0,0.0,0.0,0.0,0.0,0.0,0.0,0.0,0.0,0.0,0.0,0.0,0.0,0.0,0.0,0.0,0.0,-2.3715,0.0,0.0,0.0,0.0,0.0,0.0,0.0,0.0,0.0,0.0,0.0,0.0,0.0,-2.6582,0.0,0.0,-2.9068,-2.9345,-3.0363,-2.8853,0.0,0.0,-2.7739,-2.6916,-2.8083,-2.8996,-2.952,-2.9355,-2.9968,-3.0223,-2.9355,-3.0298,0.0,0.0,0.0,0.0,0.0,0.0,0.0,0.0,0.0,0.0,0.0,0.0,0.0,0.0,-2.9911,-2.9854,-2.981,-3.0297,-3.0852,-3.1384,-3.035,-3.016,-3.0735,-2.9119,-2.8482,-2.8664,-2.7536,0.0,0.0,0.0,0.0,0.0,-2.6157,-2.5854,-2.5352,-2.5398,-2.5428,-2.5463,-2.5543,-2.5375,-2.5154,0.0,0.0,0.0,0.0,0.0,0.0,0.0,0.0,0.0,0.0,0.0,0.0,0.0,0.0,0.0,0.0,0.0,0.0,0.0,0.0,0.0,0.0,0.0,0.0,0.0,0.0,0.0,-2.5517,-2.5662,-2.6016,-2.659,0.0,0.0,0.0,0.0,0.0,0.0,0.0,0.0,0.0,0.0,0.0,0.0,0.0,0.0,0.0,0.0,0.0,0.0,0.0,0.0,0.0,0.0,0.0,0.0,0.0,0.0,0.0,0.0,-3.0298,0.0,0.0,0.0,0.0,0.0,-2.8113,0.0,-2.925,-2.9639,-2.9819,-3.0402,-3.0507,-3.0103,-2.8876,-2.9699,0.0,0.0,0.0,0.0,0.0,0.0,0.0,0.0,0.0,0.0,0.0,0.0,0.0,0.0,-2.7841,-2.6909,-2.6155,-2.7859,-2.9511,-3.1011,-2.85,-2.7773,-2.881,-2.7273,-2.661,-2.6767,-2.6155,0.0,0.0,0.0,0.0,0.0,-2.5245,-2.5245,-2.5303,-2.5244,-2.5243,-2.5316,-2.5302,-2.4838,-2.4325,0.0,0.0,0.0,0.0,0.0,0.0,0.0,0.0,0.0,0.0,0.0,0.0,0.0,0.0,0.0,0.0,0.0,0.0,0.0,0.0,0.0,0.0,0.0,0.0,0.0,0.0,0.0,-2.5568,-2.707,-2.8107,-2.8688,-2.8662,0.0,0.0,0.0,0.0,0.0,0.0,0.0,0.0,0.0,0.0,0.0,0.0,0.0,0.0,-2.3288,-2.3599,0.0,0.0,0.0,0.0,0.0,0.0,0.0,0.0,-2.7505,-2.744,-2.797,0.0,-2.8008,-2.9041,-2.8547,-2.8113,0.0,-2.8831,-2.8547,-2.9983,0.0,-3.0328,-3.0477,-3.0507,-3.0253,-2.9475,-2.9998,0.0,0.0,0.0,0.0,0.0,0.0,0.0,0.0,0.0,0.0,0.0,0.0,0.0,0.0,-2.6978,-2.6387,-2.5403,-2.4988,-2.5575,-2.732,-2.6711,-2.6659,-2.7163,-2.6153,-2.5698,-2.5723,-2.5129,0.0,0.0,0.0,0.0,-2.5245,-2.4639,-2.4736,-2.5178,-2.3906,-2.3827,-2.4317,-2.3734,-2.339,-2.3261,0.0,0.0,0.0,0.0,0.0,0.0,0.0,0.0,0.0,0.0,0.0,0.0,0.0,0.0,0.0,0.0,0.0,0.0,0.0,0.0,0.0,0.0,0.0,0.0,0.0,0.0,0.0,0.0,0.0,-2.8183,0.0,0.0,0.0,0.0,0.0,0.0,0.0,0.0,0.0,0.0,-2.338,0.0,0.0,0.0,0.0,0.0,-2.3942,-2.3989,0.0,-2.5398,-2.5728,-2.5728,0.0,0.0,0.0,0.0,-2.7625,-2.7625,-2.7625,-2.7545,-2.7694,-2.8427,-2.8323,-2.8308,-2.934,0.0,0.0,0.0,0.0,-2.9639,-2.9639,-3.0372,0.0,-2.934,-3.0672,0.0,0.0,0.0,0.0,0.0,0.0,0.0,0.0,0.0,0.0,0.0,0.0,0.0,0.0,-2.513,-2.4421,-2.3515,-2.31,-2.3853,-2.5853,-2.4991,-2.4974,-2.5816,-2.4996,-2.4714,-2.4833,-2.4614,-2.4372,0.0,0.0,0.0,-2.39,-2.3441,-2.3588,-2.3965,-2.3064,-2.3026,-2.3445,-2.3002,-2.2629,-2.2365,0.0,0.0,0.0,0.0,0.0,0.0,0.0,0.0,0.0,0.0,0.0,0.0,0.0,0.0,0.0,0.0,0.0,0.0,0.0,0.0,0.0,0.0,0.0,0.0,0.0,0.0,0.0,0.0,0.0,0.0,0.0,0.0,-2.8857,0.0,0.0,0.0,0.0,0.0,0.0,0.0,-2.434,0.0,0.0,0.0,0.0,0.0,0.0,0.0,0.0,-2.5438,-2.5315,-2.4768,-2.6576,0.0,0.0,0.0,0.0,0.0,-2.7575,-2.8218,-2.8861,-2.8771,-2.8742,-2.8921,-2.9579,0.0,0.0,0.0,0.0,0.0,0.0,0.0,0.0,0.0,0.0,0.0,0.0,0.0,0.0,0.0,0.0,0.0,0.0,0.0,0.0,0.0,0.0,0.0,0.0,-2.3078,-2.2274,-2.1524,-2.1899,-2.3016,-2.4963,-2.3467,-2.3355,-2.4617,-2.3952,-2.3774,-2.4056,-2.4284,-2.3962,0.0,0.0,0.0,-2.2281,-2.2168,-2.2291,-2.2528,-2.2261,-2.2345,-2.2544,-2.2275,-2.1775,-2.1282,0.0,0.0,0.0,0.0,0.0,0.0,0.0,0.0,0.0,0.0,0.0,0.0,0.0,0.0,0.0,0.0,0.0,0.0,0.0,0.0,0.0,0.0,0.0,0.0,0.0,0.0,0.0,0.0,0.0,0.0,-2.9086,-3.0227,-3.0253,0.0,0.0,0.0,-2.5568,-2.5314,-2.4902,-2.4393,-2.5039,0.0,0.0,0.0,0.0,0.0,0.0,0.0,0.0,-2.4119,-2.4461,-2.519,-2.5031,0.0,0.0,0.0,0.0,0.0,-2.7408,-2.8861,-3.0088,-2.9564,-2.943,-2.9594,-3.0223,0.0,0.0,0.0,0.0,0.0,0.0,0.0,0.0,0.0,0.0,0.0,0.0,0.0,0.0,0.0,0.0,0.0,0.0,0.0,0.0,0.0,0.0,0.0,0.0,0.0,-2.1859,-2.1119,-2.115,-2.1528,-2.2208,-2.2535,-2.295,-2.3478,-2.333,-2.3282,-2.3369,-2.3674,-2.3467,0.0,0.0,-2.2947,-2.2243,-2.1563,-2.1689,-2.2205,-2.0793,-2.0758,-2.1359,-1.9936,-1.9402,-1.9316,0.0,0.0,0.0,0.0,0.0,0.0,0.0,0.0,0.0,0.0,0.0,0.0,0.0,0.0,0.0,0.0,0.0,0.0,0.0,0.0,0.0,0.0,0.0,0.0,0.0,0.0,0.0,0.0,0.0,-2.9064,-2.8383,-2.967,-2.9935,-2.9345,0.0,0.0,-2.668,-2.6629,-2.6205,-2.5643,0.0,0.0,0.0,0.0,0.0,0.0,0.0,0.0,0.0,0.0,-2.4169,-2.3861,-2.4723,0.0,0.0,0.0,0.0,0.0,-2.6826,-2.7944,-2.9083,-2.9858,-3.0627,-3.115,-3.1076,0.0,0.0,0.0,0.0,0.0,0.0,0.0,0.0,0.0,0.0,0.0,0.0,0.0,0.0,0.0,0.0,0.0,0.0,0.0,0.0,0.0,0.0,0.0,0.0,0.0,-2.0964,-2.0632,-2.0862,-2.1086,-2.1275,-2.1816,-2.2388,-2.2923,-2.2923,-2.3021,-2.3212,-2.3369,-2.2905,-2.2007,0.0,-2.1627,-2.0653,-2.028,-2.041,-2.0752,-1.9988,-2.0031,-2.0337,-1.9142,-1.8783,-1.8704,0.0,0.0,0.0,0.0,0.0,0.0,0.0,0.0,0.0,0.0,0.0,0.0,0.0,0.0,0.0,0.0,0.0,0.0,0.0,0.0,0.0,0.0,0.0,0.0,0.0,0.0,-2.7601,-2.6587,-2.8015,-2.8268,-2.748,-2.8503,-2.8971,0.0,0.0,0.0,-2.781,-2.781,-2.7479,-2.7019,0.0,0.0,0.0,0.0,0.0,0.0,0.0,0.0,0.0,0.0,0.0,0.0,0.0,0.0,0.0,-2.4381,-2.4751,-2.4915,-2.5615,-2.6565,-2.7662,-2.9192,0.0,-3.1629,-3.1734,0.0,0.0,0.0,0.0,0.0,0.0,0.0,0.0,0.0,0.0,0.0,0.0,0.0,0.0,0.0,0.0,0.0,0.0,0.0,0.0,0.0,0.0,0.0,0.0,0.0,-2.0158,-2.0158,-2.0499,-2.0731,-2.0829,-2.1134,-2.1681,-2.2441,-2.2556,-2.2738,-2.2989,-2.3045,-2.2357,-2.1093,-2.1173,-2.0408,-1.9148,-1.9148,-1.9259,-1.9456,-1.9456,-1.9335,-1.9066,-1.83,-1.7966,-1.7707,0.0,0.0,0.0,0.0,0.0,0.0,0.0,0.0,0.0,0.0,0.0,0.0,0.0,0.0,0.0,0.0,0.0,0.0,0.0,0.0,0.0,0.0,0.0,0.0,0.0,-2.6394,-2.652,-2.6587,-2.6657,-2.6938,-2.74,-2.7554,-2.7657,-2.7642,0.0,0.0,-2.8431,-2.8431,-2.8415,-2.8367,-2.8415,0.0,0.0,0.0,0.0,0.0,0.0,0.0,0.0,0.0,0.0,0.0,0.0,0.0,-2.1767,-2.2589,-2.2804,-2.2951,-2.3685,-2.5213,-2.6623,-2.6764,-2.7853,0.0,-3.1898,-3.0986,0.0,0.0,0.0,0.0,0.0,0.0,0.0,0.0,0.0,0.0,0.0,0.0,0.0,0.0,0.0,0.0,0.0,0.0,0.0,0.0,0.0,0.0,0.0,0.0,0.0,-1.9747,-1.9782,-1.9965,-2.0348,-2.0382,-2.083,-2.1672,-2.2118,-2.2349,-2.2377,-2.2625,-2.1906,-2.0483,-2.0802,-2.0061,-1.8642,-1.8642,-1.8807,-1.9035,-1.9035,-1.8331,-1.7205,-1.6535,-1.5809,-1.5167,0.0,0.0,0.0,0.0,0.0,0.0,0.0,0.0,0.0,0.0,0.0,0.0,0.0,0.0,0.0,0.0,0.0,0.0,0.0,0.0,0.0,0.0,0.0,-2.6725,-2.6685,-2.6848,-2.6628,-2.5974,-2.553,-2.6466,-2.865,-2.789,0.0,0.0,0.0,0.0,-2.8566,-2.892,-2.8638,-2.7944,-2.8319,-2.814,0.0,0.0,0.0,0.0,0.0,0.0,0.0,0.0,-2.1091,-2.1004,0.0,0.0,-2.1096,0.0,-2.1898,-2.2063,-2.283,-2.4296,-2.5761,-2.6368,-2.706,0.0,0.0,0.0,0.0,0.0,0.0,0.0,0.0,0.0,0.0,0.0,0.0,0.0,0.0,0.0,0.0,0.0,0.0,0.0,0.0,0.0,0.0,0.0,0.0,0.0,0.0,0.0,0.0,-1.969,-1.969,-1.9782,-1.9945,-2.0193,-2.0483,-2.0797,-2.1291,-2.1781,-2.2293,-2.1636,-2.1002,-2.0373,-2.0048,-1.9415,-1.8585,-1.8585,-1.8659,-1.8699,-1.8253,-1.7539,-1.6703,-1.5937,-1.56,-1.5448,0.0,0.0,0.0,0.0,0.0,0.0,0.0,0.0,0.0,0.0,0.0,0.0,0.0,0.0,0.0,0.0,0.0,0.0,0.0,0.0,0.0,0.0,0.0,-2.686,-2.7415,-2.6931,-2.63,-2.5615,-2.4732,-2.5529,-2.7899,0.0,0.0,0.0,0.0,0.0,0.0,-2.8919,-2.8607,-2.7959,-2.8543,-2.8319,0.0,0.0,0.0,0.0,0.0,0.0,0.0,0.0,-2.0853,0.0,0.0,0.0,0.0,0.0,-2.1091,-2.1382,-2.1846,-2.3072,-2.44,0.0,0.0,0.0,0.0,0.0,0.0,0.0,0.0,0.0,0.0,0.0,0.0,0.0,0.0,0.0,0.0,0.0,0.0,0.0,0.0,0.0,0.0,0.0,0.0,0.0,0.0,0.0,0.0,0.0,0.0,0.0,-1.9207,-1.9207,-1.9207,-1.9651,-1.9919,-2.0093,-2.0198,-2.0734,-2.1549,-2.0714,-2.0064,-1.957,-1.9087,-1.8586,-1.8194,-1.8194,-1.8156,-1.8033,-1.7099,-1.6503,-1.6019,-1.5228,-1.5075,-1.519,0.0,0.0,0.0,0.0,0.0,0.0,0.0,0.0,0.0,0.0,0.0,0.0,0.0,0.0,0.0,0.0,0.0,0.0,0.0,0.0,0.0,0.0,0.0,-2.8627,-2.8283,-2.6336,-2.5415,-2.5585,-2.4268,-2.3969,-2.4672,-2.5989,0.0,0.0,0.0,0.0,0.0,0.0,-2.8424,-2.8543,-2.9134,-2.867,-2.7458,0.0,0.0,0.0,0.0,0.0,0.0,0.0,-2.0275,-1.9798,0.0,0.0,0.0,0.0,-2.0213,-2.0718,-2.0706,-2.1468,-2.2447,0.0,0.0,0.0,0.0,0.0,0.0,0.0,0.0,0.0,0.0,0.0,0.0,0.0,0.0,0.0,0.0,0.0,0.0,0.0,0.0,0.0,0.0,0.0,0.0,0.0,0.0,0.0,0.0,0.0,0.0,0.0,-1.8106,-1.8106,-1.8106,-1.8612,-1.914,-1.957,-1.8986,-1.9142,-2.0012,-1.9965,-1.9225,-1.7893,-1.7877,-1.7659,-1.728,-1.728,-1.7199,-1.6948,-1.5617,-1.5092,-1.4985,-1.4179,-1.3899,-1.3927,0.0,0.0,0.0,0.0,0.0,0.0,0.0,0.0,0.0,0.0,0.0,0.0,0.0,0.0,0.0,0.0,0.0,0.0,0.0,0.0,0.0,0.0,0.0,0.0,0.0,0.0,-2.6184,-2.4771,-2.4445,-2.5063,0.0,0.0,0.0,-2.8008,0.0,0.0,0.0,0.0,-2.8549,-2.7907,-2.8973,-2.8904,-2.8076,0.0,0.0,0.0,0.0,0.0,0.0,0.0,0.0,0.0,0.0,0.0,0.0,-1.9924,-2.0213,-2.063,-2.0162,-2.1443,0.0,0.0,0.0,0.0,0.0,0.0,0.0,0.0,0.0,0.0,0.0,0.0,0.0,0.0,0.0,0.0,0.0,0.0,0.0,0.0,0.0,0.0,0.0,0.0,0.0,0.0,0.0,0.0,0.0,0.0,0.0,0.0,-1.8106,-1.8106,-1.8106,-1.8263,-1.8405,-1.8531,-1.8281,-1.8797,-1.9949,-1.8663,-1.8013,-1.7861,-1.7353,-1.7059,-1.6919,-1.6451,-1.5935,-1.5336,-1.4654,-1.4161,-1.3816,-1.3717,-1.3766,-1.3913,0.0,0.0,0.0,0.0,0.0,0.0,0.0,0.0,0.0,0.0,0.0,0.0,0.0,0.0,0.0,0.0,0.0,0.0,0.0,0.0,0.0,0.0,0.0,0.0,0.0,-2.7468,-2.6964,0.0,0.0,0.0,0.0,0.0,0.0,-2.7799,0.0,-2.7646,0.0,0.0,-2.8249,-2.7913,-2.9235,-2.9406,-2.8717,0.0,0.0,0.0,0.0,0.0,0.0,0.0,0.0,0.0,0.0,0.0,0.0,-1.9621,-2.0096,-2.0612,-2.0774,-2.2108,0.0,0.0,0.0,0.0,0.0,0.0,0.0,0.0,0.0,0.0,0.0,0.0,0.0,0.0,0.0,0.0,0.0,0.0,0.0,0.0,0.0,0.0,0.0,0.0,0.0,0.0,0.0,0.0,0.0,0.0,0.0,0.0,-1.7463,-1.7463,-1.7463,-1.7666,-1.7665,-1.746,-1.7311,-1.7617,-1.8174,-1.7425,-1.7067,-1.7054,-1.6727,-1.6449,-1.6158,-1.5591,-1.4934,-1.4266,-1.3706,-1.3305,-1.3054,-1.3278,-1.3443,-1.3537,0.0,0.0,0.0,0.0,0.0,0.0,0.0,0.0,0.0,0.0,0.0,0.0,0.0,0.0,0.0,0.0,0.0,0.0,0.0,0.0,0.0,0.0,0.0,0.0,0.0,0.0,0.0,0.0,0.0,0.0,0.0,0.0,-2.7869,-2.6552,0.0,-2.6549,0.0,-2.7067,-2.7676,-2.8292,-2.959,-2.9831,-2.9249,-2.7898,0.0,0.0,0.0,0.0,0.0,0.0,0.0,0.0,-1.8295,-1.8092,-1.7957,-1.9036,-1.9892,-2.0634,-2.1848,0.0,0.0,0.0,0.0,0.0,0.0,0.0,0.0,0.0,0.0,0.0,0.0,0.0,0.0,0.0,0.0,0.0,0.0,0.0,0.0,0.0,0.0,0.0,0.0,0.0,0.0,0.0,0.0,0.0,0.0,0.0,0.0,0.0,-1.638,-1.638,-1.6337,-1.6899,-1.6888,0.0,-1.6204,-1.5889,-1.5466,-1.6172,-1.6233,-1.5755,-1.5976,-1.5772,-1.5232,-1.4719,-1.4158,-1.3542,-1.2844,-1.2572,-1.2591,-1.2852,-1.2961,-1.2997,0.0,0.0,0.0,0.0,0.0,0.0,0.0,0.0,0.0,0.0,0.0,0.0,0.0,0.0,0.0,0.0,0.0,0.0,0.0,0.0,0.0,0.0,0.0,0.0,0.0,0.0,0.0,0.0,0.0,0.0,0.0,0.0,0.0,-2.6309,0.0,-2.6585,-2.5505,-2.6688,-2.7224,-2.7421,-2.8237,-2.8861,-2.9107,-2.7763,-2.6995,0.0,0.0,0.0,0.0,0.0,0.0,0.0,-1.913,-1.8965,-1.8847,-1.9259,-1.9892,-2.0478,0.0,-2.2146,0.0,0.0,0.0,0.0,0.0,0.0,0.0,0.0,0.0,0.0,0.0,0.0,0.0,0.0,0.0,0.0,0.0,0.0,0.0,0.0,0.0,0.0,0.0,0.0,0.0,0.0,0.0,0.0,0.0,0.0,0.0,-1.5107,-1.5555,-1.5555,-1.5107,-1.5721,-1.5752,0.0,-1.5103,-1.4985,-1.4873,-1.4948,-1.5065,-1.524,-1.4775,-1.4693,-1.4826,-1.3676,-1.313,-1.2955,-1.2474,-1.2291,-1.2312,-1.2591,-1.2703,-1.2687,0.0,0.0,0.0,0.0,0.0,0.0,0.0,0.0,0.0,0.0,0.0,0.0,0.0,0.0,0.0,0.0,0.0,0.0,0.0,0.0,0.0,0.0,0.0,0.0,0.0,0.0,0.0,0.0,0.0,0.0,0.0,0.0,0.0,-2.7278,0.0,-2.6888,-2.6151,-2.6824,-2.723,-2.7517,-2.8231,-2.8965,-2.9526,-2.8535,-2.7966,-2.7554,-2.592,0.0,0.0,0.0,0.0,0.0,0.0,0.0,-1.806,-1.9121,-1.942,-1.9747,0.0,0.0,0.0,0.0,0.0,0.0,0.0,0.0,0.0,0.0,0.0,0.0,0.0,0.0,0.0,0.0,0.0,0.0,0.0,0.0,0.0,0.0,0.0,0.0,0.0,0.0,0.0,0.0,0.0,0.0,0.0,-1.5017,-1.5017,-1.4698,-1.5017,-1.5017,-1.4698,-1.4885,-1.4761,-1.4429,-1.4148,-1.4016,-1.3972,-1.433,-1.446,-1.4422,-1.4053,-1.3713,-1.3353,-1.2671,-1.2183,-1.1878,-1.1659,-1.1579,-1.1623,-1.1879,-1.1968,-1.1989,0.0,0.0,0.0,0.0,0.0,0.0,0.0,0.0,0.0,0.0,0.0,0.0,0.0,0.0,0.0,0.0,0.0,0.0,0.0,0.0,0.0,0.0,0.0,0.0,0.0,0.0,0.0,0.0,0.0,0.0,0.0,0.0,0.0,-2.8466,0.0,0.0,-2.7412,-2.7412,-2.7634,-2.8078,-2.8721,-2.9431,-3.0053,-2.9409,-2.9187,-2.9009,-2.7254,-2.5345,-2.3489,-2.236,0.0,0.0,0.0,0.0,-1.7275,-1.8925,-1.8995,-1.9033,0.0,0.0,0.0,0.0,0.0,0.0,0.0,0.0,0.0,0.0,0.0,0.0,0.0,0.0,0.0,0.0,0.0,0.0,0.0,0.0,0.0,0.0,0.0,0.0,0.0,0.0,0.0,0.0,0.0,0.0,-1.4387,-1.4479,-1.4525,-1.4387,-1.4391,-1.4392,-1.4255,-1.3971,-1.3773,-1.3604,-1.3285,-1.3059,-1.2979,-1.3775,-1.3936,-1.3576,-1.3369,-1.2747,-1.1897,-1.1785,-1.1363,-1.0811,-1.0873,-1.0873,-1.0821,-1.1107,-1.1244,-1.1253,0.0,0.0,0.0,0.0,0.0,0.0,0.0,0.0,0.0,0.0,0.0,0.0,0.0,0.0,0.0,0.0,0.0,0.0,-3.2589,0.0,0.0,-3.0182,-3.0226,0.0,0.0,0.0,0.0,0.0,0.0,0.0,0.0,0.0,0.0,-2.8925,0.0,0.0,0.0,-2.8749,-2.8786,-2.8839,-2.8941,-2.9431,-3.004,-2.9289,-2.9142,-2.9164,-2.827,-2.6718,-2.5041,-2.4401,-2.3026,0.0,0.0,0.0,-1.8934,-1.9297,-1.9069,-1.9006,0.0,0.0,0.0,0.0,0.0,0.0,0.0,0.0,0.0,0.0,0.0,0.0,0.0,0.0,0.0,0.0,0.0,0.0,0.0,0.0,0.0,0.0,0.0,0.0,0.0,0.0,0.0,0.0,0.0,0.0,-1.3152,-1.3647,-1.3695,-1.3152,-1.3253,-1.3045,-1.2536,-1.2719,-1.2512,-1.1997,-1.2399,-1.2377,-1.1931,-1.2439,-1.2825,-1.3027,-1.1987,-1.1656,-1.1855,-1.1266,-1.077,-1.0419,-1.075,-1.0702,-1.0419,-1.0798,-1.0954,-1.0954,0.0,0.0,0.0,0.0,0.0,0.0,0.0,0.0,0.0,0.0,0.0,0.0,0.0,0.0,0.0,-3.3898,-3.3733,-3.3212,-3.2097,-3.1511,-3.1132,-3.0814,-3.0817,-3.085,0.0,0.0,0.0,0.0,0.0,0.0,0.0,-3.064,-3.0363,0.0,0.0,0.0,0.0,0.0,-2.84,-2.8975,-2.8645,-2.9135,0.0,0.0,-2.969,-2.9716,-2.9381,-2.8026,-2.6254,-2.5711,-2.4338,-2.2744,-2.1932,0.0,0.0,0.0,-1.9258,0.0,-1.8767,0.0,0.0,0.0,0.0,0.0,0.0,0.0,0.0,0.0,0.0,0.0,0.0,0.0,0.0,0.0,0.0,0.0,0.0,0.0,0.0,0.0,0.0,0.0,0.0,0.0,0.0,0.0,0.0,-1.32,-1.2929,-1.3152,-1.3152,-1.2929,-1.2712,-1.2483,-1.218,-1.1848,-1.1535,-1.1323,-1.2132,-1.2235,-1.1723,-1.1888,-1.1751,-1.1416,-1.1064,-1.063,-1.0168,-1.0084,-0.9816,-0.9506,-0.9893,-0.9945,-0.983,-1.021,-1.0348,-1.0398,0.0,0.0,0.0,0.0,0.0,0.0,0.0,0.0,0.0,0.0,0.0,0.0,0.0,0.0,0.0,0.0,-3.3713,-3.3073,-3.1679,-3.144,-3.1329,-3.119,-3.119,-3.119,-3.119,0.0,0.0,0.0,0.0,0.0,-3.0794,-3.019,-3.0275,0.0,-3.0005,0.0,0.0,0.0,0.0,0.0,0.0,0.0,0.0,0.0,0.0,0.0,0.0,0.0,-2.7777,-2.7241,-2.5778,-2.4088,-2.3378,-2.1935,0.0,0.0,0.0,0.0,0.0,0.0,0.0,0.0,0.0,0.0,0.0,0.0,0.0,0.0,0.0,0.0,0.0,0.0,0.0,0.0,0.0,0.0,0.0,0.0,0.0,0.0,0.0,0.0,0.0,0.0,0.0,0.0,0.0,-1.2881,-1.2881,-1.2881,-1.2881,-1.2881,-1.2353,-1.2061,-1.2061,-1.1191,-1.0765,-1.0803,-1.168,-1.1847,-1.1391,-1.1477,-1.1035,-1.0248,-1.0426,-0.9973,-0.9116,-0.9396,-0.9289,-0.9008,-0.9463,-0.9595,-0.9569,-0.9995,-1.0148,-1.0223,0.0,0.0,0.0,0.0,0.0,0.0,0.0,0.0,0.0,0.0,0.0,0.0,0.0,-3.4834,-3.4841,-3.3881,-3.415,-3.3794,-3.2527,-3.2004,-3.1603,-3.123,-3.119,0.0,-3.119,0.0,0.0,0.0,0.0,0.0,-2.9396,-2.8842,-2.9005,-2.9696,-3.0176,-3.003,-2.9451,0.0,0.0,0.0,0.0,0.0,0.0,0.0,0.0,0.0,0.0,0.0,0.0,-2.9324,-2.7818,-2.5957,-2.4828,-2.3599,-2.22,0.0,0.0,0.0,0.0,0.0,0.0,0.0,0.0,0.0,0.0,0.0,0.0,0.0,0.0,0.0,0.0,0.0,0.0,0.0,0.0,0.0,0.0,0.0,0.0,0.0,0.0,0.0,0.0,0.0,0.0,0.0,0.0,-1.2881,-1.2881,-1.2881,-1.2881,-1.2881,-1.2086,-1.1636,-1.1636,-1.0783,-1.0316,-1.0261,-1.0745,-1.0856,-1.0594,-1.1011,-1.0873,-1.0285,-1.0046,-0.9905,-0.9841,-0.988,-0.9659,-0.9422,-1.0097,-1.0121,-0.9869,-1.0581,-1.0849,-1.0849,0.0,0.0,0.0,0.0,0.0,0.0,0.0,0.0,0.0,0.0,0.0,0.0,0.0,-3.499,-3.4842,-3.4122,-3.3796,-3.3442,-3.2965,-3.223,-3.1716,-3.1603,-3.1351,-3.119,-3.119,0.0,0.0,0.0,0.0,-2.8788,-2.8646,-2.8076,-2.7743,-2.773,-2.8773,-2.9345,-2.9405,-2.8585,0.0,0.0,0.0,0.0,0.0,0.0,0.0,0.0,0.0,0.0,0.0,-2.948,-2.8266,-2.6748,-2.5563,-2.4014,-2.2181,-1.9607,0.0,0.0,0.0,0.0,0.0,0.0,0.0,0.0,0.0,0.0,0.0,0.0,0.0,0.0,0.0,0.0,0.0,0.0,0.0,0.0,0.0,0.0,0.0,0.0,0.0,0.0,0.0,0.0,0.0,0.0,0.0,0.0,-1.2881,-1.2881,-1.2754,-1.2471,-1.1875,-1.1502,-1.1205,-1.1263,-1.1169,-1.0967,-1.1441,-1.1375,-1.0839,-1.1322,-1.1222,-1.0678,-1.0594,-1.0259,-0.9869,-1.0071,-1.007,-0.9956,-1.0412,-1.0699,-1.0875,-1.1211,-1.1439,-1.1568,0.0,0.0,0.0,0.0,0.0,0.0,0.0,0.0,0.0,0.0,0.0,0.0,0.0,0.0,-3.5329,-3.4544,-3.4055,-3.3749,-3.3611,-3.2791,-3.2249,-3.2243,-3.172,-3.1351,-3.119,0.0,0.0,0.0,0.0,0.0,0.0,-2.7196,-2.6658,-2.6559,-2.7285,-2.7946,0.0,0.0,0.0,-2.9406,0.0,0.0,-3.0156,0.0,0.0,0.0,0.0,0.0,0.0,0.0,0.0,0.0,0.0,0.0,0.0,0.0,0.0,0.0,0.0,0.0,0.0,0.0,0.0,0.0,0.0,0.0,0.0,0.0,0.0,0.0,0.0,0.0,0.0,0.0,0.0,0.0,0.0,0.0,0.0,0.0,0.0,0.0,0.0,0.0,0.0,0.0,0.0,0.0,-1.3478,-1.3515,-1.3191,-1.2542,-1.2269,-1.1871,-1.1255,-1.1752,-1.178,-1.1355,-1.1731,-1.1615,-1.1119,-1.1325,-1.1343,-1.1224,-1.1302,-1.0898,-1.0207,-1.0514,-1.0637,-1.068,-1.1102,-1.1512,-1.1862,-1.2062,-1.223,-1.237,0.0,0.0,0.0,0.0,0.0,0.0,0.0,0.0,0.0,0.0,0.0,0.0,0.0,0.0,0.0,-3.5156,-3.5055,-3.4867,-3.4473,-3.3719,-3.3219,-3.3154,-3.2312,-3.1691,-3.123,0.0,0.0,0.0,0.0,0.0,0.0,0.0,-2.5799,-2.6315,-2.5833,-2.5991,-2.6651,0.0,-2.8323,-2.9484,0.0,-3.0219,-3.1454,0.0,0.0,0.0,-3.2908,-3.2476,0.0,-3.2053,0.0,0.0,0.0,0.0,0.0,0.0,0.0,0.0,0.0,0.0,0.0,0.0,0.0,0.0,0.0,0.0,0.0,0.0,0.0,0.0,0.0,0.0,0.0,0.0,0.0,0.0,0.0,0.0,0.0,0.0,0.0,0.0,0.0,0.0,0.0,0.0,0.0,-1.4097,-1.4652,-1.4687,-1.4272,-1.3294,-1.3249,-1.2817,-1.1859,-1.2259,-1.2104,-1.1367,-1.1487,-1.148,-1.1324,-1.1062,-1.1247,-1.1811,-1.2066,-1.171,-1.0968,-1.1222,-1.1446,-1.162,-1.2195,-1.2569,-1.2787,-1.3109,-1.3243,-1.3243,0.0,0.0,0.0,0.0,0.0,0.0,0.0,0.0,0.0,0.0,0.0,0.0,0.0,0.0,-3.6362,-3.6226,-3.6049,-3.5878,-3.5773,-3.5248,-3.4673,-3.4056,-3.3721,-3.2948,-3.1657,0.0,0.0,0.0,0.0,0.0,0.0,0.0,0.0,0.0,-2.5462,-2.6066,-2.7086,-2.6927,0.0,0.0,-2.8837,-2.9649,0.0,0.0,0.0,0.0,0.0,-3.3152,-3.2747,0.0,-3.1156,-2.91,0.0,0.0,0.0,0.0,0.0,0.0,-1.4359,0.0,0.0,0.0,0.0,0.0,0.0,0.0,0.0,0.0,0.0,0.0,0.0,0.0,0.0,0.0,0.0,0.0,0.0,0.0,0.0,0.0,0.0,0.0,0.0,0.0,0.0,0.0,-1.4385,-1.4514,-1.4709,-1.476,-1.4636,-1.4313,-1.4287,-1.3963,-1.3243,-1.369,-1.3718,-1.333,-1.2928,-1.2607,-1.2363,-1.1814,-1.1637,-1.1811,-1.2066,-1.2066,-1.1882,-1.2297,-1.2593,-1.2831,-1.3093,-1.3448,-1.3779,-1.3831,-1.394,-1.4075,0.0,0.0,0.0,0.0,0.0,0.0,0.0,0.0,0.0,0.0,0.0,0.0,0.0,0.0,0.0,-3.8044,-3.7292,-3.6927,-3.7276,-3.6407,-3.575,-3.5417,-3.469,-3.3917,0.0,0.0,0.0,0.0,0.0,0.0,0.0,0.0,0.0,0.0,0.0,0.0,0.0,0.0,0.0,0.0,-2.9693,0.0,0.0,-3.2434,-3.2847,0.0,0.0,0.0,-3.2916,-3.2797,-3.1273,0.0,0.0,0.0,0.0,0.0,0.0,0.0,0.0,0.0,0.0,0.0,0.0,0.0,-1.143,-1.2103,0.0,0.0,0.0,0.0,0.0,0.0,0.0,0.0,0.0,0.0,0.0,0.0,0.0,0.0,0.0,0.0,0.0,0.0,0.0,-1.5233,-1.5141,-1.5276,-1.574,-1.604,-1.6073,-1.5785,-1.5497,-1.5107,-1.4492,-1.4675,-1.452,-1.4112,-1.3795,-1.3359,-1.2786,-1.2259,-1.1933,-1.1811,-1.221,-1.2372,-1.2416,-1.304,-1.3343,-1.3408,-1.3698,-1.4038,-1.4409,-1.4366,-1.4456,-1.4621,0.0,0.0,0.0,0.0,0.0,0.0,0.0,0.0,0.0,0.0,0.0,0.0,0.0,0.0,0.0,0.0,-3.8738,-3.8157,-3.8799,-3.7496,0.0,-3.687,-3.5557,-3.486,0.0,0.0,0.0,0.0,0.0,0.0,0.0,0.0,0.0,0.0,0.0,0.0,0.0,0.0,0.0,-3.0649,-3.1246,-3.2015,0.0,0.0,-3.4129,0.0,-3.4925,-3.41,-3.2459,-3.2899,-3.0895,0.0,0.0,0.0,0.0,0.0,-1.765,0.0,0.0,0.0,0.0,0.0,0.0,0.0,-1.1837,-1.2154,-1.2608,0.0,0.0,0.0,0.0,0.0,0.0,0.0,0.0,0.0,0.0,0.0,0.0,0.0,0.0,0.0,0.0,-1.5574,-1.5611,-1.6397,-1.6044,-1.6275,-1.734,-1.7907,-1.7971,-1.7483,-1.6864,-1.625,-1.5646,-1.5384,-1.4934,-1.4284,-1.4382,-1.3941,-1.3058,-1.2656,-1.2296,-1.2024,-1.2467,-1.2668,-1.2746,-1.3567,-1.376,-1.3589,-1.406,-1.4421,-1.4707,-1.4727,-1.4804,-1.4902,0.0,0.0,0.0,0.0,0.0,0.0,0.0,0.0,0.0,0.0,0.0,0.0,0.0,0.0,0.0,0.0,0.0,-4.0194,-3.9698,0.0,-3.864,-3.7424,-3.7261,-3.6651,-3.5483,0.0,0.0,0.0,0.0,0.0,0.0,0.0,0.0,0.0,0.0,0.0,0.0,0.0,0.0,-3.1875,-3.1621,0.0,-3.4185,-3.3853,-3.3948,-3.4246,-3.3938,-3.3558,-3.2933,0.0,-2.985,-2.8236,0.0,0.0,0.0,0.0,0.0,0.0,0.0,0.0,0.0,0.0,0.0,0.0,-1.2444,-1.2264,-1.2241,0.0,0.0,0.0,0.0,0.0,0.0,0.0,0.0,0.0,0.0,0.0,0.0,0.0,0.0,0.0,0.0,-1.6407,-1.6609,-1.6941,-1.6967,-1.7244,-1.7907,-1.8458,-1.8642,-1.8425,-1.8313,-1.7659,-1.648,-1.6409,-1.6099,-1.5474,-1.5224,-1.5011,-1.4769,-1.385,-1.3399,-1.3304,-1.3038,-1.3016,-1.3193,-1.3691,-1.3867,-1.3849,-1.4282,-1.4549,-1.4717,-1.4813,-1.4909,-1.4992,0.0,0.0,0.0,0.0,0.0,0.0,0.0,0.0,0.0,0.0,0.0,0.0,0.0,0.0,0.0,0.0,0.0,0.0,0.0,0.0,-3.9533,-3.8726,-3.8063,-3.7517,-3.7148,-3.6091,0.0,0.0,0.0,0.0,0.0,0.0,0.0,0.0,0.0,0.0,0.0,0.0,-3.1185,-3.2667,-3.2799,0.0,-3.4041,-3.4525,-3.4531,-3.4281,-3.4093,-3.3813,-3.3225,-3.1357,-3.0179,0.0,0.0,-2.595,-2.4685,0.0,-2.0659,-1.9155,0.0,0.0,0.0,-1.5048,0.0,0.0,0.0,-1.2783,-1.2559,-1.3451,0.0,0.0,0.0,0.0,0.0,0.0,0.0,0.0,0.0,0.0,0.0,0.0,0.0,0.0,0.0,-1.6656,-1.6951,-1.7241,-1.7544,-1.7827,-1.8106,-1.8855,-1.9258,-1.9211,-1.8867,-1.8223,-1.7219,-1.6876,-1.6473,-1.6052,-1.588,-1.5708,-1.5532,-1.5133,-1.4549,-1.3844,-1.3863,-1.3718,-1.3423,-1.3881,-1.4087,-1.4172,-1.4485,-1.4677,-1.4813,-1.4909,-1.5018,-1.5108,0.0,0.0,0.0,0.0,0.0,0.0,0.0,0.0,0.0,0.0,0.0,0.0,0.0,0.0,0.0,0.0,0.0,0.0,0.0,0.0,0.0,0.0,-3.8766,-3.8276,-3.8773,-3.7208,0.0,0.0,0.0,0.0,0.0,0.0,0.0,0.0,0.0,0.0,0.0,0.0,0.0,-3.3128,0.0,-3.399,-3.3673,-3.4981,-3.4789,-3.3904,-3.4162,-3.3882,-3.3156,-3.1682,0.0,-3.0052,-2.8675,-2.723,0.0,0.0,0.0,0.0,0.0,0.0,0.0,0.0,0.0,-1.4326,0.0,0.0,0.0,-1.4182,0.0,0.0,0.0,0.0,0.0,0.0,0.0,0.0,0.0,0.0,0.0,0.0,0.0,0.0,0.0,-1.6677,-1.7043,-1.751,-1.7876,-1.8106,-1.8106,-1.9132,-1.969,-1.969,-1.9166,-1.8542,-1.7812,-1.727,-1.6787,-1.6394,-1.6512,-1.6428,-1.6166,-1.6353,-1.5731,-1.4452,-1.4744,-1.4416,-1.3704,-1.4082,-1.4326,-1.4508,-1.4658,-1.4785,-1.4913,-1.4977,-1.5075,-1.5164,-3.9564,-3.9643,0.0,0.0,0.0,0.0,0.0,0.0,0.0,0.0,0.0,0.0,0.0,0.0,0.0,0.0,0.0,0.0,-4.3794,0.0,0.0,0.0,0.0,0.0,-3.9063,-3.7474,-3.6771,0.0,0.0,0.0,0.0,0.0,0.0,0.0,-3.039,0.0,0.0,0.0,-3.2043,0.0,-3.4421,-3.451,0.0,-3.3916,-3.3564,-3.3075,-3.2826,-3.2696,-3.2378,0.0,-3.0499,-3.0399,0.0,-2.8002,0.0,0.0,0.0,0.0,0.0,0.0,0.0,0.0,-1.7651,0.0,0.0,0.0,-1.5942,-1.5997,0.0,0.0,0.0,0.0,0.0,0.0,0.0,0.0,0.0,0.0,0.0,0.0,0.0,0.0,0.0,0.0,-1.7363,-1.8069,-1.8102,-1.8106,-1.8106,-1.9132,-1.969,-1.969,-1.9615,-1.9129,-1.8161,-1.8069,-1.7613,-1.6738,-1.7294,-1.7507,-1.7474,-1.7385,-1.6871,-1.6008,-1.5349,-1.4773,-1.4313,-1.4366,-1.455,-1.4832,-1.4747,-1.4785,-1.4913,-1.4977,-1.5021,-1.5049,-3.9216,-3.964,0.0,0.0,0.0,0.0,0.0,0.0,0.0,0.0,0.0,0.0,0.0,0.0,0.0,0.0,0.0,-4.4445,0.0,0.0,0.0,0.0,0.0,0.0,0.0,-3.9489,-3.871,0.0,-3.6656,0.0,0.0,0.0,0.0,0.0,-3.1332,0.0,-3.2336,0.0,0.0,0.0,0.0,0.0,0.0,-3.4666,-3.4452,-3.3445,-3.3304,-3.2965,-3.2448,0.0,-3.1075,0.0,0.0,0.0,0.0,0.0,0.0,0.0,0.0,0.0,0.0,0.0,0.0,0.0,0.0,0.0,-1.7566,0.0,0.0,0.0,0.0,0.0,0.0,0.0,0.0,0.0,0.0,0.0,0.0,0.0,0.0,0.0,0.0,0.0,0.0,0.0,0.0,-1.7787,-1.8066,-1.8817,-1.9369,-1.969,-1.969,-1.9239,-1.8223,-1.8207,-1.782,-1.7101,-1.7489,-1.7798,-1.7971,-1.7719,-1.7225,-1.6508,-1.5837,-1.5219,-1.4699,-1.4699,-1.4803,-1.4938,-1.4898,-1.4906,-1.4981,-1.5075,-1.5139,-1.5196,-3.9581,0.0,0.0,0.0,0.0,0.0,0.0,0.0,0.0,0.0,0.0,0.0,-4.5552,-4.5472,0.0,0.0,-4.5707,-4.5368,0.0,0.0,-4.3672,0.0,0.0,0.0,0.0,0.0,-4.0006,0.0,0.0,0.0,0.0,0.0,0.0,0.0,0.0,-3.2151,-3.3381,0.0,0.0,-3.3155,-3.293,-3.2968,-3.3364,-3.4866,-3.4751,-3.377,-3.355,-3.3109,-3.254,-3.21,-3.1182,0.0,-2.9953,0.0,0.0,0.0,0.0,0.0,-2.3081,0.0,0.0,0.0,0.0,0.0,0.0,0.0,0.0,0.0,0.0,0.0,0.0,0.0,0.0,0.0,0.0,0.0,0.0,0.0,0.0,0.0,0.0,0.0,0.0,0.0,0.0,-1.731,-1.7457,-1.7706,-1.8066,-1.8727,-1.9281,-1.969,-1.969,-1.9364,-1.8656,-1.8469,-1.8183,-1.7863,-1.7922,-1.8115,-1.8413,-1.8031,-1.7483,-1.6783,-1.6198,-1.5554,-1.4936,-1.4936,-1.4996,-1.5089,-1.5089,-1.5082,-1.5087,-1.5193,-1.5226,-1.525,-4.1692,-4.1295,0.0,0.0,0.0,0.0,0.0,0.0,0.0,0.0,0.0,0.0,0.0,0.0,0.0,0.0,0.0,-4.624,-4.7334,0.0,-4.4696,0.0,0.0,-4.3039,0.0,0.0,0.0,0.0,0.0,0.0,0.0,0.0,0.0,0.0,0.0,-3.1474,-3.3111,-3.1768,-3.2125,-3.3581,-3.3632,-3.4177,-3.4806,0.0,-3.3502,-3.3697,-3.2926,0.0,0.0,-3.0815,-3.0246,0.0,0.0,0.0,0.0,0.0,0.0,0.0,0.0,0.0,0.0,-2.2721,0.0,0.0,0.0,0.0,-2.139,0.0,0.0,0.0,0.0,0.0,0.0,0.0,0.0,0.0,0.0,0.0,0.0,0.0,0.0,0.0,0.0,0.0,0.0,-1.733,-1.7809,-1.8066,-1.8106,-1.9095,-1.969,-1.969,-1.969,-1.9764,-1.9828,-1.9144,-1.8936,-1.9238,-1.8763,-1.8698,-1.8966,-1.8503,-1.7832,-1.7046,-1.638,-1.5684,-1.5007,-1.5007,-1.5114,-1.5293,-1.5293,-1.5288,-1.5287,-1.5299,-1.5217,-1.5119,0.0,0.0,0.0,0.0,0.0,0.0,0.0,-4.3905,0.0,0.0,0.0,0.0,0.0,-4.7331,-4.7186,0.0,0.0,-4.6157,-4.6244,-4.5726,0.0,0.0,0.0,-4.4479,0.0,0.0,0.0,0.0,0.0,0.0,0.0,0.0,0.0,0.0,0.0,-3.14,0.0,0.0,0.0,0.0,0.0,-3.4172,-3.4092,0.0,0.0,-3.2908,-3.2082,-3.1458,0.0,-3.0393,-2.9941,-2.962,-2.936,-2.859,-2.7736,-2.7345,-2.6395,0.0,0.0,0.0,-2.4057,-2.3212,0.0,0.0,0.0,0.0,0.0,0.0,0.0,0.0,0.0,0.0,0.0,0.0,0.0,0.0,0.0,0.0,0.0,0.0,0.0,0.0,0.0,0.0,0.0,-1.7837,-1.8016,-1.8263,0.0,-1.8968,-1.9449,-2.0089,-2.0089,-2.0155,-2.031,-1.9565,-1.9233,-1.9295,-1.8821,-1.8467,-1.8242,-1.7747,-1.715,-1.647,-1.57,-1.5274,-1.5133,-1.5133,-1.5199,-1.5298,-1.5298,-1.5295,-1.5296,-1.53,-1.5279,-1.5236,-4.321,0.0,0.0,0.0,0.0,0.0,0.0,0.0,0.0,0.0,-4.7131,0.0,-4.8452,0.0,-4.7698,0.0,-4.6972,-4.6397,-4.6111,-4.5819,0.0,-4.5713,-4.5673,0.0,0.0,0.0,0.0,0.0,0.0,-3.8651,0.0,0.0,0.0,0.0,0.0,0.0,-3.3209,0.0,-3.2983,0.0,0.0,-3.4091,0.0,0.0,-3.2357,-3.2467,0.0,-3.0467,-2.9732,-2.9439,-2.8956,-2.8517,-2.8517,-2.7922,-2.7207,-2.7207,-2.6376,-2.5363,-2.4853,-2.4867,0.0,-2.3964,-2.3931,0.0,-2.3584,0.0,0.0,0.0,0.0,0.0,0.0,0.0,0.0,0.0,0.0,0.0,0.0,0.0,0.0,0.0,0.0,0.0,0.0,0.0,-1.9055,-1.8772,-1.9169,-1.9354,0.0,0.0,-1.9671,-2.028,-2.0314,-2.0494,-2.0891,-1.9892,-1.9546,-1.9809,-1.9027,-1.8605,-1.8485,-1.7627,-1.7036,-1.6595,-1.5532,-1.5127,-1.5229,-1.5201,-1.5444,-1.5764,-1.5435,-1.5493,-1.5769,-1.5457,-1.5326,-1.5243,0.0,0.0,0.0,0.0,-4.4072,0.0,0.0,0.0,-4.6762,0.0,-4.7356,-4.7817,-4.7066,-4.7624,-4.7739,-4.6987,-4.6891,0.0,-4.6944,-4.6235,0.0,0.0,-4.5797,-4.5364,-4.4543,0.0,0.0,0.0,0.0,0.0,0.0,0.0,0.0,0.0,-3.1056,0.0,-3.2897,-3.1827,-3.2337,-3.3889,-3.3889,-3.4005,-3.3953,-3.2127,-3.1893,-3.2309,-3.0705,-2.9622,-2.8833,-2.8084,-2.7407,-2.6898,-2.6898,-2.7042,-2.7153,-2.7137,-2.7118,-2.6911,-2.6155,-2.5947,-2.5774,-2.4978,0.0,0.0,0.0,0.0,-2.4273,0.0,0.0,0.0,0.0,0.0,0.0,0.0,0.0,0.0,0.0,0.0,0.0,0.0,0.0,0.0,0.0,-2.1007,-2.1183,-2.0108,-2.1247,0.0,0.0,0.0,-2.0398,-2.0382,-2.0366,-2.0765,-2.1642,-2.0179,-1.9917,-2.0809,-1.947,-1.9084,-1.9511,-1.8125,-1.7479,-1.7363,-1.5862,-1.524,-1.5289,-1.5273,-1.5827,-1.6604,-1.5721,-1.5892,-1.6532,-1.5701,-1.535,-1.5167,-4.5078,-4.5331,-4.5558,0.0,-4.489,-4.4744,0.0,0.0,0.0,0.0,-4.7549,-4.8044,-4.7959,-4.755,-4.724,-4.7136,-4.6527,0.0,0.0,0.0,0.0,-4.5899,-4.5298,-4.4871,-4.4637,-4.3975,0.0,-4.0771,0.0,0.0,-3.6694,0.0,0.0,0.0,0.0,0.0,-3.2347,-3.2501,-3.3511,-3.5064,-3.5064,-3.447,0.0,0.0,-3.1725,-3.1157,-2.9802,-2.8796,-2.8084,-2.8038,-2.7606,-2.7125,-2.7125,-2.6855,-2.6493,-2.6363,-2.5884,-2.5374,-2.5167,-2.5172,-2.5183,-2.487,-2.4818,-2.4774,0.0,0.0,0.0,0.0,0.0,0.0,0.0,0.0,0.0,0.0,0.0,0.0,0.0,0.0,0.0,0.0,0.0,0.0,-2.1315,-2.1867,-2.2074,-2.1651,-2.2483,0.0,0.0,0.0,0.0,-2.1275,-2.1259,-2.1622,-2.2405,-2.0909,-2.0528,-2.1297,-1.9804,-1.9073,-1.898,-1.7966,-1.7224,-1.6701,-1.5703,-1.5255,-1.5287,-1.5963,-1.638,-1.6603,-1.6419,-1.6092,-1.5705,-1.5426,-1.5313,-1.5248,-4.5664,0.0,0.0,-4.62,0.0,0.0,-4.6286,0.0,0.0,-4.755,-4.8,0.0,-4.7862,-4.7389,-4.6957,-4.6668,-4.6171,0.0,-4.5988,0.0,0.0,-4.5509,-4.4676,-4.4052,-4.3656,-4.3105,0.0,-3.9747,0.0,0.0,-3.5454,0.0,0.0,0.0,0.0,-3.081,0.0,-3.2784,-3.393,-3.5136,-3.4738,0.0,0.0,-3.2128,-3.1409,-3.0915,-2.9736,-2.8533,-2.7529,-2.7567,-2.6981,-2.6228,-2.6178,-2.5958,-2.5698,-2.5523,-2.5201,-2.4891,-2.4891,-2.5005,-2.5118,-2.5037,-2.5072,-2.5077,-2.4917,-2.4962,-2.5018,0.0,0.0,0.0,0.0,0.0,0.0,0.0,0.0,0.0,0.0,0.0,0.0,0.0,0.0,0.0,-2.3371,-2.3786,-2.3801,-2.3178,0.0,0.0,0.0,0.0,0.0,-2.2068,-2.2122,-2.2409,-2.2923,-2.1394,-2.0915,-2.1478,-1.9994,-1.9301,-1.9297,-1.8532,-1.7792,-1.7014,-1.6226,-1.5862,-1.5893,-1.6383,-1.7075,-1.7781,-1.7793,-1.7022,-1.5918,-1.5777,-1.5559,-1.5279,0.0,0.0,0.0,0.0,0.0,0.0,0.0,-4.722,0.0,-4.8078,0.0,-4.801,-4.7162,-4.7064,-4.6703,-4.5862,0.0,-4.5781,-4.5785,-4.5082,-4.4653,-4.4668,-4.3774,-4.2873,-4.1995,-4.1753,0.0,0.0,0.0,0.0,0.0,0.0,0.0,0.0,0.0,0.0,0.0,-3.288,-3.3921,0.0,-3.3789,-3.3542,-3.3481,-3.1684,-3.1089,-3.1058,-3.0078,-2.8711,-2.7323,-2.7062,-2.617,-2.5139,-2.4907,-2.4891,-2.4949,-2.4828,-2.4877,-2.4986,-2.4998,-2.5152,-2.5303,-2.5303,-2.5303,-2.5253,-2.5088,-2.5173,-2.5274,-2.5168,-2.5282,-2.5459,0.0,0.0,0.0,0.0,0.0,0.0,0.0,0.0,0.0,0.0,0.0,0.0,0.0,-2.5783,-2.5615,0.0,0.0,0.0,0.0,0.0,0.0,-2.2765,-2.2912,0.0,-2.3338,0.0,-2.122,-2.1598,-2.0164,-1.962,-1.9868,-1.9323,-1.8612,-1.7761,-1.7066,-1.6795,-1.685,-1.6919,-1.7877,-1.9296,-1.9222,-1.8196,-1.67,-1.6413,-1.5894,-1.5314,0.0,0.0,0.0,0.0,0.0,-4.6541,-4.7398,-4.7345,-4.7008,-4.6424,-4.6979,-4.7131,-4.6376,-4.6284,-4.5996,-4.5227,-4.5151,0.0,0.0,0.0,0.0,-4.2891,-4.207,-4.1209,-4.033,-3.9585,-3.8648,0.0,0.0,0.0,0.0,0.0,0.0,0.0,0.0,0.0,-3.2374,-3.3091,0.0,-3.494,-3.4084,-3.3452,-3.2954,-3.1949,-3.1143,-3.049,-3.0085,-2.9235,-2.8177,-2.7589,-2.6801,-2.5933,-2.5203,-2.4904,-2.4828,-2.4804,-2.4818,-2.4869,-2.4974,-2.5152,-2.5303,-2.5303,-2.5303,-2.5284,-2.5264,-2.5274,-2.5322,-2.5348,-2.5421,-2.5517,-2.5593,0.0,0.0,0.0,0.0,0.0,0.0,0.0,0.0,0.0,0.0,0.0,0.0,0.0,0.0,0.0,0.0,0.0,0.0,0.0,0.0,0.0,-2.3461,0.0,0.0,0.0,-2.1865,-2.2312,-2.0671,-1.9676,-1.9259,-1.9097,-1.8571,-1.7799,-1.7719,-1.7653,-1.7676,-1.8483,-1.9003,-1.9296,-1.9222,-1.8461,-1.7326,-1.6577,-1.606,-1.562,0.0,0.0,0.0,0.0,0.0,0.0,0.0,-4.6822,0.0,-4.6776,-4.6757,-4.6608,-4.6239,-4.579,-4.5385,-4.5039,-4.459,-4.4141,-4.373,-4.2891,-4.2226,-4.1797,-4.0547,0.0,-3.8574,-3.8144,-3.75,-3.6621,0.0,0.0,0.0,0.0,0.0,0.0,0.0,-3.2156,0.0,0.0,0.0,-3.4708,-3.384,-3.3033,-3.2299,-3.1447,-3.0849,-3.0374,-2.9789,-2.925,-2.8687,-2.7788,-2.7033,-2.629,-2.5302,-2.4949,-2.4891,-2.4814,-2.4855,-2.493,-2.4986,-2.5152,-2.5303,-2.5303,-2.5303,-2.5303,-2.5303,-2.5303,-2.5322,-2.5391,-2.544,-2.5539,-2.5634,-2.5644,0.0,0.0,0.0,0.0,0.0,0.0,0.0,0.0,0.0,0.0,0.0,0.0,0.0,0.0,0.0,0.0,0.0,0.0,0.0,0.0,0.0,0.0,0.0,0.0,0.0,-2.2583,-2.0908,-1.998,-1.9774,-1.9749,-1.9264,-1.8474,-1.8553,-1.8565,-1.8595,-1.9566,-1.9961,-1.996,-1.9799,-1.9046,-1.796,-1.6962,-1.6135,-1.541,0.0,-4.6308,0.0,0.0,-4.6308,0.0,-4.6055,-4.6016,-4.6348,-4.7207,-4.6562,-4.6016,-4.6016,-4.5254,-4.457,-4.4219,-4.3555,-4.3008,-4.2637,-4.1387,-4.0566,-4.0371,-3.9062,-3.793,-3.7031,-3.7012,-3.6699,0.0,0.0,0.0,0.0,0.0,0.0,0.0,0.0,0.0,0.0,0.0,-3.4477,-3.4413,-3.3544,-3.2681,-3.1806,-3.093,-3.0554,-3.0402,-2.9724,-2.9303,-2.8937,-2.7931,-2.7144,-2.6427,-2.5398,-2.5034,-2.4986,-2.4923,-2.4956,-2.501,-2.5046,-2.5194,-2.5331,-2.5331,-2.533,-2.5348,-2.5348,-2.5348,-2.5363,-2.5428,-2.5508,-2.5567,-2.5683,-2.5682,0.0,0.0,0.0,0.0,0.0,0.0,0.0,0.0,0.0,0.0,0.0,0.0,0.0,0.0,0.0,0.0,0.0,0.0,0.0,0.0,0.0,-2.5303,-2.5299,0.0,-2.257,0.0,-2.1027,-2.0188,-2.0127,-2.0292,-1.9908,-1.9119,-1.938,-1.9475,-1.9558,-2.027,-2.0585,-2.0566,-2.0286,-1.9593,-1.8608,-1.7454,-1.6371,-1.5376,0.0,0.0,0.0,0.0,0.0,0.0,0.0,-4.5117,-4.543,-4.6308,-4.5664,-4.5117,-4.5117,-4.4336,-4.3203,-4.1699,-4.1484,-4.0762,-3.918,-3.8926,-3.8496,-3.7695,-3.7519,-3.7012,-3.6133,-3.6113,-3.6074,0.0,0.0,0.0,0.0,0.0,0.0,0.0,0.0,0.0,0.0,-3.4326,-3.4389,-3.4413,-3.3544,-3.2681,-3.1806,-3.093,-3.0554,-3.0479,-3.0402,-2.9825,-2.8967,-2.8148,-2.7302,-2.6447,-2.5543,-2.5152,-2.5034,-2.5203,-2.5141,-2.5034,-2.5224,-2.5329,-2.5398,-2.5383,-2.5434,-2.5473,-2.5473,-2.5473,-2.5489,-2.5564,-2.5634,-2.5683,-2.5703,-2.5601,-2.5526,0.0,0.0,0.0,0.0,0.0,0.0,0.0,0.0,0.0,0.0,0.0,0.0,0.0,0.0,0.0,0.0,0.0,0.0,-2.6612,0.0,-2.6387,-2.6631,-2.4057,0.0,-2.2854,-2.1124,-1.9921,-1.9257,-1.9986,-1.986,-1.9158,-2.0004,-2.0402,-2.0468,-2.0498,-2.0541,-2.0566,-2.0247,-1.9857,-1.9326,-1.7941,-1.7029,-1.6174,0.0,0.0,0.0,0.0,0.0,0.0,0.0,-4.4087,-4.4208,-4.4687,-4.4433,-4.4219,-4.4219,-4.3008,-4.1933,-4.1269,-3.9766,-3.8555,-3.7871,-3.6836,-3.6094,-3.5742,-3.5742,-3.5586,-3.5234,-3.5723,-3.5996,0.0,0.0,0.0,0.0,0.0,0.0,0.0,0.0,-3.441,-3.5132,-3.5132,-3.4595,-3.3687,-3.3335,-3.2382,-3.1131,-3.0799,-3.0643,-3.0545,-3.003,-2.9234,-2.8308,-2.7459,-2.6911,-2.6447,-2.5572,-2.5234,-2.5203,-2.5274,-2.5234,-2.5205,-2.5329,-2.5376,-2.5408,-2.5453,-2.5488,-2.5493,-2.5493,-2.5493,-2.5517,-2.552,-2.5598,-2.5659,-2.5683,-2.5659,-2.5598,0.0,0.0,0.0,0.0,0.0,0.0,0.0,0.0,0.0,0.0,0.0,0.0,0.0,0.0,0.0,0.0,0.0,0.0,-2.7636,0.0,-2.6119,-2.679,-2.4173,-2.2883,-2.2937,-2.1189,-2.0187,-1.9895,-2.0215,-2.0202,-1.9921,-1.9737,-2.002,-2.0547,-1.995,-2.0071,-2.0507,-1.9469,-1.9062,-1.8795,-1.6675,-1.5775,-1.5344,-4.5168,0.0,-4.4993,0.0,-4.4312,-4.4063,-4.329,-4.3078,-4.2883,-4.2541,-4.249,-4.2611,-4.2929,-4.168,-4.0605,-4.0098,-3.8125,-3.6816,-3.6543,-3.5137,-3.4316,-3.4316,-3.4316,0.0,-3.4687,-3.5293,-3.5742,-3.5996,-3.5975,0.0,0.0,0.0,0.0,0.0,-3.5076,-3.4999,-3.5298,-3.5298,-3.434,-3.2824,-3.2824,-3.1963,-3.0677,-3.069,-3.0681,-3.0569,-2.9725,-2.8824,-2.7891,-2.7031,-2.6533,-2.6165,-2.5548,-2.5357,-2.533,-2.533,-2.5321,-2.5339,-2.5383,-2.5428,-2.5463,-2.5526,-2.5547,-2.5558,-2.5558,-2.5558,-2.5558,-2.5558,-2.5601,-2.5637,-2.5683,-2.5683,-2.5636,-2.5547,0.0,0.0,0.0,0.0,0.0,0.0,-2.5473,-2.5463,-2.5463,0.0,0.0,0.0,0.0,0.0,0.0,0.0,0.0,0.0,0.0,0.0,0.0,-2.4447,-2.3154,-2.2955,-2.1434,-2.0599,-2.037,-2.0381,-2.0449,-2.0445,-1.9522,-1.969,-2.0527,-1.9578,-1.9738,-2.0448,-1.888,-1.8266,-1.7963,-1.553,-1.4601,-1.4272,-4.3424,-4.3424,-4.3424,-4.3424,-4.3424,-4.3113,-4.2249,-4.2113,-4.1509,-3.9863,-3.9648,-4.0042,-4.1112,-4.0449,-3.9219,-3.75,-3.6523,-3.5644,-3.4785,-3.3906,-3.3418,0.0,0.0,-3.3828,-3.4687,-3.4707,-3.5137,-3.5996,0.0,0.0,-3.59,0.0,-3.5671,-3.5591,-3.5591,-3.5107,-3.4313,-3.4313,-3.3397,-3.1915,-3.1915,-3.139,-3.0611,-3.0677,-3.0655,-3.0507,-2.9769,-2.8907,-2.7974,-2.7093,-2.6237,-2.5508,-2.5508,-2.5459,-2.5413,-2.5413,-2.5406,-2.5398,-2.5398,-2.5503,-2.5601,-2.5601,-2.5658,-2.5703,-2.5703,-2.5703,-2.5703,-2.5703,-2.5703,-2.5703,-2.5703,-2.5657,-2.5601,-2.5601,0.0,0.0,0.0,0.0,0.0,0.0,-2.5447,-2.5394,-2.5394,0.0,0.0,0.0,0.0,0.0,0.0,0.0,0.0,-2.693,-2.6833,0.0,-2.6802,-2.4989,-2.3689,-2.2882,-2.1934,-2.1077,-2.0299,-2.0375,-2.0447,-2.0451,-1.959,-1.9726,-2.0527,-1.9514,-1.9696,-2.0429,-1.8621,-1.7614,-1.6993,-1.5027,-1.3931,-1.324,-4.3195,-4.3187,-4.3013,-4.2414,-4.2381,-4.1944,-4.047,-4.0267,-3.9888,-3.8843,-3.8672,-3.8563,-3.8351,-3.8174,-3.7602,0.0,-3.5007,-3.3768,0.0,-3.198,-3.1503,-3.1569,-3.2135,-3.2611,-3.2988,-3.3535,-3.4238,-3.5117,0.0,0.0,0.0,-3.562,-3.523,-3.4653,-3.4653,-3.4171,-3.333,-3.3211,-3.2493,-3.1475,-3.1339,-3.0893,-3.0318,-3.0345,-3.0483,-3.0556,-2.9687,-2.8854,-2.8044,-2.7156,-2.6282,-2.559,-2.5611,-2.5558,-2.5477,-2.5477,-2.5477,-2.5488,-2.5531,-2.5564,-2.5605,-2.566,-2.5683,-2.5703,-2.5703,-2.5703,-2.5703,-2.5703,-2.5703,-2.5703,-2.5703,-2.5683,-2.5636,-2.5551,-2.5503,0.0,0.0,0.0,0.0,0.0,0.0,-2.533,0.0,-2.6102,0.0,0.0,0.0,0.0,0.0,0.0,0.0,0.0,-2.6482,0.0,-2.6447,-2.4741,-2.3422,-2.2471,-2.1578,-2.0469,-1.9204,-1.9284,-1.9379,-1.941,-1.8309,-1.8776,-2.0227,-1.9005,-1.9158,-2.0014,-1.8156,-1.7101,-1.639,-1.4272,-1.3089,-1.2415,-4.1306,-4.1293,-4.1112,-4.0516,-4.0513,-4.0214,-3.9057,-3.8887,-3.8614,-3.7802,-3.7652,-3.7332,-3.6556,-3.6255,0.0,-3.5416,-3.4086,-3.2859,-3.196,-3.1073,-3.0628,-3.0665,-3.1176,-3.1688,-3.2125,0.0,0.0,-3.4176,-3.4378,-3.468,-3.506,-3.504,-3.4718,-3.418,-3.378,-3.3105,-3.2286,-3.2092,-3.1502,-3.069,-3.0557,-3.0297,-2.9983,-2.9786,-2.9843,-2.9872,-2.8793,-2.8105,-2.7576,-2.6729,-2.6083,-2.5637,-2.5683,-2.5637,-2.5564,-2.5547,-2.5543,-2.5551,-2.5595,-2.5629,-2.5637,-2.566,-2.5683,-2.5703,-2.5703,-2.5449,-2.5293,-2.5625,-2.5703,-2.5703,-2.5703,-2.5683,-2.5634,-2.5554,-2.5508,-2.5434,-2.5346,0.0,0.0,0.0,0.0,0.0,0.0,-2.5683,0.0,0.0,0.0,0.0,0.0,0.0,0.0,-2.7021,-2.5898,0.0,-2.5812,-2.4708,-2.3537,-2.2299,-2.1098,-2.0044,-1.9116,-1.9185,-1.9206,-1.9126,-1.804,-1.8436,-1.9731,-1.8655,-1.8858,-1.9684,-1.7924,-1.6729,-1.5784,-1.3763,-1.2453,-1.1629,-3.8307,-3.8307,0.0,0.0,-3.82,0.0,-3.7949,-3.7964,-3.7665,-3.6656,-3.6526,-3.6273,-3.5579,-3.4729,-3.4254,-3.4386,0.0,0.0,0.0,-3.1035,-3.0587,-3.0594,-3.0594,-3.1003,-3.1884,-3.1903,-3.2332,-3.3207,-3.3884,-3.4182,-3.4103,-3.4103,-3.4064,-3.3974,-3.2962,-3.2031,-3.1184,-3.0972,-3.0413,-2.9678,-2.9661,-2.9661,-2.9618,-2.9065,-2.8868,-2.8732,-2.7347,-2.6886,-2.6778,-2.5975,-2.5683,-2.5683,-2.5683,-2.5683,-2.5683,-2.5613,-2.5605,-2.5605,-2.5605,-2.5659,-2.5683,-2.5611,-2.56,-2.5586,-2.5527,-2.4941,-2.4629,-2.5449,-2.5644,-2.5683,-2.5683,-2.5636,-2.5598,-2.5595,-2.5473,-2.5406,-2.5379,0.0,0.0,0.0,0.0,0.0,0.0,-2.4986,-2.5005,0.0,0.0,0.0,0.0,0.0,-2.7089,-2.543,-2.5186,-2.5028,-2.4974,-2.4799,-2.3851,-2.2166,-2.0546,-1.9736,-1.9673,-1.976,-1.9665,-1.9383,-1.8539,-1.8576,-1.9186,-1.8525,-1.8783,-1.9419,-1.7944,-1.6563,-1.5209,-1.3643,-1.2167,-1.0955,0.0,0.0,-3.8255,-3.8119,-3.8218,-3.8004,-3.714,-3.7107,-3.6613,-3.4995,-3.4795,-3.4732,-3.4552,-3.3742,-3.3234,-3.328,-3.257,-3.1736,-3.0809,-3.0567,-3.0482,-3.0513,-3.0521,-3.0644,-3.0925,-3.0925,-3.1326,-3.2151,-3.2975,-3.3323,-3.3218,-3.3218,-3.2768,-3.1976,-3.1722,-3.1042,-3.0065,-2.9851,-2.9661,-2.9435,-2.9249,-2.9291,-2.9381,-2.8594,-2.8555,-2.869,-2.7083,-2.6681,-2.6776,-2.5902,-2.5611,-2.5611,-2.5611,-2.5611,-2.5636,-2.5664,-2.5682,-2.5682,-2.5682,-2.5683,-2.5703,-2.5683,-2.5195,-2.4531,-2.3867,-2.4062,-2.4453,-2.4668,-2.5191,-2.5611,-2.5611,-2.5564,-2.5517,-2.5459,-2.5415,-2.5383,-2.533,-2.5303,0.0,0.0,-2.5034,-2.4962,-2.4855,-2.4842,-2.5102,0.0,0.0,0.0,0.0,-2.6241,-2.6047,-2.5113,-2.4943,-2.479,-2.462,-2.3974,-2.2741,-2.0902,-1.99,-1.9105,-1.8513,-1.8615,-1.8659,-1.8628,-1.8175,-1.8559,-1.9468,-1.9,-1.9037,-1.9267,-1.8288,-1.6903,-1.5431,-1.4923,-1.325,-1.1356,-3.7262,-3.7253,-3.7205,-3.7042,-3.7104,-3.6837,-3.5727,-3.5659,-3.5201,-3.3782,-3.3603,-3.3603,-3.3603,-3.2852,-3.2352,-3.2352,-3.1992,-3.1378,-3.0467,-3.0398,-3.0425,-3.0442,-3.0452,-3.0491,-3.054,-3.0547,-3.077,-3.1215,-3.2058,-3.2428,-3.2352,-3.2352,-3.1974,-3.1272,-3.0798,-3.0181,-2.9533,-2.9312,-2.9222,-2.9203,-2.9044,-2.9089,-2.9095,-2.7976,-2.7796,-2.7924,-2.6357,-2.5979,-2.615,-2.5703,-2.5554,-2.5554,-2.5554,-2.5587,-2.5605,-2.5637,-2.5682,-2.5703,-2.5703,-2.5703,-2.5703,-2.5703,-2.5018,-2.4334,-2.4255,-2.4292,-2.4466,-2.4827,-2.5258,-2.5554,-2.5554,-2.5489,-2.5447,-2.5413,-2.5368,-2.5311,-2.5184,-2.5163,0.0,-2.493,-2.4836,-2.4737,-2.467,-2.4654,-2.4839,-2.5289,0.0,0.0,-2.5446,-2.5355,-2.5194,-2.4923,-2.4756,-2.4607,-2.4495,-2.3258,-2.1902,-2.0484,-1.9675,-1.9069,-1.8647,-1.8716,-1.873,-1.8662,-1.8474,-1.8679,-1.913,-1.9034,-1.9069,-1.9117,-1.8551,-1.7457,-1.619,-1.5879,-1.4553,-1.3,-3.5625,-3.5703,-3.5717,-3.5396,-3.5417,-3.5151,-3.4176,-3.4063,-3.3757,-3.2839,-3.2718,-3.2718,-3.2718,-3.1987,-3.1564,-3.1698,-3.1583,-3.1198,-3.0436,-3.0398,-3.0398,-3.0398,-3.0398,-3.0428,-3.0491,-3.0472,-3.0472,-3.0472,-3.116,-3.1506,-3.1506,-3.1506,-3.1347,-3.1016,-3.012,-2.957,-2.933,-2.9089,-2.8994,-2.8994,-2.8994,-2.892,-2.8691,-2.7355,-2.6897,-2.6798,-2.5523,-2.5177,-2.5367,-2.5451,-2.5473,-2.5473,-2.5479,-2.5539,-2.5573,-2.5573,-2.5636,-2.5703,-2.5703,-2.5683,-2.5644,-2.5527,-2.4784,-2.4256,-2.4864,-2.4539,-2.4294,-2.4977,-2.5328,-2.5473,-2.5443,-2.5376,-2.5321,-2.5305,-2.5265,-2.5171,-2.4986,0.0,-2.493,-2.4775,-2.4591,-2.4495,-2.4461,-2.4444,-2.4444,-2.4444,-2.4607,-2.4659,0.0,-2.4375,-2.4286,-2.4291,-2.4284,-2.4146,-2.3903,-2.2384,-2.1161,-2.0301,-1.962,-1.9305,-1.9305,-1.9305,-1.9214,-1.9052,-1.9052,-1.8913,-1.8734,-1.8948,-1.9052,-1.9018,-1.877,-1.8053,-1.711,-1.6724,-1.5852,-1.4881,-3.3945,-3.4394,-3.4646,-3.3828,-3.3634,-3.3524,-3.3229,-3.3141,-3.282,-3.1987,-3.1891,-3.1891,-3.1891,-3.1121,-3.091,-3.1641,-3.1025,-3.0533,-3.0398,-3.0398,-3.0398,-3.0398,-3.0398,-3.039,-3.0425,-3.0425,-3.0425,-3.0425,-3.0537,-3.059,-3.059,-3.059,-3.0366,-2.9954,-2.977,-2.9475,-2.9044,-2.9017,-2.8994,-2.8994,-2.8994,-2.8594,-2.7879,-2.6985,-2.6355,-2.585,-2.511,-2.4977,-2.5176,-2.5352,-2.542,-2.5427,-2.5415,-2.5451,-2.5526,-2.5526,-2.5603,-2.5703,-2.5703,-2.566,-2.5432,-2.4709,-2.3854,-2.3033,-2.2446,-2.2777,-2.3244,-2.3353,-2.4469,-2.5367,-2.5183,-2.5119,-2.5015,-2.4917,-2.4883,-2.4874,-2.4847,0.0,-2.4756,-2.4559,-2.4528,-2.4426,-2.4247,-2.4247,-2.4247,-2.4247,-2.4284,-2.3989,-2.3326,-2.3253,-2.2832,-2.1954,-2.2777,-2.2554,-2.1138,-2.0848,-2.0299,-1.9473,-1.9344,-1.9305,-1.9305,-1.9305,-1.9274,-1.9243,-1.9243,-1.9227,-1.9178,-1.9227,-1.9243,-1.9227,-1.9017,-1.8324,-1.7489,-1.7795,-1.6728,-1.5298,-3.3476,-3.3711,-3.3846,-3.3389,-3.3262,-3.3067,-3.2489,-3.2374,-3.2048,-3.1167,-3.1051,-3.0865,-3.0344,-3.0371,-3.0371,-3.0314,-3.0371,-3.0398,-3.0398,-3.0398,-3.0398,-3.0398,-3.0398,-3.0398,-3.0398,-2.9948,-2.9929,-3.0398,-2.9929,-2.9948,-3.0398,-3.0398,-3.0142,-2.9696,-2.9696,-2.9194,-2.8374,-2.8833,-2.8737,-2.8393,-2.881,-2.8521,-2.7714,-2.6906,-2.6222,-2.5612,-2.5017,-2.4911,-2.5077,-2.5274,-2.5348,-2.5348,-2.5357,-2.5391,-2.5447,-2.5453,-2.5564,-2.5683,-2.5659,-2.5611,-2.5383,-2.4524,-2.3996,-2.346,-2.2546,-2.3026,-2.3605,-2.3454,-2.4378,-2.5128,-2.4984,-2.4905,-2.4864,-2.4818,-2.4804,0.0,0.0,-2.4639,-2.4559,-2.4357,-2.4339,-2.4303,-2.4209,-2.419,-2.419,-2.419,-2.4016,-2.361,-2.2846,-2.2598,-2.19,-2.058,-2.1434,-2.1348,-2.0119,-2.0263,-1.9916,-1.9134,-1.9243,-1.9305,-1.9305,-1.9305,-1.9305,-1.9305,-1.9305,-1.9305,-1.9305,-1.9305,-1.9305,-1.9274,-1.9086,-1.8733,-1.8306,-1.8228,-1.7614,-1.6868,-3.2851,-3.2988,-3.3046,-3.2795,-3.2723,-3.2452,-3.1724,-3.1448,-3.1041,-3.0308,-3.0067,-2.9657,-2.8916,-2.9434,-2.9635,-2.9151,-2.9717,-3.0179,-3.0379,-3.0398,-3.0398,-3.0398,-3.0398,-3.0314,-3.0102,-2.964,-2.9621,-3.0102,-2.9621,-2.9737,-3.0398,-3.0398,-3.0142,-2.9696,-2.9696,-2.8988,-2.7842,-2.8466,-2.8374,-2.7842,-2.8282,-2.8081,-2.742,-2.6631,-2.5926,-2.5299,-2.4926,-2.4869,-2.4993,-2.5214,-2.5303,-2.5303,-2.5303,-2.5348,-2.5398,-2.5406,-2.5526,-2.5637,-2.5595,-2.5428,-2.5099,-2.4438,-2.3966,-2.3459,-2.2733,-2.3081,-2.357,-2.3498,-2.4159,-2.4708,-2.4737,-2.4682,-2.4601,-2.4554,0.0,0.0,0.0,-2.4265,-2.4248,-2.4113,-2.4151,-2.419,-2.419,-2.419,-2.419,-2.419,-2.3733,-2.3118,-2.2363,-2.1846,-2.0909,-1.9465,-2.0096,-2.0134,-1.9529,-1.9738,-1.9543,-1.9001,-1.915,-1.9243,-1.9305,-1.9305,-1.9305,-1.9305,-1.9305,-1.9305,-1.9305,-1.9305,-1.9274,-1.9196,-1.9069,-1.8931,-1.877,-1.8351,-1.8125,-1.7915,-3.123,-3.1738,-3.2031,-3.1211,-3.0966,-3.0869,-3.0807,-3.0059,-2.9466,-2.9401,-2.8734,-2.823,-2.81,-2.815,-2.8434,-2.9055,-2.9159,-2.9544,-3.034,-3.0398,-3.0398,-3.0398,-3.0398,-3.0025,-2.9198,-2.9929,-2.9948,-2.9198,-2.9948,-3.034,-3.0398,-3.0398,-3.0142,-2.9696,-2.9696,-2.8988,-2.7787,-2.786,-2.7842,-2.7732,-2.7053,-2.6741,-2.6612,-2.5786,-2.4999,-2.4358,-2.4673,-2.4804,-2.4855,-2.5182,-2.5303,-2.5303,-2.5303,-2.5348,-2.5398,-2.5398,-2.5459,-2.5503,-2.5517,-2.4913,-2.429,-2.4225,-2.2944,-2.1683,-2.1617,-2.1655,-2.1863,-2.2473,-2.329,-2.4024,-2.4425,-2.4264,-2.3987,-2.3821,0.0,0.0,-2.3305,-2.3548,-2.3756,-2.3735,-2.4016,-2.419,-2.419,-2.419,-2.419,-2.419,-2.3244,-2.2345,-2.1531,-2.0523,-1.9462,-1.8353,-1.861,-1.8746,-1.8693,-1.8712,-1.8806,-1.9002,-1.9019,-1.9117,-1.9305,-1.9305,-1.9305,-1.9305,-1.9305,-1.9305,-1.9305,-1.9305,-1.9198,-1.9018,-1.9019,-1.8697,-1.8249,-1.8208,-1.7849,-1.7368,-3.0976,-3.1172,-3.1289,-3.0957,-3.0858,-3.0817,-3.0817,-3.0068,-2.9467,-2.9441,-2.8692,-2.7926,-2.7324,-2.7695,-2.789,-2.7642,-2.8077,-2.8506,-2.8832,-2.8852,-2.9313,-3.034,-3.0398,-3.0256,-2.991,-2.9698,-2.9698,-2.991,-2.9698,-2.9871,-3.0379,-2.9852,-2.9625,-2.9639,-2.8619,-2.7736,-2.7053,-2.7053,-2.6759,-2.6319,-2.6521,-2.63,-2.5805,-2.5531,-2.4887,-2.4247,-2.4512,-2.47,-2.4828,-2.5041,-2.5203,-2.5303,-2.5303,-2.5322,-2.5339,-2.5339,-2.5263,-2.5187,-2.5187,-2.4706,-2.3934,-2.2805,-2.1949,-2.1225,-2.0689,-2.0919,-2.1301,-2.1412,-2.2534,-2.3431,-2.329,-2.3557,-2.3723,-2.3437,0.0,-2.3189,-2.3189,-2.3323,-2.3392,-2.3392,-2.35,-2.3566,-2.3566,-2.3566,-2.339,-2.2926,-2.2322,-2.1441,-2.0212,-1.9146,-1.8375,-1.7949,-1.7849,-1.7898,-1.8103,-1.827,-1.841,-1.8508,-1.8825,-1.9035,-1.9117,-1.9227,-1.9305,-1.9305,-1.9305,-1.9305,-1.9305,-1.9305,-1.8888,-1.8312,-1.8802,-1.8485,-1.7783,-1.7859,-1.7732,-1.7392,-3.0781,-3.0684,-3.0488,-3.0488,-3.0488,-3.0391,-3.0137,-2.9336,-2.8769,-2.8719,-2.7954,-2.7162,-2.6509,-2.6903,-2.7074,-2.6734,-2.719,-2.7601,-2.7871,-2.7838,-2.8437,-2.9826,-3.0132,-3.0037,-2.95,-2.9233,-2.914,-2.9217,-2.914,-2.9275,-2.9621,-2.9256,-2.9027,-2.8865,-2.7714,-2.6839,-2.6227,-2.6227,-2.5897,-2.5439,-2.5731,-2.5658,-2.5384,-2.5127,-2.4667,-2.4228,-2.4495,-2.4685,-2.4832,-2.503,-2.5192,-2.5303,-2.5303,-2.5303,-2.5303,-2.5224,-2.4938,-2.4541,-2.4245,-2.3705,-2.2983,-2.201,-2.129,-2.0665,-2.0076,-2.0334,-2.0784,-2.1115,-2.1823,-2.2476,-2.2815,-2.2966,-2.3038,-2.3058,-2.2965,-2.2908,-2.2908,-2.2989,-2.3045,-2.3045,-2.3141,-2.31,-2.2876,-2.2858,-2.2539,-2.1821,-2.1231,-2.0322,-1.8974,-1.8093,-1.7658,-1.7658,-1.7337,-1.7248,-1.7479,-1.776,-1.8001,-1.8208,-1.8566,-1.8843,-1.9001,-1.9134,-1.9227,-1.9289,-1.9227,-1.9214,-1.9214,-1.9097,-1.8621,-1.7985,-1.852,-1.8212,-1.7446,-1.7545,-1.7229,-1.6588,-3.0547,-3.0176,-2.959,-2.959,-2.959,-2.9297,-2.8437,-2.7559,-2.6992,-2.6992,-2.623,-2.5662,-2.5605,-2.5547,-2.5826,-2.6626,-2.6631,-2.6967,-2.7813,-2.7675,-2.7948,-2.8736,-2.9541,-2.9198,-2.7527,-2.8541,-2.8275,-2.6621,-2.8275,-2.8679,-2.7909,-2.8698,-2.8415,-2.7204,-2.7185,-2.652,-2.5403,-2.5403,-2.5403,-2.5329,-2.452,-2.4667,-2.5311,-2.4502,-2.419,-2.4266,-2.4654,-2.4804,-2.4861,-2.5171,-2.5303,-2.5303,-2.5303,-2.5303,-2.5264,-2.5065,-2.4431,-2.3587,-2.2577,-2.1708,-2.1286,-2.2073,-2.1035,-1.9809,-1.9809,-1.9809,-2.022,-2.1686,-2.1145,-2.1076,-2.3283,-2.2546,-2.1853,-2.2574,-2.2446,-2.2293,-2.2293,-2.251,-2.2678,-2.2678,-2.2979,-2.2888,-2.2149,-2.2078,-2.1763,-2.1046,-1.9995,-1.8922,-1.7845,-1.7479,-1.7296,-1.7296,-1.6977,-1.6789,-1.6789,-1.7126,-1.7585,-1.8187,-1.8187,-1.8469,-1.8984,-1.9002,-1.9119,-1.9274,-1.9067,-1.9002,-1.8984,-1.8715,-1.845,-1.8187,-1.8187,-1.7827,-1.728,-1.728,-1.6237,-1.4807,-2.8965,-2.8867,-2.8691,-2.8691,-2.8691,-2.8594,-2.834,-2.7559,-2.6992,-2.6992,-2.623,-2.5683,-2.5662,-2.5564,-2.56,-2.5846,-2.5757,-2.5734,-2.5857,-2.6128,-2.6443,-2.6813,-2.779,-2.8082,-2.7586,-2.8015,-2.8005,-2.7505,-2.8005,-2.8057,-2.7682,-2.7318,-2.7082,-2.6949,-2.5808,-2.5336,-2.5366,-2.4795,-2.4557,-2.4538,-2.43,-2.4337,-2.452,-2.4281,-2.419,-2.4209,-2.4339,-2.4461,-2.4623,-2.4855,-2.5024,-2.5088,-2.5088,-2.5018,-2.4955,-2.4883,-2.42,-2.3374,-2.309,-2.1868,-2.067,-2.0559,-2.0521,-2.0503,-2.0503,-2.0285,-2.0343,-2.1316,-2.1113,-2.1034,-2.1984,-2.1847,-2.1623,-2.1626,-2.1579,-2.1329,-2.0762,-2.1249,-2.1651,-2.1651,-2.173,-2.1721,-2.1498,-2.1464,-2.0931,-1.9614,-1.875,-1.8143,-1.7828,-1.7479,-1.7296,-1.7296,-1.6747,-1.6554,-1.6789,-1.6917,-1.7175,-1.7562,-1.7771,-1.8052,-1.845,-1.8623,-1.8753,-1.8825,-1.8752,-1.8715,-1.8715,-1.8623,-1.8153,-1.7446,-1.774,-1.7294,-1.6446,-1.5801,-1.5237,-1.4566,-2.8164,-2.8027,-2.7793,-2.7793,-2.7793,-2.7676,-2.7324,-2.6816,-2.6484,-2.6484,-2.6035,-2.5683,-2.5661,-2.5561,-2.5498,-2.5471,-2.5281,-2.5118,-2.4943,-2.5105,-2.5291,-2.5405,-2.6105,-2.6662,-2.7039,-2.7275,-2.7217,-2.6871,-2.7144,-2.7036,-2.6575,-2.63,-2.6088,-2.591,-2.494,-2.4671,-2.4887,-2.441,-2.419,-2.419,-2.419,-2.419,-2.419,-2.419,-2.419,-2.4209,-2.4284,-2.4393,-2.4545,-2.4731,-2.4855,-2.493,-2.493,-2.4869,-2.479,-2.47,-2.3783,-2.2762,-2.272,-2.1627,-2.0365,-1.9745,-2.0164,-2.0659,-2.0547,-2.035,-2.0372,-2.1012,-2.0451,-2.018,-2.1326,-2.098,-2.0643,-2.0908,-2.0703,-2.0324,-1.9681,-2.0137,-2.0545,-2.0545,-2.0625,-2.0602,-2.034,-2.0281,-1.9773,-1.8555,-1.8065,-1.7811,-1.7811,-1.7361,-1.7101,-1.7101,-1.6448,-1.6191,-1.6394,-1.6394,-1.6644,-1.7101,-1.7406,-1.7687,-1.8005,-1.8313,-1.8489,-1.8585,-1.8489,-1.845,-1.843,-1.833,-1.7948,-1.737,-1.7214,-1.6685,-1.5933,-1.5083,-1.4281,-1.3464,-2.7754,-2.7422,-2.6875,-2.6875,-2.6875,-2.6621,-2.582,-2.5703,-2.5703,-2.5703,-2.5703,-2.5662,-2.5605,-2.5543,-2.5463,-2.5406,-2.5137,-2.4911,-2.479,-2.4575,-2.4495,-2.4528,-2.47,-2.5248,-2.6206,-2.6411,-2.6091,-2.5274,-2.5872,-2.5749,-2.4981,-2.5579,-2.5364,-2.4478,-2.4478,-2.4375,-2.419,-2.419,-2.419,-2.419,-2.419,-2.419,-2.419,-2.419,-2.419,-2.4228,-2.441,-2.4478,-2.4512,-2.47,-2.4775,-2.4775,-2.4775,-2.476,-2.4716,-2.4528,-2.3268,-2.1919,-2.1835,-2.109,-2.0193,-1.9473,-1.9895,-2.0418,-2.0156,-2.0173,-2.0388,-2.0788,-1.9472,-1.891,-2.1011,-2.0021,-1.9186,-2.0185,-1.9783,-1.9241,-1.8857,-1.9154,-1.9409,-1.9409,-1.9705,-1.963,-1.8961,-1.8843,-1.8521,-1.7862,-1.7811,-1.7811,-1.7811,-1.7167,-1.6789,-1.6789,-1.6136,-1.5799,-1.5799,-1.5799,-1.6108,-1.6763,-1.7101,-1.7406,-1.7687,-1.8005,-1.829,-1.8508,-1.827,-1.8166,-1.8146,-1.7905,-1.7811,-1.7721,-1.677,-1.6177,-1.5783,-1.4958,-1.351,-1.1946,-2.6191,-2.6113,-2.5977,-2.5977,-2.5977,-2.5918,-2.5723,-2.5703,-2.5703,-2.5703,-2.5703,-2.5662,-2.5605,-2.5543,-2.5463,-2.5406,-2.5069,-2.4756,-2.4575,-2.4375,-2.441,-2.4716,-2.4775,-2.5335,-2.648,-2.5908,-2.5416,-2.5077,-2.5213,-2.5042,-2.4604,-2.4762,-2.4628,-2.4284,-2.4284,-2.4247,-2.419,-2.419,-2.419,-2.419,-2.419,-2.419,-2.419,-2.419,-2.419,-2.4227,-2.4247,-2.4284,-2.4303,-2.4495,-2.4578,-2.4578,-2.4578,-2.4461,-2.4321,-2.4266,-2.2978,-2.1571,-2.175,-2.0585,-1.9337,-1.9314,-1.9895,-2.0435,-2.0228,-2.0511,-2.0776,-2.063,-1.9596,-1.9002,-1.9805,-1.9168,-1.8508,-1.8486,-1.8351,-1.8006,-1.7369,-1.8046,-1.864,-1.864,-1.8935,-1.908,-1.891,-1.8386,-1.798,-1.7805,-1.7811,-1.7811,-1.7811,-1.7167,-1.6789,-1.6789,-1.6136,-1.5799,-1.5799,-1.5799,-1.6011,-1.6394,-1.6763,-1.7076,-1.7399,-1.7732,-1.7927,-1.7971,-1.7905,-1.79,-1.7883,-1.7833,-1.7811,-1.7749,-1.7273,-1.6873,-1.6394,-1.4869,-1.3582,-1.2512,-2.5737,-2.5633,-2.5607,-2.5658,-2.5659,-2.5661,-2.5703,-2.5703,-2.5703,-2.5703,-2.5703,-2.5661,-2.5561,-2.5531,-2.5414,-2.5226,-2.4949,-2.4716,-2.4512,-2.4321,-2.4339,-2.4639,-2.4654,-2.4993,-2.5735,-2.5297,-2.5239,-2.5621,-2.5133,-2.4766,-2.4495,-2.441,-2.4303,-2.419,-2.419,-2.419,-2.419,-2.419,-2.419,-2.419,-2.419,-2.419,-2.419,-2.419,-2.419,-2.419,-2.419,-2.4094,-2.3978,-2.4079,-2.4117,-2.4136,-2.4321,-2.4154,-2.3958,-2.3958,-2.2614,-2.1303,-2.1969,-2.117,-2.0101,-1.992,-2.0794,-2.1423,-2.0391,-2.0292,-2.0318,-1.9991,-1.911,-1.866,-1.9562,-1.8982,-1.8467,-1.8849,-1.8174,-1.7424,-1.6812,-1.7128,-1.7412,-1.7412,-1.7831,-1.8188,-1.8346,-1.8031,-1.7811,-1.7811,-1.7811,-1.7811,-1.7811,-1.7167,-1.6789,-1.6789,-1.6136,-1.5948,-1.6234,-1.6234,-1.6473,-1.6969,-1.6678,-1.6659,-1.6834,-1.7175,-1.7408,-1.7549,-1.7549,-1.7658,-1.7811,-1.7811,-1.7811,-1.7715,-1.6901,-1.6484,-1.6123,-1.448,-1.3224,-1.2286,-2.5732,-2.5543,-2.5526,-2.5567,-2.5573,-2.5603,-2.566,-2.5661,-2.5661,-2.5661,-2.5661,-2.5629,-2.5508,-2.5463,-2.5333,-2.501,-2.485,-2.47,-2.4461,-2.4284,-2.4284,-2.4495,-2.4495,-2.4666,-2.5012,-2.4879,-2.5182,-2.5988,-2.5154,-2.4639,-2.4462,-2.4266,-2.419,-2.419,-2.419,-2.419,-2.419,-2.419,-2.419,-2.419,-2.419,-2.419,-2.419,-2.4151,-2.4113,-2.4094,-2.4054,-2.3837,-2.361,-2.361,-2.361,-2.3671,-2.3937,-2.3837,-2.361,-2.361,-2.2375,-2.1224,-2.2156,-2.1774,-2.0987,-2.0549,-2.1421,-2.1953,-2.0336,-1.9881,-1.9661,-1.9204,-1.842,-1.816,-1.9327,-1.8799,-1.8464,-1.9247,-1.8138,-1.7043,-1.6623,-1.6403,-1.6301,-1.6301,-1.685,-1.7344,-1.7681,-1.7704,-1.7743,-1.7789,-1.7811,-1.7862,-1.798,-1.7396,-1.7091,-1.7167,-1.6558,-1.6458,-1.6876,-1.6876,-1.716,-1.7682,-1.6892,-1.6558,-1.6626,-1.6871,-1.7154,-1.7461,-1.7345,-1.7502,-1.7811,-1.7811,-1.7811,-1.7676,-1.6504,-1.6024,-1.5773,-1.4141,-1.2881,-1.2077,-2.5554,-2.5517,-2.5493,-2.5503,-2.5503,-2.5526,-2.5535,-2.5535,-2.5535,-2.5535,-2.5535,-2.5508,-2.5415,-2.5363,-2.5194,-2.4855,-2.4818,-2.4639,-2.4284,-2.4209,-2.4284,-2.4495,-2.4495,-2.4909,-2.5823,-2.5163,-2.4787,-2.4743,-2.4599,-2.4445,-2.4247,-2.4209,-2.419,-2.419,-2.419,-2.419,-2.419,-2.419,-2.419,-2.419,-2.419,-2.419,-2.417,-2.3876,-2.3774,-2.3714,-2.3437,-2.3323,-2.3259,-2.3259,-2.3259,-2.3277,-2.3323,-2.3282,-2.3259,-2.3259,-2.2429,-2.1592,-2.197,-2.1015,-1.9959,-2.0119,-1.9987,-1.973,-1.9478,-1.9615,-1.952,-1.8548,-1.8061,-1.7771,-1.7681,-1.7792,-1.7645,-1.6905,-1.68,-1.6563,-1.6008,-1.6141,-1.6301,-1.6301,-1.6633,-1.7002,-1.7344,-1.7368,-1.7502,-1.7789,-1.7811,-1.8082,-1.8724,-1.8402,-1.8306,-1.8619,-1.8261,-1.7899,-1.7563,-1.7548,-1.7608,-1.7697,-1.7567,-1.7668,-1.7944,-1.776,-1.7845,-1.8135,-1.756,-1.7502,-1.7811,-1.7811,-1.7811,-1.7749,-1.7292,-1.693,-1.6422,-1.44,-1.3377,-1.2942,-2.564,-2.5325,-2.5266,-2.5415,-2.535,-2.533,-2.5479,-2.5493,-2.5493,-2.5493,-2.5493,-2.5463,-2.5413,-2.5339,-2.5179,-2.4832,-2.4804,-2.4623,-2.4228,-2.419,-2.4247,-2.4339,-2.4321,-2.4542,-2.4981,-2.4647,-2.4409,-2.4321,-2.4444,-2.4393,-2.419,-2.419,-2.419,-2.419,-2.419,-2.419,-2.419,-2.419,-2.419,-2.417,-2.3996,-2.3917,-2.3896,-2.3544,-2.3414,-2.3369,-2.3045,-2.2923,-2.2923,-2.2923,-2.2923,-2.2947,-2.3141,-2.3069,-2.2923,-2.2923,-2.2193,-2.1524,-2.2206,-2.1404,-2.0415,-2.071,-2.037,-1.9858,-1.9399,-1.9321,-1.9181,-1.8559,-1.8208,-1.8166,-1.8716,-1.8752,-1.8603,-1.84,-1.8284,-1.776,-1.6488,-1.6412,-1.6479,-1.632,-1.6421,-1.6738,-1.7248,-1.7296,-1.7455,-1.7766,-1.8183,-1.8555,-1.8877,-1.8968,-1.899,-1.8908,-1.8558,-1.8361,-1.8268,-1.8268,-1.8463,-1.8822,-1.8822,-1.8485,-1.7926,-1.7792,-1.794,-1.8226,-1.7924,-1.7808,-1.7805,-1.7805,-1.7576,-1.7216,-1.6876,-1.6389,-1.5707,-1.458,-1.3902,-1.3509]},{"header":{"parameterUnit":"m.s-1","parameterCategory":1,"la1":30.6,"la2":28.766,"lo1":-90.7593,"lo2":-88.6598,"dy":0.0162,"dx":0.0183,"nx":116,"ny":114,"refTime":"2023-07-24T06:00:00:Z","depth":0,"parameterNumber":3,"parameterNumberName":"V-component_of_WINDS"},"data":[0.0,0.0,0.0,0.0,0.0,0.0,0.0,0.0,0.0,0.0,0.0,0.0,0.0,0.0,0.0,0.0,0.0,0.0,0.0,0.0,0.0,0.0,0.0,0.0,0.0,0.0,0.0,0.0,0.0,0.0,0.0,0.0,0.0,0.0,0.0,0.0,0.0,0.0,0.0,0.0,0.0,0.0,0.0,0.0,0.0,0.0,0.0,0.0,0.0,0.0,0.0,0.0,0.0,0.0,0.0,0.0,0.0,0.0,0.0,0.0,0.0,0.0,0.0,0.0,0.0,0.0,0.0,0.0,0.0,0.0,0.0,0.0,0.0,0.0,0.0,0.0,0.0,0.0,0.0,0.0,0.0,0.0,0.0,0.0,0.0,0.0,0.0,0.0,0.0,0.0,0.0,0.0,0.0,0.0,0.0,0.0,0.0,0.0,0.0,0.0,0.0,0.0,0.0,0.0,0.0,0.0,0.0,0.0,0.0,0.0,0.0,0.0,0.0,0.0,0.0,0.0,0.0,0.0,0.0,0.0,0.0,0.0,0.0,0.0,0.0,0.0,0.0,0.0,0.0,0.0,0.0,0.0,0.0,0.0,0.0,0.0,0.0,0.0,0.0,0.0,0.0,0.0,0.0,0.0,0.0,0.0,0.0,0.0,0.0,0.0,0.0,0.0,0.0,0.0,0.0,0.0,0.0,0.0,0.0,0.0,0.0,0.0,0.0,0.0,0.0,0.0,0.0,0.0,0.0,0.0,0.0,0.0,0.0,0.0,0.0,0.0,0.0,0.0,0.0,0.0,0.0,0.0,0.0,0.0,0.0,0.0,0.0,0.0,0.0,0.0,0.0,0.0,0.0,0.0,0.0,0.0,0.0,0.0,0.0,0.0,0.0,0.0,0.0,0.0,0.0,0.0,0.0,0.0,0.0,0.0,0.0,0.0,0.0,0.0,0.0,0.0,0.0,0.0,0.0,0.0,0.0,0.0,0.0,0.0,0.0,0.0,0.0,0.0,0.0,0.0,0.0,0.0,0.0,0.0,0.0,0.0,0.0,0.0,0.0,0.0,0.0,0.0,0.0,0.0,0.0,0.0,0.0,0.0,0.0,0.0,0.0,0.0,0.0,0.0,0.0,0.0,0.0,0.0,0.0,0.0,0.0,0.0,0.0,0.0,0.0,0.0,0.0,0.0,0.0,0.0,0.0,0.0,0.0,0.0,0.0,0.0,0.0,0.0,0.0,0.0,0.0,0.0,0.0,0.0,0.0,0.0,0.0,0.0,0.0,0.0,0.0,0.0,0.0,0.0,0.0,0.0,0.0,0.0,0.0,0.0,0.0,0.0,0.0,0.0,0.0,0.0,0.0,0.0,0.0,0.0,0.0,0.0,0.0,0.0,0.0,0.0,0.0,0.0,0.0,0.0,0.0,0.0,0.0,0.0,0.0,0.0,0.0,0.0,0.0,0.0,0.0,0.0,0.0,0.0,0.0,0.0,0.0,0.0,0.0,0.0,0.0,0.0,0.0,0.0,0.0,0.0,0.0,0.0,0.0,0.0,0.0,0.0,0.0,0.0,0.0,0.0,0.0,0.0,0.0,0.0,0.0,0.0,0.0,0.0,0.0,0.0,0.0,0.0,0.0,0.0,0.0,0.0,0.0,0.0,0.0,0.0,0.0,0.0,0.0,0.0,0.0,0.0,0.0,0.0,0.0,0.0,0.0,0.0,0.0,0.0,0.0,0.0,0.0,0.0,0.0,0.0,0.0,0.0,0.0,0.0,0.0,0.0,0.0,0.0,0.0,0.0,0.0,0.0,0.0,0.0,0.0,0.0,0.0,0.0,0.0,0.0,0.0,0.0,0.0,0.0,0.0,0.0,0.0,0.0,0.0,0.0,0.0,0.0,0.0,0.0,0.0,0.0,0.0,0.0,0.0,0.0,0.0,0.0,0.0,0.0,0.0,0.0,0.0,0.0,0.0,0.0,0.0,0.0,0.0,0.0,0.0,0.0,0.0,0.0,0.0,0.0,0.0,0.0,0.0,0.0,0.0,0.0,0.0,0.0,0.0,0.0,0.0,0.0,0.0,0.0,0.0,0.0,0.0,0.0,0.0,0.0,0.0,0.0,0.0,0.0,0.0,0.0,0.0,0.0,0.0,0.0,0.0,0.0,0.0,0.0,0.0,0.0,0.0,0.0,0.0,0.0,0.0,0.0,0.0,0.0,0.0,0.0,0.0,0.0,0.0,0.0,0.0,0.0,0.0,0.0,0.0,0.0,0.0,0.0,0.0,0.0,0.0,0.0,0.0,0.0,0.0,0.0,0.0,0.0,0.0,0.0,0.0,0.0,0.0,0.0,0.0,0.0,0.0,0.0,0.0,0.0,0.0,0.0,0.0,0.0,0.0,0.0,0.0,0.0,0.0,0.0,0.0,0.0,0.0,0.0,0.0,0.0,0.0,0.0,0.0,0.0,0.0,0.0,0.0,0.0,0.0,0.0,0.0,0.0,0.0,0.0,0.0,0.0,0.0,0.0,0.0,0.0,0.0,0.0,0.0,0.0,0.0,0.0,0.0,0.0,0.0,0.0,0.0,0.0,0.0,0.0,0.0,0.0,0.0,0.0,0.0,0.0,0.0,0.0,0.0,0.0,0.0,0.0,0.0,0.0,0.0,0.0,0.0,0.0,0.0,0.0,0.0,0.0,0.0,0.0,0.0,0.0,0.0,0.0,0.0,0.0,0.0,0.0,0.0,0.0,0.0,0.0,0.0,0.0,0.0,0.0,0.0,0.0,0.0,0.0,0.0,0.0,0.0,0.0,0.0,0.0,0.0,0.0,0.0,0.0,0.0,0.0,0.0,0.0,0.0,0.0,0.0,0.0,0.0,0.0,0.0,0.0,0.0,0.0,0.0,0.0,0.0,0.0,0.0,0.0,0.0,0.0,0.0,0.0,0.0,0.0,0.0,0.0,0.0,0.0,0.0,0.0,0.0,0.0,0.0,0.0,0.0,0.0,0.0,0.0,0.0,0.0,0.0,0.0,0.0,0.0,0.0,0.0,0.0,0.0,0.0,0.0,0.0,0.0,0.0,0.0,0.0,0.0,0.0,0.0,0.0,0.0,0.0,0.0,0.0,0.0,0.0,0.0,0.0,0.0,0.0,0.0,0.0,0.0,0.0,0.0,0.0,0.0,0.0,0.0,0.0,0.0,0.0,0.0,0.0,0.0,0.0,0.0,0.0,0.0,0.0,0.0,0.0,0.0,0.0,0.0,0.0,0.0,0.0,0.0,0.0,0.0,0.0,0.0,0.0,0.0,0.0,0.0,0.0,0.0,0.0,0.0,0.0,0.0,0.0,0.0,0.0,0.0,0.0,0.0,0.0,0.0,0.0,0.0,0.0,0.0,0.0,0.0,0.0,0.0,0.0,0.0,0.0,0.0,0.0,0.0,0.0,0.0,0.0,0.0,0.0,0.0,0.0,0.0,0.0,0.0,0.0,0.0,0.0,0.0,0.0,0.0,0.0,0.0,0.0,0.0,0.0,0.0,0.0,0.0,0.0,0.0,0.0,0.0,0.0,0.0,0.0,0.0,0.0,0.0,0.0,0.0,0.0,0.0,0.0,0.0,0.0,0.0,0.0,0.0,0.0,0.0,0.0,0.0,0.0,0.0,0.0,0.0,0.0,0.0,0.0,0.0,0.0,0.0,0.0,0.0,0.0,0.0,0.0,0.0,0.0,0.0,0.0,0.0,0.0,0.0,0.0,0.0,0.0,0.0,0.0,0.0,0.0,0.0,0.0,0.0,0.0,0.0,0.0,0.0,0.0,0.0,0.0,0.0,0.0,0.0,0.0,0.0,0.0,0.0,0.0,0.0,0.0,0.0,0.0,0.0,0.0,0.0,0.0,0.0,0.0,0.0,0.0,0.0,0.0,0.0,0.0,0.0,0.0,0.0,0.0,0.0,0.0,0.0,0.0,0.0,0.0,0.0,0.0,0.0,0.0,0.0,0.0,0.0,0.0,0.0,0.0,0.0,0.0,0.0,0.0,0.0,0.0,0.0,0.0,0.0,0.0,0.0,0.0,0.0,0.0,0.0,0.0,0.0,0.0,0.0,0.0,0.0,0.0,0.0,0.0,0.0,0.0,0.0,0.0,0.0,0.0,0.0,0.0,0.0,0.0,0.0,0.0,0.0,0.0,0.0,0.0,0.0,0.0,0.0,0.0,0.0,0.0,0.0,0.0,0.0,0.0,0.0,0.0,0.0,0.0,0.0,0.0,0.0,0.0,0.0,0.0,0.0,0.0,0.0,0.0,0.0,0.0,0.0,0.0,0.0,0.0,0.0,0.0,0.0,0.0,0.0,0.0,0.0,0.0,0.0,0.0,0.0,0.0,0.0,0.0,0.0,0.0,0.0,0.0,0.0,0.0,0.0,0.0,0.0,0.0,0.0,0.0,0.0,0.0,0.0,0.0,0.0,0.0,0.0,0.0,0.0,0.0,0.0,0.0,0.0,0.0,0.0,0.0,0.0,0.0,0.0,0.0,0.0,0.0,0.0,0.0,0.0,0.0,0.0,0.0,0.0,0.0,0.0,0.0,0.0,0.0,0.0,0.0,0.0,0.0,0.0,0.0,0.0,0.0,0.0,0.0,0.0,0.0,0.0,0.0,0.0,0.0,0.0,0.0,0.0,0.0,0.0,0.0,0.0,0.0,0.0,0.0,0.0,0.0,0.0,0.0,0.0,0.0,0.0,0.0,0.0,0.0,0.0,0.0,0.0,0.0,0.0,0.0,0.0,0.0,0.0,0.0,0.0,0.0,0.0,0.0,0.0,0.0,0.0,0.0,0.0,0.0,0.0,0.0,0.0,0.0,0.0,0.0,0.0,0.0,0.0,0.0,0.0,0.0,0.0,0.0,0.0,0.0,0.0,0.0,0.0,0.0,0.0,0.0,0.0,0.0,0.0,0.0,0.0,0.0,0.0,0.0,0.0,0.0,0.0,0.0,0.0,0.0,0.0,0.0,0.0,0.0,0.0,0.0,0.0,0.0,0.0,0.0,0.0,0.0,0.0,0.0,0.0,0.0,0.0,0.0,0.0,0.0,0.0,0.0,0.0,0.0,0.0,0.0,0.0,0.0,0.0,0.0,0.0,0.0,0.0,0.0,0.0,0.0,0.0,0.0,0.0,0.0,0.0,0.0,0.0,0.0,0.0,0.0,0.0,0.0,0.0,0.0,0.0,0.0,0.0,0.0,0.0,0.0,0.0,0.0,0.0,0.0,0.0,0.0,0.0,0.0,0.0,0.0,0.0,0.0,0.0,0.0,0.0,0.0,0.0,0.0,0.0,0.0,0.0,0.0,0.0,0.0,0.0,0.0,0.0,0.0,0.0,0.0,0.0,0.0,0.0,0.0,0.0,0.0,0.0,0.0,0.0,0.0,0.0,0.0,0.0,0.0,0.0,0.0,0.0,0.0,0.0,0.0,0.0,0.0,0.0,0.0,0.0,0.0,0.0,0.0,0.0,0.0,0.0,0.0,0.0,0.0,0.0,0.0,0.0,0.0,0.0,0.0,0.0,0.0,0.0,0.0,0.0,0.0,0.0,0.0,0.0,0.0,0.0,0.0,0.0,0.0,0.0,0.0,0.0,0.0,0.0,0.0,0.0,0.0,0.0,0.0,0.0,0.0,0.0,0.0,0.0,0.0,0.0,0.0,0.0,0.0,0.0,0.0,0.0,0.0,0.0,0.0,0.0,0.0,0.0,0.0,0.0,0.0,0.0,0.0,0.0,0.0,0.0,0.0,0.0,0.0,0.0,0.0,0.0,0.0,0.0,0.0,0.0,0.0,0.0,0.0,0.0,0.0,0.0,0.0,0.0,0.0,0.0,0.0,0.0,0.0,0.0,0.0,0.0,0.0,0.0,0.0,0.0,0.0,0.0,0.0,0.0,0.0,0.0,0.0,0.0,0.0,0.0,0.0,0.0,0.0,0.0,0.0,0.0,0.0,0.0,0.0,0.0,0.0,0.0,0.0,0.0,0.0,0.0,0.0,0.0,0.0,0.0,0.0,0.0,0.0,0.0,0.0,0.0,0.0,0.0,0.0,0.0,0.0,0.0,0.0,0.0,-0.3444,0.0,0.0,0.0,0.0,0.0,0.0,0.0,0.0,0.0,0.0,0.0,0.0,0.0,0.0,0.0,0.0,0.0,0.0,0.0,0.0,0.0,0.0,0.0,0.0,0.0,0.0,0.0,0.0,0.0,0.0,0.0,0.0,0.0,0.0,0.0,0.0,0.0,0.0,0.0,0.0,0.0,0.0,0.0,0.0,0.0,0.0,0.0,0.0,0.0,0.0,0.0,0.0,0.0,0.0,0.0,0.0,0.0,0.0,0.0,0.0,0.0,0.0,0.0,0.0,0.0,0.0,0.0,0.0,0.0,0.0,0.0,0.0,0.0,0.0,0.0,0.0,0.0,0.0,0.0,0.0,0.0,0.0,0.0,0.0,0.0,0.0,0.0,0.0,0.0,0.0,0.0,0.0,0.0,0.0,0.0,0.0,0.0,0.0,0.0,0.0,0.0,0.0,0.0,0.0,0.0,0.0,0.0,0.0,0.0,0.0,0.0,0.0,0.0,0.0,0.0,0.0,-0.4903,0.0,0.0,0.0,0.0,0.0,0.0,0.0,0.0,0.0,0.0,0.0,0.0,0.0,0.0,0.0,0.0,0.0,0.0,0.0,0.0,0.0,0.0,0.0,0.0,0.0,0.0,0.0,0.0,0.0,0.0,0.0,0.0,0.0,0.0,0.0,0.0,0.0,0.0,0.0,0.0,0.0,0.0,0.0,0.0,0.0,0.0,0.0,0.0,0.0,0.0,0.0,0.0,0.0,0.0,0.0,0.0,0.0,0.0,0.0,0.0,0.0,0.0,0.0,0.0,0.0,0.0,0.0,0.0,0.0,0.0,0.0,0.0,0.0,0.0,0.0,0.0,0.0,0.0,0.0,0.0,0.0,0.0,0.0,0.0,0.0,0.0,0.0,0.0,0.0,0.0,0.0,0.0,0.0,0.0,0.0,0.0,0.0,0.0,0.0,0.0,0.0,0.0,0.0,0.0,0.0,0.0,0.0,0.0,-0.7802,-0.8421,-0.8645,-0.8218,-0.75,-0.6715,-0.6537,-0.6264,-0.6173,0.0,0.0,0.0,0.0,0.0,0.0,0.0,0.0,0.0,0.0,0.0,0.0,0.0,0.0,0.0,0.0,0.0,0.0,0.0,0.0,0.0,0.0,0.0,0.0,0.0,0.0,0.0,0.0,0.0,0.0,0.0,0.0,0.0,0.0,0.0,0.0,0.0,0.0,0.0,0.9982,1.0034,0.9521,0.8489,0.0,0.0,0.0,0.0,0.0,0.0,0.0,0.0,0.0,0.0,0.0,0.0,0.0,0.0,0.0,0.0,0.0,0.0,0.0,0.0,0.0,0.0,0.0,0.0,0.0,0.0,0.0,0.0,0.0,0.0,0.0,0.0,0.0,0.0,0.0,0.0,0.0,0.0,0.0,0.0,0.0,0.0,0.0,0.0,0.7764,0.632,0.0,0.0,0.0,0.0,0.0,0.0,0.0,0.0,0.0,0.0,0.0,0.0,0.0,-0.1241,-0.3884,-0.4336,-0.5953,-0.852,-0.7638,-0.7867,-0.9148,-0.6376,-0.5687,-0.6844,-0.6802,0.0,-0.6519,-0.7731,0.0,0.0,0.0,0.0,0.0,0.0,0.0,0.0,0.0,0.0,0.0,0.0,0.0,0.0,0.0,0.0,0.0,0.0,0.0,0.0,0.0,0.0,0.0,0.0,0.0,0.0,0.0,0.0,0.0,0.0,0.0,0.0,0.0,0.0,0.0,0.0,1.1884,1.1474,1.1333,1.0927,1.0484,1.0143,0.8574,0.6746,0.4926,0.5389,0.0,0.0,0.0,0.0,0.0,0.0,0.0,0.0,0.0,0.0,0.0,0.0,0.0,0.0,0.0,0.0,0.0,0.0,0.0,0.0,0.0,0.0,0.0,0.0,0.0,0.0,0.0,0.0,0.0,0.0,0.0,0.0,0.0,0.0,0.0,0.0,0.0,0.0,0.0,1.0111,0.9227,0.7327,0.7217,0.7096,0.0,0.0,0.0,0.0,0.0,0.0,0.0,0.0,0.0,0.0,0.0,-0.0983,-0.3104,-0.3178,-0.4383,-0.6517,-0.5898,-0.6057,-0.6771,-0.5347,-0.5084,-0.5743,-0.5743,-0.6194,-0.6848,-0.8072,-0.8289,-0.7926,0.0,0.0,0.0,0.0,-0.76,-0.7785,0.0,0.0,0.0,0.0,0.0,0.0,0.0,0.0,0.0,0.0,0.0,0.0,0.0,0.0,0.0,1.5559,0.0,0.0,0.0,0.0,0.0,0.0,0.0,0.0,0.0,0.0,0.0,0.0,1.3523,1.322,1.3334,1.2711,1.2412,1.2516,1.2839,1.0747,0.7042,0.7897,0.6817,0.0,0.0,0.0,0.0,0.0,0.0,0.0,0.0,0.0,0.0,0.0,0.0,0.0,0.0,0.0,0.0,0.0,0.0,0.0,0.0,0.0,0.0,0.0,0.0,0.0,0.0,0.0,0.0,0.0,0.0,0.0,0.0,0.0,0.0,0.0,0.0,0.0,0.0,1.055,1.0457,0.8258,0.8381,0.8333,0.0,0.0,0.0,0.0,0.0,0.0,0.1899,0.0649,0.0,0.0,0.0,-0.0694,-0.2218,-0.2245,-0.3107,-0.4711,-0.4332,-0.4443,-0.4922,-0.4067,-0.3916,-0.434,-0.434,-0.4995,-0.6389,-0.7651,-0.8226,-0.8194,-0.8004,-0.7865,-0.7767,-0.7726,-0.7712,-0.7917,0.0,0.0,0.0,0.0,0.0,0.0,0.0,0.0,0.0,0.0,0.0,0.0,0.0,0.0,1.4911,1.58,1.5078,1.4254,0.0,0.0,0.0,0.0,0.0,0.0,0.0,0.0,0.0,1.6237,1.6411,1.6565,1.6854,1.7107,1.7275,1.7307,1.7634,1.5094,1.0529,1.0454,0.9611,0.8256,0.0,0.0,0.0,0.0,0.0,0.0,0.0,0.0,0.0,0.0,0.0,0.0,0.0,0.0,0.0,0.0,0.0,0.0,0.0,0.0,0.0,0.0,0.0,0.0,0.0,0.0,0.0,0.0,0.0,0.0,0.0,0.0,0.0,0.0,0.0,0.0,0.0,0.0,0.0,0.8807,0.9184,0.0,0.0,0.0,0.0,0.6103,0.4826,0.35,0.1895,0.0691,0.0,0.0,0.0,-0.086,-0.2454,-0.2456,-0.3315,-0.4911,-0.339,-0.3365,-0.4802,-0.1659,-0.106,-0.2584,-0.2584,-0.3371,-0.4683,-0.6177,-0.7503,-0.8648,-0.836,-0.8241,-0.8218,-0.8072,-0.8018,-0.8312,0.0,0.0,0.0,0.0,0.0,0.0,0.0,0.0,0.0,0.0,0.0,0.0,0.0,1.7014,1.7015,1.7113,1.6753,1.605,1.4985,0.0,0.0,0.0,0.0,0.0,0.0,0.0,1.6776,1.7234,1.6589,1.6338,1.639,1.6521,1.6578,1.6602,1.696,1.6203,1.4599,1.43,1.2794,1.0641,1.0346,0.8993,0.0,0.0,0.0,0.0,0.0,0.0,0.0,0.0,0.0,0.0,0.0,0.0,0.0,0.0,0.0,0.0,0.0,0.0,0.0,0.0,0.0,0.0,0.0,0.0,0.0,0.0,0.0,0.0,0.0,0.0,0.0,0.0,0.0,0.0,0.0,0.0,0.0,0.9267,0.9588,0.0,0.9052,0.9035,0.7924,0.5205,0.4714,0.3393,0.0835,0.0241,0.0,0.0,0.0,-0.0247,-0.0863,-0.0855,-0.1215,-0.1699,-0.1196,-0.118,-0.1751,-0.0581,-0.0346,-0.0912,-0.0903,-0.2235,-0.4317,-0.4897,-0.6457,-0.8554,-0.8448,-0.8289,-0.8116,-0.8058,-0.8038,-0.8333,0.0,0.0,0.0,0.0,0.0,0.0,0.0,0.0,0.0,0.0,0.0,1.8552,1.8639,1.8521,1.8553,1.8766,1.83,1.7627,1.6779,0.0,0.0,0.0,0.0,0.0,0.0,1.8893,1.8627,1.9136,1.8005,1.756,1.7761,1.7342,1.7297,1.7505,1.7842,1.809,1.8145,1.7907,1.61,1.3509,1.3358,1.228,1.0759,0.0,0.0,0.0,0.0,0.0,0.0,0.0,0.0,0.0,0.0,0.0,0.0,0.0,0.0,0.0,0.0,0.0,0.0,0.0,0.0,0.0,0.0,0.0,0.0,0.0,0.0,0.0,0.0,0.0,0.0,0.0,0.0,0.0,0.0,0.0,1.0469,1.0301,1.0225,0.9985,0.9432,0.9564,0.857,0.5761,0.5115,0.3689,0.0986,0.0249,0.0,0.0,0.0,0.0,0.0,0.0,0.0,0.0,0.0,0.0,0.0,0.0,0.0,0.0,0.0,-0.1633,-0.4206,-0.4158,-0.5915,-0.8411,-0.8411,-0.8292,-0.8109,-0.8058,-0.8038,-0.8333,0.0,0.0,0.0,0.0,0.0,0.0,0.0,0.0,0.0,0.0,1.9633,1.9845,2.0106,1.9344,1.9321,2.0643,1.9689,1.894,1.8635,1.8967,0.0,0.0,0.0,0.0,2.1218,2.1185,2.1364,2.1842,2.0874,2.064,2.1085,2.0065,1.9887,2.0353,2.0742,2.0964,2.0963,2.1013,1.9474,1.7044,1.6991,1.6081,1.4719,0.0,0.0,0.0,0.0,0.0,0.0,0.0,0.0,0.0,0.0,0.0,0.0,0.0,0.0,0.0,0.0,0.0,0.0,0.0,0.0,0.0,0.0,0.0,0.0,0.0,0.0,0.0,0.0,0.0,0.0,0.0,0.0,0.0,1.1283,1.0493,1.0395,1.1962,1.1159,1.0455,1.0012,1.0114,0.9583,0.7801,0.611,0.431,0.2591,0.0888,0.0,0.0,0.0,0.0,0.0,0.0,0.0,0.0,0.0,0.0,0.0,0.0,0.0,0.0,0.0,-0.162,-0.4133,-0.4131,-0.5765,-0.8262,-0.8269,-0.8269,-0.8245,-0.8096,-0.8038,-0.8432,0.0,0.0,0.0,0.0,0.0,0.0,0.0,0.0,0.0,0.0,2.0604,2.067,2.0742,2.0575,2.037,2.0243,2.0089,1.9602,1.8578,0.0,0.0,0.0,0.0,0.0,2.1753,2.0699,2.0172,2.0253,1.9621,1.9388,1.951,1.9243,1.9188,1.9321,1.9454,1.9647,2.0023,2.0424,2.0322,1.9757,1.8536,1.7123,1.5896,0.0,0.0,0.0,0.0,0.0,0.0,0.0,0.0,0.0,0.0,0.0,0.0,0.0,0.0,0.0,0.0,0.0,0.0,0.0,0.0,0.0,0.0,0.0,0.0,0.0,0.0,0.0,0.0,0.0,0.0,0.0,0.0,1.1762,1.1938,1.3108,1.4099,1.4712,1.3474,1.2544,1.2395,1.1213,0.9635,0.7909,0.6123,0.4284,0.263,0.0875,0.0,0.0,0.0,0.0,0.0,0.0,0.0,0.0,0.0,0.0,0.0,0.0,0.0,0.0,0.0,-0.0944,-0.2706,-0.3693,-0.5082,-0.6693,-0.7814,-0.8201,-0.8099,-0.8055,-0.8627,-0.9686,0.0,0.0,0.0,0.0,0.0,0.0,0.0,0.0,0.0,0.0,2.1794,2.1921,2.207,2.1736,2.148,2.1409,2.1136,2.0667,2.0,0.0,0.0,0.0,0.0,2.2031,2.2577,2.14,2.0791,2.0791,1.9982,1.9728,1.9934,1.9485,1.9563,2.0043,2.0043,2.0336,2.0909,2.1944,2.2111,2.1624,2.142,2.0358,1.9036,1.911,1.8239,1.6946,1.6933,1.5827,1.4273,1.3487,0.0,0.0,0.0,0.0,0.0,0.0,0.0,0.0,0.0,0.0,0.0,0.0,0.0,0.0,0.0,0.0,0.0,0.0,0.0,0.0,0.0,0.0,0.0,0.0,1.2891,1.4028,1.436,1.5034,1.5867,1.6775,1.4747,1.3172,1.3096,1.1471,0.9986,0.8768,0.6465,0.4635,0.3616,0.1231,0.0,0.0,0.0,0.0,0.0,0.0,0.0,0.0,0.0,0.0,0.0,0.0,0.0,0.0,0.0,-0.1032,-0.2858,-0.3632,-0.512,0.0,0.0,0.0,0.0,0.0,-0.8531,-0.9288,0.0,0.0,0.0,0.0,0.0,0.0,0.0,0.0,0.0,0.0,0.0,2.3266,2.3588,2.2829,2.2557,2.3323,2.2378,2.1825,0.0,0.0,0.0,2.3472,2.3036,2.2958,2.3451,2.2719,2.2324,2.2269,2.1194,2.09,2.1362,2.0381,2.0495,2.1484,2.1553,2.1883,2.2517,2.42,2.4036,2.2877,2.4608,2.4242,2.2715,2.2936,2.2082,2.0851,2.0597,1.9465,1.7993,1.7074,0.0,0.0,0.0,0.0,0.0,0.0,0.0,0.0,0.0,0.0,0.0,0.0,0.0,0.0,0.0,0.0,0.0,0.0,0.0,0.0,0.0,0.0,0.0,0.0,1.5526,1.7152,1.7643,1.6769,1.6686,1.8209,1.5544,1.3449,1.3031,1.1507,1.0447,1.0059,0.7142,0.5227,0.4908,0.0,0.0,0.0,0.0,0.0,0.0,0.0,0.0,0.0,0.0,0.0,0.0,0.0,0.0,0.0,0.0,-0.1432,-0.3815,-0.3915,-0.562,-0.8038,-0.8038,-0.8038,-0.8038,-0.8038,-0.8028,-0.8188,0.0,0.0,0.0,0.0,0.0,0.0,0.0,0.0,0.0,2.3316,2.3401,2.35,2.3744,2.3432,2.33,2.3472,2.2579,2.2049,0.0,0.0,2.3374,2.4759,2.409,2.3754,2.3963,2.2658,2.1772,2.1336,2.1131,2.1073,2.1148,2.0942,2.0765,2.0641,2.1179,2.1338,2.1236,2.2559,2.3193,2.3487,2.4714,2.4179,2.276,2.3234,2.3205,2.3021,2.3317,2.2288,2.0756,2.0575,1.9388,1.7992,1.7064,0.0,0.0,0.0,0.0,0.0,0.0,0.0,0.0,0.0,0.0,0.0,0.0,0.0,0.0,0.0,0.0,0.0,0.0,0.0,0.0,1.5409,1.6476,1.7726,1.9134,1.935,1.944,1.9813,1.7936,1.6172,1.4883,1.3128,1.1433,1.0049,0.8066,0.6368,0.495,0.3011,0.0,0.0,0.0,0.0,0.0,0.0,0.0,0.0,0.0,0.0,0.0,0.0,0.0,0.0,0.0,-0.091,-0.2514,-0.3515,-0.562,-0.8038,-0.8038,-0.8038,-0.8038,-0.8038,-0.7963,-0.8025,0.0,0.0,0.0,0.0,0.0,0.0,0.0,0.0,0.0,0.0,2.3897,2.4008,2.4273,2.4118,2.3931,2.3757,2.3082,0.0,0.0,2.3505,2.3998,2.5479,2.4329,2.3697,2.3766,2.2568,2.1892,2.176,2.1281,2.1162,2.1311,2.1126,2.1109,2.1235,2.1955,2.2335,2.2551,2.3865,2.4246,2.4066,2.5197,2.4946,2.4039,2.4487,2.4723,2.472,2.4603,2.4095,2.3491,2.29,2.229,2.1466,1.9974,1.8717,1.7556,0.0,0.0,0.0,0.0,0.0,0.0,0.0,0.0,0.0,0.0,0.0,0.0,0.0,0.0,1.4334,0.0,0.0,1.5986,1.7338,1.804,1.8583,1.9442,1.9579,1.9686,1.998,1.853,1.6878,1.5059,1.3377,1.163,1.0057,0.8201,0.6895,0.6005,0.3668,0.199,0.1162,0.0343,0.0,0.0,0.0,0.0,0.0,0.0,0.0,0.0,0.0,0.0,0.0,0.0,-0.0807,-0.2113,-0.4219,-0.6226,-0.8038,-0.8038,-0.8038,-0.8031,-0.7953,-0.7875,-0.7873,0.0,0.0,0.0,0.0,0.0,0.0,0.0,0.0,0.0,0.0,0.0,2.455,2.4869,2.4682,2.4388,0.0,0.0,0.0,0.0,2.4444,2.4514,2.5773,2.4377,2.3551,2.3551,2.2685,2.2355,2.2578,2.1793,2.1559,2.1802,2.1559,2.1756,2.2378,2.3025,2.3648,2.4317,2.5502,2.5587,2.4957,2.5794,2.6061,2.5879,2.5968,2.6125,2.6194,2.5611,2.5592,2.5735,2.4762,2.4698,2.4556,2.2485,2.1627,2.0902,1.8785,1.8079,0.0,0.0,0.0,0.0,0.0,0.0,0.0,0.0,0.0,1.6001,1.5176,1.5976,1.6695,1.6518,1.7386,1.839,1.8925,1.9212,1.9352,1.9292,1.9078,1.9078,1.9499,1.85,1.6883,1.479,1.3384,1.1856,0.994,0.8471,0.743,0.7169,0.4521,0.2846,0.2271,0.1007,0.022,0.0,0.0,0.0,0.0,0.0,0.0,0.0,0.0,0.0,0.0,-0.0504,-0.141,-0.2615,-0.5325,-0.7033,-0.8038,-0.8038,-0.8038,-0.8024,-0.7899,-0.7821,-0.7736,0.0,0.0,0.0,0.0,0.0,0.0,0.0,0.0,0.0,0.0,0.0,0.0,0.0,0.0,0.0,0.0,0.0,0.0,2.4456,2.4953,2.535,2.5552,2.4682,2.4191,2.4191,2.3463,2.3077,2.3109,2.3014,2.2961,2.3003,2.2961,2.3196,2.3615,2.3921,2.433,2.4757,2.5153,2.5935,2.6915,2.6525,2.7103,2.8012,2.689,2.6958,2.7746,2.7394,2.7031,2.6698,2.6316,2.588,2.5315,2.4116,2.3303,2.2342,2.0016,0.0,1.7138,1.6086,1.6458,1.7456,1.8637,1.8864,1.8991,0.0,0.0,1.8926,1.8171,1.8313,1.8546,1.8526,1.8685,1.8931,1.9265,1.9345,1.9279,1.9011,1.8945,1.8851,1.8664,1.8745,1.7594,1.4528,1.4247,1.3048,1.0061,0.9447,0.871,0.7173,0.6497,0.5006,0.2306,0.1943,0.1167,0.0,0.0,0.0,0.0,0.0,0.0,0.0,0.0,0.0,-0.0101,-0.2514,-0.3615,-0.4016,-0.6628,-0.7839,-0.8038,-0.8038,-0.8038,-0.8038,-0.8021,-0.7848,-0.7617,0.0,0.0,0.0,0.0,0.0,0.0,0.0,0.0,0.0,0.0,0.0,0.0,0.0,0.0,0.0,0.0,0.0,0.0,2.5982,2.5852,2.5999,2.6458,2.4978,2.4133,2.4133,2.3517,2.33,2.35,2.33,2.3531,2.4198,2.3975,2.4244,2.4883,2.5457,2.608,2.6688,2.7257,2.7739,2.8213,2.7981,2.8121,2.8463,2.7864,2.8187,2.8713,2.6802,2.6244,0.0,0.0,2.5335,2.5077,2.4566,2.3524,2.2139,2.0705,1.9621,0.0,1.846,1.7983,1.7953,0.0,1.9879,2.019,2.0704,2.1067,2.1257,2.1309,2.1605,2.1504,2.0615,2.0501,2.0216,0.0,1.9366,1.9265,1.8965,1.8631,1.8303,1.8003,1.823,1.7285,1.4456,1.423,1.2988,0.9926,0.9479,0.9046,0.8216,0.7135,0.6004,0.4612,0.3621,0.2528,0.114,0.114,0.0822,0.0,0.0,0.0,0.0,0.0,0.0,-0.0101,-0.1209,-0.2514,-0.4116,-0.522,-0.6583,-0.7906,-0.7906,-0.7855,-0.7784,-0.7784,-0.7706,-0.7573,0.0,0.0,0.0,0.0,0.0,0.0,0.0,0.0,0.0,0.0,0.0,0.0,0.0,0.0,0.0,0.0,0.0,0.0,0.0,2.6541,2.6597,2.7201,2.5515,2.4542,2.4542,2.3961,2.3834,2.4249,2.4024,2.4396,2.5361,2.5195,2.5636,2.6676,2.7204,2.8041,2.906,2.9625,2.9942,3.0023,2.9877,2.9798,2.975,2.9279,2.9173,2.9019,2.6803,2.6015,0.0,0.0,2.4848,2.4742,2.4237,2.3216,2.2029,2.0828,2.0012,1.9435,1.9882,0.0,0.0,2.0279,2.1081,2.1527,2.1919,2.2282,2.2823,2.3228,2.35,2.3373,2.2348,2.1919,2.1252,2.0148,1.9707,1.9239,1.8858,1.8364,1.7929,1.7615,1.7709,1.6945,1.4916,1.4307,1.2804,0.9773,0.9303,0.911,0.9001,0.7786,0.6874,0.6361,0.5145,0.3948,0.2565,0.2156,0.1531,0.0504,0.0202,0.0,0.0,0.0,0.0,0.0,-0.0403,-0.1607,-0.3488,-0.4185,-0.5632,-0.7318,-0.7574,-0.7689,-0.7594,-0.7553,-0.7536,-0.7506,0.0,0.0,0.0,0.0,0.0,0.0,0.0,0.0,0.0,0.0,0.0,0.0,0.0,0.0,0.0,0.0,0.0,0.0,0.0,2.6733,2.7201,2.7289,2.6408,2.594,2.594,2.5152,2.503,2.5633,2.5633,2.5949,2.6536,2.6747,2.7718,2.9285,2.9153,3.0031,3.1598,3.1751,3.2224,3.2835,3.2288,3.2523,3.2951,3.1214,2.9757,2.8616,2.8334,0.0,0.0,0.0,2.4946,2.4511,2.29,2.2604,0.0,2.0413,1.898,0.0,0.0,0.0,2.0917,2.2639,2.3397,2.3664,2.351,2.3484,2.3428,2.3286,2.3193,2.3308,2.3645,2.2589,2.1586,2.1586,2.0364,1.9165,1.8584,1.8237,1.7929,1.7615,1.7341,1.6871,0.0,1.5052,1.3012,0.9627,0.9242,0.915,0.9147,0.8726,0.7849,0.6571,0.6152,0.5331,0.3919,0.2616,0.2014,0.1913,0.0605,0.0,0.0,0.0,0.0,-0.0098,-0.1399,-0.1992,-0.2251,-0.4689,-0.5764,-0.5945,-0.7181,-0.7604,-0.7584,-0.7434,-0.738,-0.7377,0.0,0.0,0.0,0.0,0.0,0.0,0.0,0.0,0.0,0.0,0.0,0.0,0.0,0.0,0.0,0.0,0.0,0.0,0.0,2.7333,2.7546,2.6985,2.7113,2.693,2.6333,2.6465,2.6896,2.7694,2.7414,2.7958,2.9254,2.9319,3.0281,3.1996,3.2138,3.3141,3.4741,3.4699,3.5305,3.6123,3.455,3.4394,3.4794,3.1841,3.0378,2.9766,0.0,0.0,0.0,0.0,2.3554,2.319,2.3343,2.2919,0.0,1.964,1.8745,1.8711,2.0,0.0,2.1787,2.3223,2.3691,2.3962,2.446,2.4583,2.4664,2.5238,2.4886,2.4318,2.3677,2.3228,2.2678,2.1862,2.1861,2.1532,2.0427,2.0012,1.9298,1.7741,1.7849,0.0,0.0,0.0,0.0,1.1073,0.9621,0.871,0.871,0.8476,0.8087,0.7474,0.7381,0.6731,0.5322,0.4922,0.4219,0.3316,0.2012,0.131,0.1309,0.0398,0.0,0.0,-0.0487,-0.1161,-0.2113,-0.3833,-0.4944,-0.5815,-0.6894,-0.7238,-0.7136,-0.6983,-0.6926,-0.6939,0.0,0.0,0.0,0.0,0.0,0.0,0.0,0.0,0.0,0.0,0.0,0.0,0.0,0.0,0.0,0.0,0.0,0.0,0.0,0.0,2.7521,2.7282,2.7686,2.7647,2.7078,2.7422,2.7946,2.8662,2.8642,2.9266,3.0457,3.0949,3.2147,3.3878,3.4237,3.5353,3.7024,3.7134,3.7255,3.7262,3.6136,3.5532,3.5004,3.252,3.1166,0.0,0.0,0.0,0.0,2.3484,2.2968,2.2369,2.2694,2.2261,2.1396,2.0037,1.9758,2.0215,2.1828,2.2687,2.335,2.445,2.4748,2.4944,2.5684,2.5493,2.5488,2.6294,2.549,2.4494,2.4175,2.3465,2.2902,2.2274,2.2424,2.2116,2.0835,2.036,1.9539,1.8124,1.8063,0.0,0.0,0.0,0.0,1.1664,0.9779,0.8676,0.857,0.8425,0.8279,0.8126,0.8069,0.7537,0.6734,0.6232,0.5322,0.4016,0.2614,0.2005,0.1992,0.0592,0.0,0.0,0.0,-0.0474,-0.1412,-0.2612,-0.3783,-0.4908,-0.6002,-0.6579,-0.6834,-0.6736,-0.6664,-0.6641,0.0,0.0,0.0,0.0,0.0,0.0,0.0,0.0,0.0,0.0,0.0,0.0,0.0,0.0,0.0,0.0,0.0,0.0,0.0,0.0,0.0,2.7943,2.8057,2.8101,2.8115,2.808,2.828,2.8736,2.9366,2.9884,3.0312,3.163,3.3182,3.4932,3.5415,3.6636,3.8325,3.884,3.8085,3.6594,3.7043,3.6021,3.4082,3.324,0.0,0.0,0.0,0.0,0.0,0.0,0.0,0.0,0.0,2.1166,2.1327,2.1663,2.206,2.2759,2.4653,2.5194,2.5442,2.6318,2.6461,2.6561,2.697,2.6228,2.5711,2.6378,2.5058,2.4016,0.0,0.0,2.2393,2.2795,2.2144,2.1234,2.0363,1.9665,1.9109,0.0,0.0,0.0,0.0,0.0,0.0,1.1529,0.0,0.9099,0.8821,0.8547,0.8397,0.8262,0.8116,0.8038,0.8038,0.6725,0.542,0.4216,0.2809,0.2089,0.2054,0.0685,0.0,0.0,0.0,0.0,-0.0092,-0.1261,-0.2319,-0.3372,-0.4587,-0.5676,-0.6592,-0.6668,-0.6569,-0.6458,0.0,0.0,0.0,0.0,0.0,0.0,0.0,0.0,0.0,0.0,0.0,0.0,0.0,0.0,0.0,0.0,0.0,0.0,0.0,0.0,0.0,0.0,0.0,0.0,0.0,0.0,0.0,0.0,0.0,3.0845,3.1411,3.2344,3.3543,3.4936,3.5848,3.7035,3.8305,3.8394,3.8504,3.8511,0.0,3.6427,3.6344,0.0,0.0,0.0,0.0,0.0,0.0,0.0,0.0,0.0,0.0,2.5243,2.5021,2.4486,2.4383,2.4529,2.5036,2.5352,2.5688,2.6315,2.6192,2.5965,2.6539,2.6412,2.5961,2.5009,2.419,2.3278,0.0,0.0,0.0,2.3877,2.4852,0.0,2.4628,2.3361,0.0,2.0656,0.0,1.8744,1.8317,1.7086,0.0,0.0,1.1622,1.016,1.0197,0.8896,0.8136,0.8099,0.8062,0.8038,0.8038,0.753,0.7229,0.6927,0.4491,0.339,0.3419,0.1046,0.0,0.0,0.0,0.0,-0.0088,-0.1292,-0.1961,-0.238,-0.4212,-0.509,-0.532,-0.5928,-0.6105,-0.5979,0.0,0.0,0.0,0.0,0.0,0.0,0.0,0.0,0.0,0.0,0.0,0.0,0.0,0.0,0.0,0.0,0.0,0.0,0.0,0.0,0.0,0.0,0.0,0.0,0.0,0.0,0.0,0.0,0.0,0.0,0.0,3.1311,3.2651,3.3913,3.5032,3.6315,3.7641,0.0,0.0,0.0,0.0,0.0,0.0,0.0,0.0,0.0,0.0,0.0,0.0,0.0,0.0,2.7428,2.7845,2.7615,2.7149,2.7139,0.0,2.6534,2.6759,2.6943,2.7148,2.7455,2.7301,2.703,2.6889,2.6453,2.5699,2.4425,2.3438,0.0,0.0,0.0,0.0,0.0,0.0,0.0,2.5267,2.4508,2.3261,0.0,2.0482,0.0,1.829,1.7501,1.6714,0.0,1.3268,1.1191,1.0527,0.9524,0.8696,0.8041,0.8038,0.8038,0.8038,0.7828,0.7794,0.7838,0.5676,0.4656,0.4571,0.1958,0.0824,0.0719,0.0,0.0,-0.0086,-0.0744,-0.1303,-0.1866,-0.2978,-0.3679,-0.4082,-0.4546,-0.4919,-0.5209,0.0,0.0,0.0,0.0,0.0,0.0,0.0,0.0,0.0,0.0,0.0,0.0,0.0,0.0,0.0,0.0,0.0,0.0,0.0,0.0,0.0,0.0,0.0,0.0,0.0,0.0,0.0,0.0,0.0,0.0,0.0,0.0,0.0,0.0,0.0,0.0,0.0,0.0,0.0,0.0,0.0,0.0,0.0,0.0,0.0,0.0,0.0,0.0,0.0,0.0,3.1902,2.9415,2.9803,2.9389,2.8839,2.9525,2.9145,2.8558,2.8913,2.8938,2.885,2.9001,2.8875,2.8461,2.7507,2.6528,2.5432,2.4105,0.0,2.2169,2.1734,2.2537,2.3113,2.266,0.0,2.4939,2.461,2.4533,2.3722,2.1892,2.1167,2.0201,1.881,1.7996,1.7535,1.7422,1.4947,1.267,1.0887,1.0536,0.9858,0.8531,0.8117,0.8107,0.8202,0.7811,0.7641,0.778,0.6275,0.5596,0.5507,0.2932,0.1793,0.1725,0.0,0.0,0.0,0.0,-0.0544,-0.1392,-0.1554,-0.2103,-0.289,-0.3035,-0.36,-0.4217,0.0,0.0,0.0,0.0,0.0,0.0,0.0,0.0,0.0,0.0,0.0,0.0,0.0,0.0,0.0,0.0,0.0,0.0,0.0,0.0,0.0,0.0,0.0,0.0,0.0,0.0,0.0,0.0,0.0,0.0,0.0,0.0,0.0,0.0,0.0,0.0,0.0,0.0,0.0,0.0,0.0,0.0,0.0,0.0,0.0,0.0,0.0,0.0,0.0,0.0,3.4564,3.3579,3.3423,3.3173,3.265,3.132,3.0816,3.0485,2.9821,2.8963,2.8473,2.9415,2.8599,2.7519,2.7318,2.7139,0.0,0.0,0.0,2.3593,2.0796,2.1638,2.2866,2.3004,0.0,0.0,0.0,0.0,2.5076,0.0,0.0,0.0,0.0,0.0,0.0,0.0,0.0,1.5115,1.3667,1.2294,1.1497,1.1268,0.8975,0.833,0.9477,0.8109,0.7489,0.7631,0.6159,0.5407,0.5384,0.2912,0.1729,0.1599,0.0488,0.0,0.0,0.0,-0.0074,-0.0369,-0.1241,-0.1578,-0.1688,-0.26,-0.2979,-0.2986,0.0,0.0,0.0,0.0,0.0,0.0,0.0,0.0,0.0,0.0,0.0,0.0,0.0,0.0,0.0,0.0,0.0,0.0,0.0,0.0,0.0,0.0,0.0,0.0,0.0,0.0,0.0,0.0,0.0,0.0,0.0,0.0,0.0,0.0,0.0,0.0,0.0,0.0,0.0,0.0,0.0,0.0,0.0,0.0,0.0,0.0,0.0,0.0,0.0,0.0,3.6038,3.5705,3.5536,3.506,3.433,3.3073,3.196,3.1053,3.0284,2.93,2.8662,2.9214,2.8524,2.7406,2.6264,0.0,0.0,0.0,2.3118,2.3418,2.1585,0.0,0.0,0.0,0.0,0.0,0.0,0.0,0.0,0.0,0.0,0.0,0.0,0.0,0.0,0.0,0.0,1.5448,1.4158,1.256,1.1617,1.1502,1.0081,0.938,0.9571,0.8667,0.7956,0.7475,0.6637,0.6153,0.606,0.3696,0.2608,0.2383,0.0717,0.0,0.0,0.0,0.0,-0.0071,-0.0563,-0.0694,-0.0686,-0.1233,-0.1628,-0.1938,0.0,0.0,0.0,0.0,0.0,0.0,0.0,0.0,0.0,0.0,0.0,0.0,0.0,0.0,0.0,0.0,0.0,0.0,0.0,0.0,0.0,0.0,0.0,0.0,0.0,0.0,0.0,0.0,0.0,0.0,0.0,0.0,0.0,0.0,0.0,0.0,0.0,0.0,0.0,0.0,0.0,0.0,0.0,0.0,0.0,0.0,0.0,0.0,0.0,0.0,3.624,3.6039,3.5974,3.5661,3.503,3.3732,3.2654,3.1648,3.0798,2.9883,2.9176,2.9076,2.8511,2.7381,2.5297,2.482,0.0,0.0,2.2472,2.3096,2.2488,0.0,2.3755,0.0,0.0,0.0,0.0,0.0,0.0,0.0,0.0,0.0,0.0,0.0,0.0,0.0,0.0,0.0,1.4272,1.2692,1.1822,1.1919,1.124,1.058,1.0012,0.9451,0.864,0.7717,0.735,0.7031,0.6743,0.4694,0.3524,0.3187,0.1169,0.0,0.0,0.0,0.0,0.0,0.0,0.0,0.0,0.0,-0.0465,-0.1052,0.0,0.0,0.0,0.0,0.0,0.0,0.0,0.0,0.0,0.0,0.0,0.0,0.0,0.0,0.0,0.0,0.0,0.0,0.0,0.0,0.0,0.0,0.0,0.0,0.0,0.0,0.0,0.0,0.0,0.0,0.0,0.0,0.0,0.0,0.0,0.0,0.0,0.0,0.0,0.0,0.0,0.0,0.0,0.0,0.0,0.0,0.0,0.0,0.0,0.0,0.0,3.3989,3.3999,3.4635,3.4897,3.2159,0.0,0.0,3.1616,3.0671,3.0202,2.9796,2.8524,2.6917,2.5209,0.0,0.0,2.1945,2.2786,2.3517,2.2219,2.246,2.2764,0.0,0.0,0.0,0.0,0.0,0.0,0.0,0.0,0.0,0.0,0.0,0.0,0.0,0.0,0.0,1.5233,1.375,1.3411,1.4591,1.2143,1.1311,1.248,1.0872,0.9569,0.8572,0.8205,0.7539,0.6512,0.5283,0.4124,0.3035,0.1924,0.0,0.0,0.0,0.0,0.0,0.0,0.0,0.0,0.0,-0.0064,-0.0125,0.0,0.0,0.0,0.0,0.0,0.0,0.0,0.0,0.0,0.0,0.0,0.0,0.0,0.0,0.0,0.0,0.0,0.0,0.0,0.0,0.0,0.0,0.0,0.0,0.0,0.0,0.0,0.0,0.0,0.0,0.0,0.0,0.0,0.0,0.0,0.0,0.0,0.0,0.0,0.0,0.0,0.0,0.0,0.0,0.0,0.0,0.0,0.0,0.0,0.0,0.0,0.0,3.1596,3.1813,0.0,0.0,3.2713,3.2849,3.2905,3.2299,3.1546,3.0856,2.9152,2.7149,2.5239,0.0,2.3364,2.1807,2.2548,2.328,2.2739,2.3083,2.3268,0.0,0.0,0.0,0.0,0.0,0.0,0.0,0.0,0.0,0.0,0.0,0.0,0.0,0.0,0.0,1.5262,1.4203,1.3741,1.3921,1.2856,1.22,1.2022,1.1325,1.008,0.8438,0.8062,0.7415,0.6339,0.5078,0.4206,0.3681,0.2081,0.0,0.0,0.0862,0.0649,0.0639,0.0639,0.0381,0.0,0.0,0.0,0.0,0.0,0.0,0.0,0.0,0.0,0.0,0.0,0.0,0.0,0.0,0.0,0.0,0.0,0.0,0.0,0.0,0.0,0.0,0.0,0.0,0.0,0.0,0.0,0.0,0.0,0.0,0.0,0.0,0.0,0.0,0.0,0.0,0.0,0.0,0.0,0.0,0.0,0.0,0.0,0.0,0.0,0.0,0.0,0.0,0.0,0.0,0.0,0.0,0.0,0.0,0.0,0.0,0.0,0.0,0.0,0.0,3.1747,3.1937,3.2535,3.2401,3.196,3.1044,2.9112,2.6985,0.0,0.0,2.2874,2.1933,2.2623,2.3439,2.3602,2.3841,2.3804,0.0,0.0,0.0,0.0,0.0,0.0,0.0,0.0,0.0,0.0,0.0,0.0,0.0,0.0,0.0,0.0,1.4431,1.3769,1.322,1.3213,1.2797,1.1976,1.1818,1.0779,0.895,0.8623,0.7763,0.6493,0.5482,0.4708,0.4036,0.0,0.0,0.0,0.1729,0.1442,0.1415,0.117,0.0796,0.0304,0.0061,0.0,0.0,0.0,0.0,0.0,0.0,0.0,0.0,0.0,0.0,0.0,0.0,0.0,0.0,0.0,0.0,0.0,0.0,0.0,0.0,0.0,0.0,0.0,0.0,0.0,0.0,0.0,0.0,0.0,0.0,0.0,0.0,0.0,0.0,0.0,0.0,0.0,0.0,0.0,0.0,0.0,0.0,0.0,0.0,0.0,0.0,0.0,0.0,0.0,0.0,0.0,0.0,0.0,0.0,0.0,0.0,0.0,0.0,2.9199,3.0812,2.98,3.0381,3.097,3.0075,2.8182,2.6231,0.0,0.0,2.2975,2.2422,2.3201,2.4155,2.4707,2.4356,2.4004,2.4004,0.0,0.0,0.0,0.0,0.0,0.0,0.0,0.0,0.0,0.0,0.0,0.0,0.0,0.0,0.0,1.4363,1.3554,1.3193,1.3213,1.3206,1.3206,1.2612,1.1781,1.0789,1.0124,0.8904,0.7078,0.6957,0.5819,0.0,0.0,0.0,0.0,0.2213,0.2213,0.2089,0.1415,0.1087,0.0999,0.0294,0.0,0.0,0.0,0.0,0.0,0.0,0.0,0.0,0.0,0.0,0.0,0.0,0.0,0.0,0.0,0.0,0.0,0.0,0.0,0.0,0.0,0.0,0.0,0.0,0.0,0.0,0.0,0.0,0.0,0.0,0.0,0.0,0.0,0.0,0.0,0.0,0.0,0.0,0.0,0.0,0.0,0.0,0.0,0.0,0.0,0.0,0.0,0.0,0.0,0.0,0.0,0.0,0.0,0.0,0.0,0.0,0.0,0.0,0.0,0.0,2.9096,2.9361,2.9234,2.867,2.6857,2.5036,2.4368,2.3389,2.2636,2.2836,2.3778,2.4506,2.4293,2.4707,2.4971,2.4619,2.5058,0.0,0.0,0.0,0.0,0.0,0.0,0.0,0.0,0.0,0.0,0.0,0.0,0.0,0.0,1.4841,1.3924,1.3295,1.2453,1.1991,1.1991,1.1797,1.1198,1.0184,0.9682,0.8771,0.7497,0.6642,0.0,0.0,0.0,0.0,0.0,0.3271,0.2993,0.2934,0.2705,0.2288,0.1758,0.1022,0.0734,0.0671,0.0,0.0,0.0,0.0,0.0,0.0,0.0,0.0,0.0,0.0,0.0,0.0,0.0,0.0,0.0,0.0,0.0,0.0,0.0,0.0,0.0,0.0,0.0,0.0,0.0,0.0,0.0,0.0,0.0,0.0,0.0,0.0,0.0,0.0,0.0,0.0,0.0,0.0,0.0,0.0,0.0,0.0,2.8263,0.0,0.0,0.0,0.0,0.0,0.0,0.0,0.0,0.0,0.0,0.0,0.0,0.0,2.4358,0.0,0.0,2.7705,2.7726,2.7459,2.5866,0.0,0.0,2.3276,2.2585,2.3565,2.433,2.477,2.4632,2.5146,2.536,2.4632,2.5423,0.0,0.0,0.0,0.0,0.0,0.0,0.0,0.0,0.0,0.0,0.0,0.0,0.0,0.0,1.5077,1.408,1.3429,1.2549,1.1843,1.1423,1.1348,1.0903,1.0135,0.9673,0.8912,0.7949,0.6865,0.0,0.0,0.0,0.0,0.0,0.4026,0.3806,0.3732,0.34,0.301,0.2508,0.1786,0.133,0.1043,0.0,0.0,0.0,0.0,0.0,0.0,0.0,0.0,0.0,0.0,0.0,0.0,0.0,0.0,0.0,0.0,0.0,0.0,0.0,0.0,0.0,0.0,0.0,0.0,0.0,0.0,0.0,2.3382,2.331,2.2318,2.0403,0.0,0.0,0.0,0.0,0.0,0.0,0.0,0.0,0.0,0.0,0.0,0.0,0.0,0.0,0.0,0.0,0.0,0.0,0.0,0.0,0.0,0.0,0.0,0.0,0.0,0.0,0.0,0.0,2.5423,0.0,0.0,0.0,0.0,0.0,2.359,0.0,2.4544,2.487,2.5021,2.5511,2.5598,2.5259,2.423,2.4921,0.0,0.0,0.0,0.0,0.0,0.0,0.0,0.0,0.0,0.0,0.0,0.0,0.0,0.0,1.5116,1.4083,1.3543,1.3363,1.2603,1.1364,1.1155,1.087,1.0557,0.9927,0.9227,0.844,0.7562,0.0,0.0,0.0,0.0,0.0,0.4508,0.4508,0.4405,0.366,0.3379,0.3277,0.2548,0.1791,0.1222,0.0,0.0,0.0,0.0,0.0,0.0,0.0,0.0,0.0,0.0,0.0,0.0,0.0,0.0,0.0,0.0,0.0,0.0,0.0,0.0,0.0,0.0,0.0,0.0,0.0,0.0,0.0,2.3326,2.2614,2.1665,2.0557,2.0256,0.0,0.0,0.0,0.0,0.0,0.0,0.0,0.0,0.0,0.0,0.0,0.0,0.0,0.0,2.7754,2.7388,0.0,0.0,0.0,0.0,0.0,0.0,0.0,0.0,2.2977,2.3025,2.3366,0.0,2.3502,2.4368,2.3954,2.359,0.0,2.4192,2.3954,2.5159,0.0,2.5448,2.5573,2.5598,2.5385,2.4732,2.5172,0.0,0.0,0.0,0.0,0.0,0.0,0.0,0.0,0.0,0.0,0.0,0.0,0.0,0.0,1.5341,1.4477,1.3083,1.3286,1.2612,1.09,1.0792,1.0501,0.9886,0.9519,0.9227,0.8983,0.7984,0.0,0.0,0.0,0.0,0.4508,0.4345,0.4362,0.444,0.4,0.388,0.3906,0.3019,0.2613,0.2342,0.0,0.0,0.0,0.0,0.0,0.0,0.0,0.0,0.0,0.0,0.0,0.0,0.0,0.0,0.0,0.0,0.0,0.0,0.0,0.0,0.0,0.0,0.0,0.0,0.0,0.0,0.0,0.0,0.0,2.095,0.0,0.0,0.0,0.0,0.0,0.0,0.0,0.0,0.0,0.0,2.5966,0.0,0.0,0.0,0.0,0.0,2.6591,2.6759,0.0,2.5398,2.5063,2.5063,0.0,0.0,0.0,0.0,2.3078,2.3078,2.3078,2.3113,2.3238,2.3853,2.3766,2.3753,2.4619,0.0,0.0,0.0,0.0,2.487,2.487,2.5485,0.0,2.4619,2.5737,0.0,0.0,0.0,0.0,0.0,0.0,0.0,0.0,0.0,0.0,0.0,0.0,0.0,0.0,1.5324,1.4457,1.3372,1.327,1.255,1.1174,1.1192,1.0794,0.9974,0.9658,0.9302,0.8977,0.8117,0.7393,0.0,0.0,0.0,0.508,0.4983,0.4853,0.4658,0.4483,0.4268,0.4029,0.3592,0.318,0.2796,0.0,0.0,0.0,0.0,0.0,0.0,0.0,0.0,0.0,0.0,0.0,0.0,0.0,0.0,0.0,0.0,0.0,0.0,0.0,0.0,0.0,0.0,0.0,0.0,0.0,0.0,0.0,0.0,0.0,0.0,0.0,0.0,1.8207,0.0,0.0,0.0,0.0,0.0,0.0,0.0,2.4769,0.0,0.0,0.0,0.0,0.0,0.0,0.0,0.0,2.5108,2.5315,2.5986,2.3929,0.0,0.0,0.0,0.0,0.0,2.3138,2.3678,2.4217,2.4142,2.4117,2.4268,2.482,0.0,0.0,0.0,0.0,0.0,0.0,0.0,0.0,0.0,0.0,0.0,0.0,0.0,0.0,0.0,0.0,0.0,0.0,0.0,0.0,0.0,0.0,0.0,0.0,1.5275,1.4327,1.3978,1.342,1.2824,1.2041,1.1893,1.1328,1.0386,1.0105,0.9666,0.9054,0.8362,0.7786,0.0,0.0,0.0,0.5814,0.5785,0.5455,0.5046,0.4986,0.4597,0.4077,0.4028,0.3595,0.2944,0.0,0.0,0.0,0.0,0.0,0.0,0.0,0.0,0.0,0.0,0.0,0.0,0.0,0.0,0.0,0.0,0.0,0.0,0.0,0.0,0.0,0.0,0.0,0.0,0.0,0.0,0.0,0.0,0.0,0.0,2.0366,1.8705,1.8812,0.0,0.0,0.0,2.3326,2.34,2.3838,2.4607,2.5039,0.0,0.0,0.0,0.0,0.0,0.0,0.0,0.0,2.5416,2.5441,2.5411,2.4491,0.0,0.0,0.0,0.0,0.0,2.3305,2.4217,2.5247,2.4808,2.4695,2.4833,2.536,0.0,0.0,0.0,0.0,0.0,0.0,0.0,0.0,0.0,0.0,0.0,0.0,0.0,0.0,0.0,0.0,0.0,0.0,0.0,0.0,0.0,0.0,0.0,0.0,0.0,1.4953,1.4582,1.4468,1.4114,1.3476,1.2363,1.1443,1.0699,1.0694,1.061,1.0466,0.9806,0.9008,0.0,0.0,0.6634,0.5804,0.5627,0.5609,0.5639,0.5329,0.4983,0.454,0.4283,0.3771,0.3146,0.0,0.0,0.0,0.0,0.0,0.0,0.0,0.0,0.0,0.0,0.0,0.0,0.0,0.0,0.0,0.0,0.0,0.0,0.0,0.0,0.0,0.0,0.0,0.0,0.0,0.0,0.0,0.0,0.0,2.0635,2.0811,1.9825,1.9814,2.0643,0.0,0.0,2.3193,2.3251,2.3699,2.4334,0.0,0.0,0.0,0.0,0.0,0.0,0.0,0.0,0.0,0.0,2.5692,2.5925,2.5159,0.0,0.0,0.0,0.0,0.0,2.3943,2.4506,2.5281,2.5277,2.5699,2.6138,2.6076,0.0,0.0,0.0,0.0,0.0,0.0,0.0,0.0,0.0,0.0,0.0,0.0,0.0,0.0,0.0,0.0,0.0,0.0,0.0,0.0,0.0,0.0,0.0,0.0,0.0,1.5372,1.5197,1.488,1.456,1.4283,1.3369,1.2346,1.1366,1.1366,1.1166,1.0762,1.0466,0.9722,0.8613,0.0,0.75,0.6462,0.6346,0.6191,0.5999,0.5826,0.5461,0.4977,0.4684,0.425,0.3678,0.0,0.0,0.0,0.0,0.0,0.0,0.0,0.0,0.0,0.0,0.0,0.0,0.0,0.0,0.0,0.0,0.0,0.0,0.0,0.0,0.0,0.0,0.0,0.0,0.0,0.0,2.347,2.2309,2.111,2.0538,2.0521,2.0614,2.0665,0.0,0.0,0.0,2.2823,2.2823,2.316,2.3695,0.0,0.0,0.0,0.0,0.0,0.0,0.0,0.0,0.0,0.0,0.0,0.0,0.0,0.0,0.0,2.5247,2.5187,2.5024,2.4307,2.4664,2.5348,2.5601,0.0,2.654,2.6628,0.0,0.0,0.0,0.0,0.0,0.0,0.0,0.0,0.0,0.0,0.0,0.0,0.0,0.0,0.0,0.0,0.0,0.0,0.0,0.0,0.0,0.0,0.0,0.0,0.0,1.582,1.582,1.5377,1.5062,1.4926,1.4457,1.3548,1.2248,1.212,1.1774,1.1275,1.1116,1.0425,0.9336,0.9152,0.8453,0.7398,0.7398,0.7105,0.6605,0.6605,0.6096,0.5287,0.4903,0.4479,0.4047,0.0,0.0,0.0,0.0,0.0,0.0,0.0,0.0,0.0,0.0,0.0,0.0,0.0,0.0,0.0,0.0,0.0,0.0,0.0,0.0,0.0,0.0,0.0,0.0,0.0,2.5047,2.367,2.2309,2.0921,1.9842,1.9097,2.0389,2.0936,2.102,0.0,0.0,2.2013,2.2013,2.2002,2.2063,2.2002,0.0,0.0,0.0,0.0,0.0,0.0,0.0,0.0,0.0,0.0,0.0,0.0,0.0,2.5485,2.476,2.4562,2.4398,2.3685,2.4668,2.5935,2.5959,2.5079,0.0,2.6766,2.6,0.0,0.0,0.0,0.0,0.0,0.0,0.0,0.0,0.0,0.0,0.0,0.0,0.0,0.0,0.0,0.0,0.0,0.0,0.0,0.0,0.0,0.0,0.0,0.0,0.0,1.6423,1.638,1.6095,1.5543,1.5499,1.4858,1.3674,1.3094,1.2774,1.2725,1.203,1.1343,1.0606,0.9922,0.9248,0.8594,0.8594,0.8275,0.7787,0.7787,0.6854,0.5383,0.4547,0.4162,0.3993,0.0,0.0,0.0,0.0,0.0,0.0,0.0,0.0,0.0,0.0,0.0,0.0,0.0,0.0,0.0,0.0,0.0,0.0,0.0,0.0,0.0,0.0,0.0,2.9551,2.7037,2.559,2.3871,2.1794,2.0952,2.0308,1.9968,2.1595,0.0,0.0,0.0,0.0,2.3132,2.1694,2.1678,2.2628,2.2125,2.2384,0.0,0.0,0.0,0.0,0.0,0.0,0.0,0.0,2.5136,2.5031,0.0,0.0,2.503,0.0,2.5191,2.5047,2.4269,2.5491,2.6793,2.6139,2.6018,0.0,0.0,0.0,0.0,0.0,0.0,0.0,0.0,0.0,0.0,0.0,0.0,0.0,0.0,0.0,0.0,0.0,0.0,0.0,0.0,0.0,0.0,0.0,0.0,0.0,0.0,0.0,0.0,1.6522,1.6522,1.638,1.6151,1.5776,1.5365,1.4903,1.4294,1.361,1.2871,1.2681,1.1943,1.0775,1.0215,0.9469,0.8716,0.8716,0.8602,0.8374,0.8079,0.7265,0.6245,0.5722,0.5144,0.4649,0.0,0.0,0.0,0.0,0.0,0.0,0.0,0.0,0.0,0.0,0.0,0.0,0.0,0.0,0.0,0.0,0.0,0.0,0.0,0.0,0.0,0.0,0.0,2.9057,2.6941,2.5445,2.3681,2.1493,2.0752,2.0489,2.0644,0.0,0.0,0.0,0.0,0.0,0.0,2.1204,2.1265,2.2641,2.1803,2.2125,0.0,0.0,0.0,0.0,0.0,0.0,0.0,0.0,2.4852,0.0,0.0,0.0,0.0,0.0,2.5136,2.5146,2.4692,2.585,2.7099,0.0,0.0,0.0,0.0,0.0,0.0,0.0,0.0,0.0,0.0,0.0,0.0,0.0,0.0,0.0,0.0,0.0,0.0,0.0,0.0,0.0,0.0,0.0,0.0,0.0,0.0,0.0,0.0,0.0,0.0,0.0,1.6993,1.6993,1.6993,1.6416,1.6058,1.584,1.5289,1.4383,1.3205,1.3324,1.2598,1.1299,1.0964,1.0302,0.9421,0.9421,0.9151,0.865,0.7928,0.7304,0.68,0.6464,0.6014,0.5491,0.0,0.0,0.0,0.0,0.0,0.0,0.0,0.0,0.0,0.0,0.0,0.0,0.0,0.0,0.0,0.0,0.0,0.0,0.0,0.0,0.0,0.0,0.0,2.8132,2.6144,2.4452,2.2884,2.1468,2.0363,2.0112,2.0702,2.1807,0.0,0.0,0.0,0.0,0.0,0.0,2.0556,2.1803,2.0974,2.1604,2.3245,0.0,0.0,0.0,0.0,0.0,0.0,0.0,2.4163,2.3595,0.0,0.0,0.0,0.0,2.4088,2.4582,2.4567,2.5585,2.6752,0.0,0.0,0.0,0.0,0.0,0.0,0.0,0.0,0.0,0.0,0.0,0.0,0.0,0.0,0.0,0.0,0.0,0.0,0.0,0.0,0.0,0.0,0.0,0.0,0.0,0.0,0.0,0.0,0.0,0.0,0.0,1.8106,1.8106,1.8106,1.7585,1.7008,1.6421,1.5932,1.509,1.3883,1.3915,1.3337,1.2413,1.2402,1.1855,1.1008,1.1008,1.0131,0.8682,0.7407,0.6917,0.6869,0.6612,0.6518,0.6457,0.0,0.0,0.0,0.0,0.0,0.0,0.0,0.0,0.0,0.0,0.0,0.0,0.0,0.0,0.0,0.0,0.0,0.0,0.0,0.0,0.0,0.0,0.0,0.0,0.0,0.0,2.1015,1.9528,2.0151,2.066,0.0,0.0,0.0,2.3502,0.0,0.0,0.0,0.0,1.9805,2.1221,2.0762,2.129,2.2433,0.0,0.0,0.0,0.0,0.0,0.0,0.0,0.0,0.0,0.0,0.0,0.0,2.3744,2.4088,2.4477,2.4029,2.5555,0.0,0.0,0.0,0.0,0.0,0.0,0.0,0.0,0.0,0.0,0.0,0.0,0.0,0.0,0.0,0.0,0.0,0.0,0.0,0.0,0.0,0.0,0.0,0.0,0.0,0.0,0.0,0.0,0.0,0.0,0.0,0.0,1.8106,1.8106,1.8106,1.7947,1.7773,1.7585,1.6678,1.5426,1.3904,1.3622,1.3087,1.2391,1.2095,1.1834,1.152,1.1096,1.0497,0.977,0.8718,0.7971,0.7423,0.7065,0.6751,0.6488,0.0,0.0,0.0,0.0,0.0,0.0,0.0,0.0,0.0,0.0,0.0,0.0,0.0,0.0,0.0,0.0,0.0,0.0,0.0,0.0,0.0,0.0,0.0,0.0,0.0,2.1849,2.0135,0.0,0.0,0.0,0.0,0.0,0.0,2.3326,0.0,2.2188,0.0,0.0,1.9415,2.056,2.0187,2.059,2.1542,0.0,0.0,0.0,0.0,0.0,0.0,0.0,0.0,0.0,0.0,0.0,0.0,2.4447,2.4817,2.5228,2.4867,2.6348,0.0,0.0,0.0,0.0,0.0,0.0,0.0,0.0,0.0,0.0,0.0,0.0,0.0,0.0,0.0,0.0,0.0,0.0,0.0,0.0,0.0,0.0,0.0,0.0,0.0,0.0,0.0,0.0,0.0,0.0,0.0,0.0,1.8727,1.8727,1.8727,1.8535,1.8293,1.8002,1.6937,1.5724,1.4456,1.3861,1.3274,1.2677,1.2265,1.1951,1.1686,1.0968,1.0408,0.9897,0.9158,0.8558,0.8078,0.7705,0.7413,0.7198,0.0,0.0,0.0,0.0,0.0,0.0,0.0,0.0,0.0,0.0,0.0,0.0,0.0,0.0,0.0,0.0,0.0,0.0,0.0,0.0,0.0,0.0,0.0,0.0,0.0,0.0,0.0,0.0,0.0,0.0,0.0,0.0,2.1971,2.1985,0.0,2.1403,0.0,1.9129,1.911,1.9627,1.9308,1.9652,2.0576,2.2092,0.0,0.0,0.0,0.0,0.0,0.0,0.0,0.0,2.6007,2.5838,2.5408,2.5493,2.5923,2.6411,2.6387,0.0,0.0,0.0,0.0,0.0,0.0,0.0,0.0,0.0,0.0,0.0,0.0,0.0,0.0,0.0,0.0,0.0,0.0,0.0,0.0,0.0,0.0,0.0,0.0,0.0,0.0,0.0,0.0,0.0,0.0,0.0,0.0,0.0,1.9782,1.9782,1.9818,1.9185,1.8592,0.0,1.6853,1.5958,1.5332,1.4497,1.3803,1.322,1.2765,1.2267,1.1688,1.0743,1.0052,0.957,0.9035,0.8844,0.8816,0.8467,0.8336,0.828,0.0,0.0,0.0,0.0,0.0,0.0,0.0,0.0,0.0,0.0,0.0,0.0,0.0,0.0,0.0,0.0,0.0,0.0,0.0,0.0,0.0,0.0,0.0,0.0,0.0,0.0,0.0,0.0,0.0,0.0,0.0,0.0,0.0,1.9379,0.0,2.0216,1.8192,1.7748,1.7679,1.7807,1.8163,1.8564,1.9083,1.9803,2.0996,0.0,0.0,0.0,0.0,0.0,0.0,0.0,2.5618,2.6224,2.6668,2.579,2.5923,2.6211,0.0,2.6393,0.0,0.0,0.0,0.0,0.0,0.0,0.0,0.0,0.0,0.0,0.0,0.0,0.0,0.0,0.0,0.0,0.0,0.0,0.0,0.0,0.0,0.0,0.0,0.0,0.0,0.0,0.0,0.0,0.0,0.0,0.0,2.0698,2.0364,2.0364,2.0698,1.9413,1.8856,0.0,1.7071,1.607,1.588,1.4883,1.4172,1.3722,1.3129,1.266,1.2167,1.1075,1.0538,1.0351,0.9571,0.9262,0.9235,0.8816,0.869,0.8679,0.0,0.0,0.0,0.0,0.0,0.0,0.0,0.0,0.0,0.0,0.0,0.0,0.0,0.0,0.0,0.0,0.0,0.0,0.0,0.0,0.0,0.0,0.0,0.0,0.0,0.0,0.0,0.0,0.0,0.0,0.0,0.0,0.0,1.9101,0.0,1.9179,1.7391,1.7254,1.7015,1.6698,1.7216,1.7663,1.8094,1.8708,1.9582,2.0389,2.0342,0.0,0.0,0.0,0.0,0.0,0.0,0.0,2.6525,2.5723,2.5889,2.6205,0.0,0.0,0.0,0.0,0.0,0.0,0.0,0.0,0.0,0.0,0.0,0.0,0.0,0.0,0.0,0.0,0.0,0.0,0.0,0.0,0.0,0.0,0.0,0.0,0.0,0.0,0.0,0.0,0.0,0.0,0.0,2.0764,2.0764,2.0991,2.0764,2.0764,2.0991,1.9842,1.9151,1.8889,1.7394,1.6411,1.5933,1.4969,1.421,1.3686,1.3394,1.2787,1.2023,1.1409,1.1018,1.0742,1.0315,1.011,1.0059,0.9662,0.952,0.9494,0.0,0.0,0.0,0.0,0.0,0.0,0.0,0.0,0.0,0.0,0.0,0.0,0.0,0.0,0.0,0.0,0.0,0.0,0.0,0.0,0.0,0.0,0.0,0.0,0.0,0.0,0.0,0.0,0.0,0.0,0.0,0.0,0.0,1.92,0.0,0.0,1.7129,1.7129,1.6769,1.6211,1.6582,1.6992,1.7439,1.8022,1.8416,1.8659,1.944,2.0251,2.0965,2.1126,0.0,0.0,0.0,0.0,2.5853,2.5576,2.567,2.5957,0.0,0.0,0.0,0.0,0.0,0.0,0.0,0.0,0.0,0.0,0.0,0.0,0.0,0.0,0.0,0.0,0.0,0.0,0.0,0.0,0.0,0.0,0.0,0.0,0.0,0.0,0.0,0.0,0.0,0.0,2.1229,2.1166,2.1134,2.1229,2.1037,2.0941,2.1035,2.0045,1.9132,1.8385,1.755,1.664,1.5675,1.4902,1.4181,1.3576,1.3369,1.2692,1.1691,1.1581,1.1314,1.0954,1.092,1.092,1.0916,1.054,1.0394,1.0356,0.0,0.0,0.0,0.0,0.0,0.0,0.0,0.0,0.0,0.0,0.0,0.0,0.0,0.0,0.0,0.0,0.0,0.0,1.3749,0.0,0.0,1.9507,2.0676,0.0,0.0,0.0,0.0,0.0,0.0,0.0,0.0,0.0,0.0,1.7123,0.0,0.0,0.0,1.6766,1.6703,1.665,1.6709,1.6992,1.7344,1.7081,1.7597,1.849,1.8184,1.8708,1.9564,2.0204,2.1472,0.0,0.0,0.0,2.5472,2.5492,2.5077,2.4658,0.0,0.0,0.0,0.0,0.0,0.0,0.0,0.0,0.0,0.0,0.0,0.0,0.0,0.0,0.0,0.0,0.0,0.0,0.0,0.0,0.0,0.0,0.0,0.0,0.0,0.0,0.0,0.0,0.0,0.0,2.2106,2.1735,2.1705,2.2106,2.1106,2.0775,2.1177,1.9126,1.8205,1.8385,1.7065,1.6057,1.534,1.4956,1.4496,1.397,1.2911,1.2176,1.165,1.1217,1.1104,1.1222,1.0987,1.1034,1.1222,1.094,1.0811,1.0811,0.0,0.0,0.0,0.0,0.0,0.0,0.0,0.0,0.0,0.0,0.0,0.0,0.0,0.0,0.0,0.736,0.8411,1.0472,1.3956,1.7198,1.8798,1.8607,1.9163,1.9184,0.0,0.0,0.0,0.0,0.0,0.0,0.0,2.0376,2.0193,0.0,0.0,0.0,0.0,0.0,1.7575,1.6728,1.7211,1.742,0.0,0.0,1.7402,1.7855,1.7654,1.7768,1.8213,1.8939,1.9973,2.1116,2.2124,0.0,0.0,0.0,2.3888,0.0,2.4792,0.0,0.0,0.0,0.0,0.0,0.0,0.0,0.0,0.0,0.0,0.0,0.0,0.0,0.0,0.0,0.0,0.0,0.0,0.0,0.0,0.0,0.0,0.0,0.0,0.0,0.0,0.0,0.0,2.2077,2.2282,2.2106,2.2106,2.2282,2.1368,2.0982,2.1204,1.9334,1.8194,1.7774,1.6776,1.5945,1.5278,1.455,1.4004,1.3545,1.2897,1.2446,1.2171,1.1807,1.1803,1.2004,1.1738,1.1695,1.1766,1.149,1.1392,1.1347,0.0,0.0,0.0,0.0,0.0,0.0,0.0,0.0,0.0,0.0,0.0,0.0,0.0,0.0,0.0,0.0,0.8328,1.0587,1.4604,1.6629,1.7725,1.8008,1.8008,1.8008,1.8008,0.0,0.0,0.0,0.0,0.0,2.0285,2.1139,2.1996,0.0,2.1502,0.0,0.0,0.0,0.0,0.0,0.0,0.0,0.0,0.0,0.0,0.0,0.0,0.0,1.7357,1.8116,1.8815,1.9506,2.0412,2.165,0.0,0.0,0.0,0.0,0.0,0.0,0.0,0.0,0.0,0.0,0.0,0.0,0.0,0.0,0.0,0.0,0.0,0.0,0.0,0.0,0.0,0.0,0.0,0.0,0.0,0.0,0.0,0.0,0.0,0.0,0.0,0.0,0.0,2.231,2.231,2.231,2.231,2.231,2.1397,2.0889,2.0889,1.9384,1.8094,1.704,1.6451,1.565,1.4646,1.38,1.3151,1.2712,1.2592,1.2482,1.2376,1.219,1.2271,1.2455,1.2113,1.2009,1.203,1.1703,1.1571,1.1505,0.0,0.0,0.0,0.0,0.0,0.0,0.0,0.0,0.0,0.0,0.0,0.0,0.0,0.6142,0.6536,0.7434,0.8514,1.0899,1.4909,1.6131,1.707,1.794,1.8008,0.0,1.8008,0.0,0.0,0.0,0.0,0.0,2.0775,2.1537,2.2865,2.4589,2.2329,2.1027,2.0526,0.0,0.0,0.0,0.0,0.0,0.0,0.0,0.0,0.0,0.0,0.0,0.0,1.8235,1.8412,1.8601,1.9927,2.0605,2.1067,0.0,0.0,0.0,0.0,0.0,0.0,0.0,0.0,0.0,0.0,0.0,0.0,0.0,0.0,0.0,0.0,0.0,0.0,0.0,0.0,0.0,0.0,0.0,0.0,0.0,0.0,0.0,0.0,0.0,0.0,0.0,0.0,2.231,2.231,2.231,2.231,2.231,2.0829,2.0052,2.0052,1.8582,1.7339,1.6342,1.6005,1.4806,1.2909,1.2555,1.2023,1.1423,1.1711,1.1856,1.1833,1.1826,1.1982,1.2169,1.1564,1.149,1.1657,1.115,1.0944,1.0944,0.0,0.0,0.0,0.0,0.0,0.0,0.0,0.0,0.0,0.0,0.0,0.0,0.0,0.7198,0.7884,0.9463,1.1144,1.267,1.4163,1.572,1.6775,1.707,1.7647,1.8008,1.8008,0.0,0.0,0.0,0.0,1.8964,2.0245,2.1061,2.2068,2.3165,2.3093,2.2619,2.1958,2.2133,0.0,0.0,0.0,0.0,0.0,0.0,0.0,0.0,0.0,0.0,0.0,1.8243,1.862,1.8904,1.9527,2.024,2.0775,2.0571,0.0,0.0,0.0,0.0,0.0,0.0,0.0,0.0,0.0,0.0,0.0,0.0,0.0,0.0,0.0,0.0,0.0,0.0,0.0,0.0,0.0,0.0,0.0,0.0,0.0,0.0,0.0,0.0,0.0,0.0,0.0,0.0,2.231,2.231,2.209,2.16,2.0568,1.9429,1.8285,1.7511,1.6638,1.5663,1.5321,1.4236,1.2524,1.2195,1.1672,1.1057,1.1164,1.1394,1.1657,1.1535,1.1483,1.1453,1.1068,1.0652,1.0275,1.0228,1.0032,0.9793,0.0,0.0,0.0,0.0,0.0,0.0,0.0,0.0,0.0,0.0,0.0,0.0,0.0,0.0,0.9715,1.1307,1.2648,1.355,1.3836,1.4944,1.5991,1.6695,1.7222,1.7647,1.8008,0.0,0.0,0.0,0.0,0.0,0.0,2.0216,2.1015,2.17,2.2693,2.2935,0.0,0.0,0.0,2.1365,0.0,0.0,2.1018,0.0,0.0,0.0,0.0,0.0,0.0,0.0,0.0,0.0,0.0,0.0,0.0,0.0,0.0,0.0,0.0,0.0,0.0,0.0,0.0,0.0,0.0,0.0,0.0,0.0,0.0,0.0,0.0,0.0,0.0,0.0,0.0,0.0,0.0,0.0,0.0,0.0,0.0,0.0,0.0,0.0,0.0,0.0,0.0,0.0,2.1886,2.184,2.142,2.0467,1.9924,1.8814,1.7167,1.6783,1.5993,1.4798,1.4552,1.3479,1.1716,1.1626,1.1195,1.0559,1.0447,1.0756,1.1336,1.1079,1.0824,1.0588,1.0173,0.9617,0.902,0.9048,0.8886,0.8621,0.0,0.0,0.0,0.0,0.0,0.0,0.0,0.0,0.0,0.0,0.0,0.0,0.0,0.0,0.0,1.2709,1.2759,1.321,1.4103,1.3881,1.4704,1.6802,1.6731,1.7028,1.794,0.0,0.0,0.0,0.0,0.0,0.0,0.0,1.9797,2.0375,2.1107,2.1713,2.2264,0.0,2.2936,2.2726,0.0,2.2566,2.2127,0.0,0.0,0.0,1.9481,1.875,0.0,1.8506,0.0,0.0,0.0,0.0,0.0,0.0,0.0,0.0,0.0,0.0,0.0,0.0,0.0,0.0,0.0,0.0,0.0,0.0,0.0,0.0,0.0,0.0,0.0,0.0,0.0,0.0,0.0,0.0,0.0,0.0,0.0,0.0,0.0,0.0,0.0,0.0,0.0,2.1399,2.1023,2.0975,2.0288,1.8898,1.8834,1.8135,1.6779,1.6343,1.5354,1.379,1.369,1.2528,1.0422,1.0729,1.0534,0.9867,0.9555,0.9957,1.0825,1.0419,0.9994,0.9578,0.8901,0.8399,0.799,0.7684,0.7531,0.7531,0.0,0.0,0.0,0.0,0.0,0.0,0.0,0.0,0.0,0.0,0.0,0.0,0.0,0.0,1.252,1.1945,1.2589,1.3236,1.3464,1.4062,1.4539,1.4985,1.6538,1.7243,1.701,0.0,0.0,0.0,0.0,0.0,0.0,0.0,0.0,0.0,1.9626,2.0091,2.0134,2.1805,0.0,0.0,2.3666,2.3373,0.0,0.0,0.0,0.0,0.0,1.9141,1.8906,0.0,1.872,1.8807,0.0,0.0,0.0,0.0,0.0,0.0,2.1389,0.0,0.0,0.0,0.0,0.0,0.0,0.0,0.0,0.0,0.0,0.0,0.0,0.0,0.0,0.0,0.0,0.0,0.0,0.0,0.0,0.0,0.0,0.0,0.0,0.0,0.0,0.0,2.163,2.1118,2.1007,2.013,1.9075,1.7914,1.7103,1.6277,1.5505,1.5138,1.4393,1.3214,1.2815,1.1911,1.0606,1.0315,1.0072,0.9867,0.9555,0.9555,0.9751,0.9058,0.8574,0.8213,0.7674,0.7075,0.6498,0.634,0.6097,0.583,0.0,0.0,0.0,0.0,0.0,0.0,0.0,0.0,0.0,0.0,0.0,0.0,0.0,0.0,0.0,1.2729,1.3114,1.344,1.3567,1.3884,1.4173,1.458,1.5627,1.6269,0.0,0.0,0.0,0.0,0.0,0.0,0.0,0.0,0.0,0.0,0.0,0.0,0.0,0.0,0.0,0.0,2.3095,0.0,0.0,2.2291,2.1535,0.0,0.0,0.0,1.9004,1.8936,1.8791,0.0,0.0,0.0,0.0,0.0,0.0,0.0,0.0,0.0,0.0,0.0,0.0,0.0,2.3696,2.3754,0.0,0.0,0.0,0.0,0.0,0.0,0.0,0.0,0.0,0.0,0.0,0.0,0.0,0.0,0.0,0.0,0.0,0.0,0.0,2.2164,2.1227,2.055,2.0147,1.9201,1.8247,1.7378,1.6474,1.5712,1.5139,1.4548,1.3839,1.2988,1.2641,1.1871,1.0681,1.0517,1.0237,0.9867,0.9369,0.9155,0.9062,0.7952,0.7472,0.7356,0.6755,0.6067,0.5352,0.53,0.5048,0.468,0.0,0.0,0.0,0.0,0.0,0.0,0.0,0.0,0.0,0.0,0.0,0.0,0.0,0.0,0.0,0.0,1.4004,1.3888,1.4122,1.3647,0.0,1.4896,1.4547,1.4797,0.0,0.0,0.0,0.0,0.0,0.0,0.0,0.0,0.0,0.0,0.0,0.0,0.0,0.0,0.0,2.1163,2.1777,2.2313,0.0,0.0,2.1638,0.0,2.0675,1.9687,1.874,1.8994,1.8472,0.0,0.0,0.0,0.0,0.0,1.9431,0.0,0.0,0.0,0.0,0.0,0.0,0.0,2.2859,2.3223,2.3712,0.0,0.0,0.0,0.0,0.0,0.0,0.0,0.0,0.0,0.0,0.0,0.0,0.0,0.0,0.0,0.0,2.4329,2.3254,2.1564,2.0628,1.9743,1.8841,1.8302,1.766,1.6957,1.65,1.5899,1.5176,1.4346,1.3624,1.3032,1.2836,1.2066,1.0812,1.0954,1.0595,0.9824,0.9058,0.8706,0.8557,0.71,0.6674,0.6887,0.6114,0.532,0.4602,0.4538,0.428,0.3923,0.0,0.0,0.0,0.0,0.0,0.0,0.0,0.0,0.0,0.0,0.0,0.0,0.0,0.0,0.0,0.0,0.0,1.4629,1.4449,0.0,1.4159,1.3899,1.4866,1.5275,1.4879,0.0,0.0,0.0,0.0,0.0,0.0,0.0,0.0,0.0,0.0,0.0,0.0,0.0,0.0,1.9342,2.1228,0.0,2.2094,2.1671,2.1007,2.0173,1.9693,1.9375,1.9014,0.0,1.7321,1.6715,0.0,0.0,0.0,0.0,0.0,0.0,0.0,0.0,0.0,0.0,0.0,0.0,2.2334,2.2588,2.3022,0.0,0.0,0.0,0.0,0.0,0.0,0.0,0.0,0.0,0.0,0.0,0.0,0.0,0.0,0.0,0.0,2.4789,2.361,2.2279,2.031,1.8902,1.8302,1.7747,1.7007,1.6017,1.5849,1.5351,1.4326,1.4139,1.375,1.3158,1.2328,1.1781,1.1487,1.0342,0.9735,0.9533,0.8753,0.8213,0.7849,0.6901,0.654,0.6532,0.5734,0.5081,0.457,0.4248,0.3821,0.3392,0.0,0.0,0.0,0.0,0.0,0.0,0.0,0.0,0.0,0.0,0.0,0.0,0.0,0.0,0.0,0.0,0.0,0.0,0.0,0.0,1.4389,1.4095,1.4421,1.459,1.4353,1.4582,0.0,0.0,0.0,0.0,0.0,0.0,0.0,0.0,0.0,0.0,0.0,0.0,1.8095,1.8014,1.932,0.0,2.0555,1.9533,1.9042,1.8807,1.8128,1.7696,1.7388,1.6323,1.571,0.0,0.0,1.5515,1.6031,0.0,1.7644,1.8906,0.0,0.0,0.0,2.0523,0.0,0.0,0.0,2.2141,2.2426,2.2497,0.0,0.0,0.0,0.0,0.0,0.0,0.0,0.0,0.0,0.0,0.0,0.0,0.0,0.0,0.0,2.4928,2.3438,2.1675,1.9657,1.838,1.8106,1.7353,1.6667,1.612,1.5831,1.5291,1.4513,1.4223,1.37,1.2826,1.2351,1.1836,1.1285,1.0256,0.9584,0.9163,0.8289,0.7682,0.7288,0.651,0.6052,0.5798,0.5201,0.4698,0.4248,0.3821,0.3364,0.2937,0.0,0.0,0.0,0.0,0.0,0.0,0.0,0.0,0.0,0.0,0.0,0.0,0.0,0.0,0.0,0.0,0.0,0.0,0.0,0.0,0.0,0.0,1.3633,1.3554,1.373,1.3176,0.0,0.0,0.0,0.0,0.0,0.0,0.0,0.0,0.0,0.0,0.0,0.0,0.0,1.7614,0.0,1.8073,1.8858,1.7251,1.7156,1.7649,1.657,1.598,1.5549,1.469,0.0,1.3934,1.4141,1.41,0.0,0.0,0.0,0.0,0.0,0.0,0.0,0.0,0.0,2.0845,0.0,0.0,0.0,2.1225,0.0,0.0,0.0,0.0,0.0,0.0,0.0,0.0,0.0,0.0,0.0,0.0,0.0,0.0,0.0,2.4608,2.3032,2.1053,1.9169,1.8106,1.8106,1.7076,1.6522,1.6522,1.6082,1.5489,1.4748,1.43,1.3533,1.2354,1.2162,1.1611,1.0751,1.0021,0.9313,0.8598,0.7757,0.7109,0.661,0.6014,0.5463,0.496,0.4692,0.4344,0.3961,0.3458,0.3101,0.2742,0.8319,0.9976,0.0,0.0,0.0,0.0,0.0,0.0,0.0,0.0,0.0,0.0,0.0,0.0,0.0,0.0,0.0,0.0,1.4124,0.0,0.0,0.0,0.0,0.0,1.2504,1.2086,1.133,0.0,0.0,0.0,0.0,0.0,0.0,0.0,1.4904,0.0,0.0,0.0,1.8407,0.0,1.6975,1.6925,0.0,1.6451,1.6461,1.7126,1.5833,1.5333,1.5184,0.0,1.3659,1.306,0.0,1.2687,0.0,0.0,0.0,0.0,0.0,0.0,0.0,0.0,1.8278,0.0,0.0,0.0,1.9687,1.9667,0.0,0.0,0.0,0.0,0.0,0.0,0.0,0.0,0.0,0.0,0.0,0.0,0.0,0.0,0.0,0.0,2.2324,2.1629,1.9412,1.8106,1.8106,1.7076,1.6522,1.6522,1.6459,1.5699,1.4189,1.4117,1.3332,1.1884,1.0912,1.0416,1.0242,0.8858,0.8047,0.7722,0.7198,0.6385,0.5387,0.53,0.4833,0.4183,0.4473,0.4344,0.3961,0.3458,0.3261,0.313,0.7979,0.9243,0.0,0.0,0.0,0.0,0.0,0.0,0.0,0.0,0.0,0.0,0.0,0.0,0.0,0.0,0.0,1.4334,0.0,0.0,0.0,0.0,0.0,0.0,0.0,1.123,1.0826,0.0,0.9822,0.0,0.0,0.0,0.0,0.0,1.3461,0.0,1.5947,0.0,0.0,0.0,0.0,0.0,0.0,1.4804,1.4359,1.4283,1.371,1.3403,1.3275,0.0,1.2398,0.0,0.0,0.0,0.0,0.0,0.0,0.0,0.0,0.0,0.0,0.0,0.0,0.0,0.0,0.0,1.7953,0.0,0.0,0.0,0.0,0.0,0.0,0.0,0.0,0.0,0.0,0.0,0.0,0.0,0.0,0.0,0.0,0.0,0.0,0.0,0.0,1.8419,1.8145,1.7394,1.6837,1.6522,1.6522,1.5719,1.411,1.4098,1.3186,1.1319,1.056,1.007,0.9758,0.8309,0.7356,0.6795,0.6159,0.5352,0.4494,0.4494,0.414,0.3621,0.3784,0.3751,0.3528,0.3101,0.2772,0.2441,0.6535,0.0,0.0,0.0,0.0,0.0,0.0,0.0,0.0,0.0,0.0,0.0,1.1781,1.2824,0.0,0.0,1.2998,1.3116,0.0,0.0,1.1091,0.0,0.0,0.0,0.0,0.0,0.9975,0.0,0.0,0.0,0.0,0.0,0.0,0.0,0.0,1.398,1.5389,0.0,0.0,1.6712,1.5707,1.5024,1.4421,1.3646,1.2906,1.2291,1.2211,1.2051,1.1844,1.1683,1.1349,0.0,1.0902,0.0,0.0,0.0,0.0,0.0,1.2337,0.0,0.0,0.0,0.0,0.0,0.0,0.0,0.0,0.0,0.0,0.0,0.0,0.0,0.0,0.0,0.0,0.0,0.0,0.0,0.0,0.0,0.0,0.0,0.0,0.0,0.0,2.0813,1.9473,1.8496,1.8145,1.7463,1.6909,1.6522,1.6522,1.5751,1.4122,1.3981,1.285,1.0733,1.0088,0.9531,0.903,0.7607,0.6667,0.6026,0.5263,0.4497,0.3793,0.3793,0.3462,0.2933,0.2933,0.2863,0.2728,0.2577,0.2377,0.2075,0.3464,0.4705,0.0,0.0,0.0,0.0,0.0,0.0,0.0,0.0,0.0,0.0,0.0,0.0,0.0,0.0,0.0,1.1851,1.0819,0.0,0.9909,0.0,0.0,0.9443,0.0,0.0,0.0,0.0,0.0,0.0,0.0,0.0,0.0,0.0,0.0,1.3279,1.397,1.6802,1.7171,1.5838,1.5683,1.4507,1.2927,0.0,1.3112,1.2265,1.1984,0.0,0.0,1.1216,1.1009,0.0,0.0,0.0,0.0,0.0,0.0,0.0,0.0,0.0,0.0,1.1891,0.0,0.0,0.0,0.0,1.3825,0.0,0.0,0.0,0.0,0.0,0.0,0.0,0.0,0.0,0.0,0.0,0.0,0.0,0.0,0.0,0.0,0.0,0.0,2.0745,1.9098,1.8145,1.8106,1.7118,1.6522,1.6522,1.6522,1.5721,1.4143,1.3656,1.2297,1.0122,0.9202,0.8472,0.7904,0.6552,0.5794,0.5497,0.4736,0.402,0.3327,0.3327,0.2801,0.2047,0.2047,0.1776,0.1405,0.1845,0.2308,0.2428,0.0,0.0,0.0,0.0,0.0,0.0,0.0,1.197,0.0,0.0,0.0,0.0,0.0,1.0385,1.0677,0.0,0.0,1.0444,0.8989,0.8785,0.0,0.0,0.0,0.8445,0.0,0.0,0.0,0.0,0.0,0.0,0.0,0.0,0.0,0.0,0.0,1.1662,0.0,0.0,0.0,0.0,0.0,1.3806,1.2493,0.0,0.0,1.1977,1.1677,1.145,0.0,1.1062,1.0529,0.9839,0.9753,0.9152,0.8414,0.8556,0.8704,0.0,0.0,0.0,0.9537,1.0762,0.0,0.0,0.0,0.0,0.0,0.0,0.0,0.0,0.0,0.0,0.0,0.0,0.0,0.0,0.0,0.0,0.0,0.0,0.0,0.0,0.0,0.0,0.0,1.9045,1.8414,1.7947,0.0,1.7229,1.6685,1.5908,1.5908,1.5119,1.3443,1.3011,1.1901,1.0098,0.9129,0.8174,0.714,0.6111,0.5162,0.4336,0.3878,0.3386,0.2907,0.2907,0.2543,0.2014,0.2014,0.1709,0.1305,0.1473,0.127,0.0732,0.1037,0.0,0.0,0.0,0.0,0.0,0.0,0.0,0.0,0.0,1.0018,0.0,0.8652,0.0,0.9488,0.0,0.913,0.9019,0.751,0.7359,0.0,0.6628,0.703,0.0,0.0,0.0,0.0,0.0,0.0,0.5088,0.0,0.0,0.0,0.0,0.0,0.0,1.2005,0.0,1.4944,0.0,0.0,1.2831,0.0,0.0,1.1777,1.1817,0.0,1.1089,1.0822,1.0715,0.9971,0.906,0.906,0.8271,0.7354,0.7354,0.7501,0.7694,0.8015,0.7841,0.0,0.902,0.8829,0.0,0.9769,0.0,0.0,0.0,0.0,0.0,0.0,0.0,0.0,0.0,0.0,0.0,0.0,0.0,0.0,0.0,0.0,0.0,0.0,0.0,1.7769,1.7126,1.7034,1.6973,0.0,0.0,1.6361,1.5632,1.5588,1.489,1.3373,1.2795,1.1687,1.0039,0.8923,0.7754,0.6546,0.5473,0.4565,0.3831,0.3301,0.2838,0.248,0.2646,0.2239,0.1553,0.169,0.1287,0.062,0.0979,0.0435,-0.0566,0.0,0.0,0.0,0.0,0.4827,0.0,0.0,0.0,0.8772,0.0,0.9205,0.8431,0.8193,0.829,0.831,0.8074,0.8057,0.0,0.6285,0.5984,0.0,0.0,0.5218,0.5872,0.5667,0.0,0.0,0.0,0.0,0.0,0.0,0.0,0.0,0.0,0.7599,0.0,1.0689,1.3346,1.3643,1.2251,1.2251,1.1626,1.0787,1.1141,1.1451,1.168,1.1176,1.0782,1.0494,1.0153,0.937,0.8545,0.8545,0.801,0.7403,0.7462,0.7457,0.74,0.7131,0.7074,0.6966,0.6693,0.0,0.0,0.0,0.0,0.7712,0.0,0.0,0.0,0.0,0.0,0.0,0.0,0.0,0.0,0.0,0.0,0.0,0.0,0.0,0.0,0.0,1.4709,1.4695,1.5084,1.4877,0.0,0.0,0.0,1.5511,1.5499,1.5487,1.4949,1.3721,1.2855,1.1557,0.9814,0.8415,0.7183,0.6058,0.4645,0.3995,0.3889,0.3047,0.2414,0.2081,0.2453,0.1873,0.0761,0.1134,0.0451,-0.0613,0.024,-0.0234,-0.1427,0.0,0.0297,0.0895,0.0,0.4322,0.6089,0.0,0.0,0.0,0.0,0.8598,0.8148,0.7061,0.6894,0.6429,0.5371,0.5198,0.0,0.0,0.0,0.0,0.4016,0.4362,0.4518,0.4495,0.4816,0.0,0.4285,0.0,0.0,0.2164,0.0,0.0,0.0,0.0,0.0,0.9352,1.0953,1.1621,1.1478,1.1478,1.0703,0.0,0.0,0.9322,0.9451,1.0334,1.0481,1.0153,0.9518,0.8572,0.765,0.765,0.7008,0.636,0.6879,0.6936,0.6799,0.6743,0.6334,0.6046,0.649,0.6303,0.6234,0.0,0.0,0.0,0.0,0.0,0.0,0.0,0.0,0.0,0.0,0.0,0.0,0.0,0.0,0.0,0.0,0.0,0.0,1.2182,1.1873,1.1861,1.25,1.2656,0.0,0.0,0.0,0.0,1.4283,1.4272,1.3643,1.2355,1.159,1.0347,0.855,0.7652,0.6335,0.4688,0.423,0.37,0.3133,0.2487,0.2314,0.249,0.1889,0.1469,0.1125,0.0932,0.0211,-0.0754,-0.1146,-0.1542,-0.194,0.0,0.0,0.0,0.1008,0.0,0.0,0.5069,0.0,0.0,0.6471,0.6639,0.0,0.5559,0.5399,0.5039,0.4186,0.4039,0.0,0.3115,0.0,0.0,0.2285,0.283,0.308,0.3148,0.3676,0.0,0.3041,0.0,0.0,0.1006,0.0,0.0,0.0,0.0,0.578,0.0,0.9246,1.0131,1.0324,1.029,0.0,0.0,0.8459,0.8196,0.7923,0.902,0.9202,0.8878,0.8824,0.78,0.6539,0.6892,0.6412,0.5815,0.6541,0.6459,0.6091,0.6091,0.5601,0.5167,0.555,0.5386,0.5273,0.5982,0.5878,0.5546,0.0,0.0,0.0,0.0,0.0,0.0,0.0,0.0,0.0,0.0,0.0,0.0,0.0,0.0,0.0,0.7707,0.8248,0.8899,0.9779,0.0,0.0,0.0,0.0,0.0,1.287,1.258,1.2104,1.1366,1.0667,0.9587,0.8084,0.708,0.5809,0.4278,0.3644,0.3137,0.2695,0.1992,0.1737,0.1811,0.1433,0.1082,0.066,-0.0039,-0.0557,-0.1113,-0.2252,-0.2395,-0.2147,0.0,0.0,0.0,0.0,0.0,0.0,0.0,0.3924,0.0,0.4206,0.0,0.4306,0.3919,0.3911,0.3778,0.3509,0.0,0.3001,0.1799,0.1771,0.1169,0.0097,0.1146,0.1778,0.1742,0.292,0.0,0.0,0.0,0.0,0.0,0.0,0.0,0.0,0.0,0.0,0.0,0.8198,0.9089,0.0,0.8975,0.8208,0.7346,0.7826,0.7464,0.6814,0.7569,0.7626,0.7449,0.808,0.7074,0.5631,0.6268,0.6091,0.576,0.6421,0.6145,0.5597,0.5542,0.5003,0.4519,0.4519,0.4519,0.468,0.5218,0.4893,0.4457,0.4268,0.3666,0.2732,0.0,0.0,0.0,0.0,0.0,0.0,0.0,0.0,0.0,0.0,0.0,0.0,0.0,0.4604,0.5914,0.0,0.0,0.0,0.0,0.0,0.0,1.1288,1.0806,0.0,1.0391,0.0,0.879,0.7701,0.6455,0.5257,0.4132,0.3104,0.2574,0.2457,0.1681,0.1174,0.092,0.1072,0.0702,-0.0126,-0.1176,-0.1552,-0.1608,-0.3079,-0.3089,-0.2563,0.0,0.0,0.0,0.0,0.0,0.0406,0.062,0.2688,0.4113,0.4062,0.4213,0.3813,0.2532,0.2426,0.1908,0.0789,0.069,0.0,0.0,0.0,0.0,0.0,0.0184,0.036,0.0352,0.0605,0.059,0.0,0.0,0.0,0.0,0.0,0.0,0.0,0.0,0.0,0.7103,0.8481,0.0,0.8067,0.7869,0.711,0.6108,0.6066,0.5913,0.5789,0.6601,0.7154,0.7353,0.6815,0.6249,0.5749,0.5703,0.6036,0.6421,0.6588,0.6534,0.6258,0.5651,0.5003,0.4519,0.4519,0.4519,0.4515,0.4625,0.457,0.4294,0.3619,0.2896,0.212,0.1285,0.0,0.0,0.0,0.0,0.0,0.0,0.0,0.0,0.0,0.0,0.0,0.0,0.0,0.0,0.0,0.0,0.0,0.0,0.0,0.0,0.0,0.9658,0.0,0.0,0.0,0.6842,0.5615,0.501,0.4093,0.3007,0.3153,0.2983,0.2462,0.1823,0.17,0.1858,0.0686,0.0124,-0.0126,-0.1176,-0.1859,-0.2319,-0.326,-0.3967,-0.4479,0.0,0.0,0.0,0.0,0.0,0.0,0.0,0.1124,0.0,0.194,0.1939,0.1729,0.1009,0.0999,0.0693,0.0098,0.0,0.0,0.0,0.0,0.0,0.0,0.0,0.0,0.0,0.0,0.0,0.0,0.0,0.0,0.0,0.0,0.0,0.0,0.0,0.3096,0.0,0.0,0.0,0.5342,0.5208,0.479,0.4252,0.414,0.4336,0.4743,0.5052,0.5619,0.6229,0.6224,0.5746,0.5289,0.5436,0.576,0.6091,0.6475,0.6312,0.5928,0.5597,0.5003,0.4519,0.4519,0.4519,0.4519,0.4519,0.4519,0.4294,0.3456,0.273,0.1842,0.0727,-0.0056,0.0,0.0,0.0,0.0,0.0,0.0,0.0,0.0,0.0,0.0,0.0,0.0,0.0,0.0,0.0,0.0,0.0,0.0,0.0,0.0,0.0,0.0,0.0,0.0,0.0,0.4084,0.3687,0.3075,0.2253,0.2469,0.2408,0.2105,0.1501,0.1339,0.1463,0.0427,0.0,-0.0131,-0.1602,-0.2423,-0.2965,-0.4308,-0.5204,-0.5685,0.0,0.0,0.0,0.0,0.0,0.0,0.0,0.0,0.0,0.0,0.0,0.0,0.0,0.0,0.0,0.0,0.0,0.0,0.0,0.0,0.0,0.0,0.0,0.0,0.0,0.0,0.0,0.0,0.0,0.0,0.0,0.0,0.0,0.0,0.0,0.0,0.0,0.0,0.2789,0.3086,0.2935,0.2931,0.2853,0.2774,0.3211,0.4002,0.3913,0.4379,0.5167,0.5746,0.5399,0.4779,0.5167,0.5378,0.5597,0.6041,0.5819,0.5487,0.5324,0.4783,0.4239,0.4239,0.4125,0.4015,0.4015,0.4015,0.379,0.301,0.2232,0.1396,0.0224,-0.028,0.0,0.0,0.0,0.0,0.0,0.0,0.0,0.0,0.0,0.0,0.0,0.0,0.0,0.0,0.0,0.0,0.0,0.0,0.0,0.0,0.0,0.4519,0.395,0.0,0.3575,0.0,0.2303,0.1855,0.1407,0.1552,0.1698,0.1757,0.1143,0.0808,0.0683,0.0354,0.0135,-0.0179,-0.1864,-0.2885,-0.3659,-0.5503,-0.6614,-0.7048,0.0,0.0,0.0,0.0,0.0,0.0,0.0,0.0,0.0,0.0,0.0,0.0,0.0,0.0,0.0,0.0,0.0,0.0,0.0,0.0,0.0,0.0,0.0,0.0,0.0,0.0,0.0,0.0,0.0,0.0,0.0,0.0,0.0,0.0,0.0,0.0,0.0,0.1424,0.2103,0.3086,0.2935,0.2931,0.2853,0.2774,0.3211,0.4013,0.4002,0.4457,0.5108,0.5027,0.4876,0.4663,0.4619,0.5003,0.5378,0.4842,0.5058,0.5378,0.4732,0.4012,0.34,0.3511,0.2954,0.2397,0.2397,0.2397,0.223,0.1452,0.0727,0.0168,0.0,-0.1118,-0.2009,0.0,0.0,0.0,0.0,0.0,0.0,0.0,0.0,0.0,0.0,0.0,0.0,0.0,0.0,0.0,0.0,0.0,0.0,0.2387,0.0,0.2483,0.2388,0.1103,0.0,0.1298,0.0599,0.0217,0.0168,0.0742,0.1302,0.176,0.118,0.0579,0.0134,0.0626,0.0493,-0.0135,-0.1371,-0.2835,-0.4417,-0.6442,-0.8077,-0.9291,0.0,0.0,0.0,0.0,0.0,0.0,0.0,-0.1732,-0.164,-0.0195,0.0,0.0,0.0,0.0,0.0,0.0,0.0,0.0,0.0,0.0,0.0,0.0,0.0,0.0,0.0,0.0,0.0,0.0,0.0,0.0,0.0,0.0,0.0,0.0,0.0,-0.1728,-0.1304,-0.1304,-0.0981,-0.0515,-0.0582,-0.0212,0.034,0.0336,0.1137,0.2471,0.2958,0.3589,0.4168,0.4165,0.4383,0.4663,0.4567,0.4677,0.4842,0.457,0.4677,0.4728,0.4012,0.3566,0.3176,0.2788,0.2454,0.2174,0.2174,0.2174,0.212,0.184,0.1174,0.0504,0.0056,-0.0504,-0.1174,0.0,0.0,0.0,0.0,0.0,0.0,0.0,0.0,0.0,0.0,0.0,0.0,0.0,0.0,0.0,0.0,0.0,0.0,0.0121,0.0,0.0855,-0.0585,-0.058,-0.0599,-0.0751,-0.0971,-0.1058,-0.1043,-0.0088,0.0705,0.1262,0.138,0.0874,0.0045,0.0653,0.0526,-0.0179,-0.1789,-0.3576,-0.5523,-0.782,-0.962,-1.0844,-0.3852,0.0,-0.3837,0.0,-0.3779,-0.3468,-0.2458,-0.3012,-0.2999,-0.1207,-0.0927,-0.0744,-0.0094,0.0,0.0,0.0,0.0,0.0,0.0,0.0,0.0,0.0,0.0,0.0,0.0,0.0,0.0,0.0,-0.0314,0.0,0.0,0.0,0.0,0.0,-0.3532,-0.3524,-0.3477,-0.3477,-0.3231,-0.2872,-0.2872,-0.2375,-0.1675,-0.1407,-0.0402,0.1001,0.1883,0.2649,0.3301,0.3259,0.3611,0.3969,0.3875,0.3959,0.4125,0.4125,0.4181,0.407,0.3511,0.301,0.2508,0.2009,0.173,0.1563,0.1563,0.1563,0.1563,0.1563,0.1118,0.0615,0.0112,-0.0168,-0.0671,-0.173,0.0,0.0,0.0,0.0,0.0,0.0,-0.2397,-0.2508,-0.2508,0.0,0.0,0.0,0.0,0.0,0.0,0.0,0.0,0.0,0.0,0.0,0.0,-0.2031,-0.2026,-0.2261,-0.2347,-0.2256,-0.2006,-0.0623,0.0134,0.0401,0.1066,0.0817,0.0045,0.0684,0.056,-0.0178,-0.1984,-0.3966,-0.6142,-0.9193,-1.0903,-1.1765,-0.3608,-0.3608,-0.3608,-0.3608,-0.3608,-0.3582,-0.3603,-0.3592,-0.354,-0.3312,-0.3295,-0.2449,-0.0269,0.0,0.0,0.0,0.0,0.0,0.0,0.0,0.0,0.0,0.0,0.0,0.0,0.0,0.0,0.0,0.0,0.0,-0.1646,0.0,-0.3671,-0.4686,-0.4686,-0.4622,-0.4517,-0.4517,-0.3805,-0.2722,-0.2722,-0.2677,-0.2611,-0.1675,-0.0736,0.0133,0.0975,0.1831,0.2509,0.2489,0.2411,0.2232,0.2232,0.2732,0.3289,0.3289,0.3345,0.34,0.34,0.2287,0.1118,0.1118,0.056,0.0,0.0,0.0,0.0,0.0,0.0,0.0,0.0,-0.0616,-0.1118,-0.1118,0.0,0.0,0.0,0.0,0.0,0.0,-0.2843,-0.3287,-0.3287,0.0,0.0,0.0,0.0,0.0,0.0,0.0,0.0,-0.1117,-0.1818,0.0,-0.2227,-0.3512,-0.3752,-0.2911,-0.3474,-0.3385,-0.2627,-0.0801,-0.0312,-0.0848,-0.0085,0.0129,0.0045,0.0809,0.0645,-0.0178,-0.1834,-0.3744,-0.6018,-1.0376,-1.1898,-1.1974,-0.6167,-0.6358,-0.6332,-0.6244,-0.5485,-0.4872,-0.47,-0.4588,-0.428,-0.3313,-0.3894,-0.3798,-0.2262,-0.15,-0.1067,0.0,-0.0917,-0.1179,0.0,-0.1816,-0.1582,-0.0896,-0.0912,-0.064,0.0,0.0,0.0,0.0,0.0,0.0,0.0,-0.4768,-0.5422,-0.5566,-0.5566,-0.5489,-0.5428,-0.6006,-0.6022,-0.5621,-0.6234,-0.5656,-0.4463,-0.413,-0.2734,-0.08,0.013,0.0882,0.1531,0.1661,0.155,0.1341,0.0838,0.1563,0.2565,0.2565,0.2565,0.2454,0.1953,0.1452,0.1006,0.0448,0.0168,0.0,0.0,0.0,0.0,0.0,0.0,0.0,0.0,-0.0168,-0.0671,-0.1675,-0.2063,0.0,0.0,0.0,0.0,0.0,0.0,-0.4125,0.0,-0.4485,0.0,0.0,0.0,0.0,0.0,0.0,0.0,0.0,-0.29,0.0,-0.4663,-0.4865,-0.4978,-0.5033,-0.5081,-0.4585,-0.3559,-0.224,-0.1695,-0.1784,-0.1602,-0.1643,-0.1859,-0.1914,-0.214,-0.2546,-0.4275,-0.5888,-0.7599,-1.0853,-1.2367,-1.28,-0.5989,-0.6079,-0.6236,-0.6508,-0.5604,-0.5027,-0.5576,-0.5379,-0.4912,-0.4474,-0.5041,-0.5081,-0.3842,-0.3092,0.0,-0.1934,-0.1936,-0.2154,-0.2656,-0.2719,-0.241,-0.1876,-0.1839,-0.1384,-0.0491,0.0,0.0,-0.0522,-0.1952,-0.3569,-0.524,-0.5864,-0.6122,-0.6027,-0.6261,-0.636,-0.6276,-0.7115,-0.7418,-0.7368,-0.7903,-0.7414,-0.6237,-0.552,-0.4194,-0.2548,-0.0943,-0.0123,0.0301,0.07,0.074,0.0615,0.0168,0.0615,0.1452,0.173,0.1786,0.1675,0.1229,0.0895,0.0615,0.0448,0.0224,0.0,0.0,0.0,0.0,0.0,0.0,0.0,0.0,-0.0224,-0.0727,-0.1619,-0.2232,-0.2954,-0.3901,0.0,0.0,0.0,0.0,0.0,0.0,-0.4934,0.0,0.0,0.0,0.0,0.0,0.0,0.0,-0.3497,-0.364,0.0,-0.5663,-0.5761,-0.5868,-0.5975,-0.5703,-0.5184,-0.4457,-0.3556,-0.3214,-0.3329,-0.3303,-0.3417,-0.3612,-0.3626,-0.3708,-0.396,-0.5437,-0.6717,-0.8042,-1.0997,-1.2184,-1.2362,-0.3604,-0.3604,0.0,0.0,-0.4268,0.0,-0.635,-0.5758,-0.5377,-0.6381,-0.6441,-0.607,-0.4921,-0.4649,-0.4206,-0.316,0.0,0.0,0.0,-0.292,-0.2878,-0.2811,-0.2811,-0.2372,-0.1392,-0.1393,-0.1412,-0.1522,-0.3487,-0.5032,-0.6013,-0.6013,-0.6006,-0.6067,-0.6781,-0.7028,-0.7056,-0.7938,-0.822,-0.8091,-0.8156,-0.8156,-0.7867,-0.6046,-0.522,-0.4744,-0.2272,-0.1233,-0.0994,-0.0283,-0.0056,-0.0056,-0.0056,-0.0056,0.0056,0.0783,0.1006,0.1006,0.1006,0.0504,0.0168,0.0838,0.0503,0.0,0.0,0.0,0.0,0.0,-0.0056,-0.0056,-0.0056,-0.0671,-0.1174,-0.1229,-0.2397,-0.3345,-0.3398,0.0,0.0,0.0,0.0,0.0,0.0,-0.5597,-0.5601,0.0,0.0,0.0,0.0,0.0,-0.3867,-0.3461,-0.4158,-0.4922,-0.5651,-0.6298,-0.6447,-0.6095,-0.565,-0.5427,-0.5363,-0.479,-0.4767,-0.5239,-0.5141,-0.5152,-0.5141,-0.4576,-0.4423,-0.4617,-0.5701,-0.6608,-0.7666,-1.0803,-1.1495,-1.1003,0.0,0.0,-0.3936,-0.4934,-0.4101,-0.4078,-0.6215,-0.5546,-0.5146,-0.6013,-0.6135,-0.6046,-0.5705,-0.5571,-0.5412,-0.5122,-0.4288,-0.4037,-0.4742,-0.4773,-0.442,-0.3747,-0.368,-0.3288,-0.2366,-0.2366,-0.2741,-0.3521,-0.4049,-0.4832,-0.5857,-0.5857,-0.6147,-0.6724,-0.6887,-0.7238,-0.7775,-0.8701,-0.8998,-0.9069,-0.9716,-0.9588,-0.8913,-0.8199,-0.6724,-0.4994,-0.4169,-0.2687,-0.1052,-0.0905,-0.0838,-0.0838,-0.0838,-0.0838,-0.0671,0.0056,0.028,0.028,0.028,0.0112,0.0056,0.0224,0.011,0.0,0.0,0.0,0.0,0.0,-0.044,-0.0838,-0.0838,-0.1452,-0.212,-0.2732,-0.3121,-0.3511,-0.4125,-0.4405,0.0,0.0,-0.5378,-0.5706,-0.6312,-0.6367,-0.6375,0.0,0.0,0.0,0.0,-0.6239,-0.5775,-0.4995,-0.5701,-0.6411,-0.7176,-0.7158,-0.7116,-0.7146,-0.6755,-0.6485,-0.6284,-0.578,-0.5571,-0.5606,-0.6125,-0.621,-0.5998,-0.6728,-0.6741,-0.6493,-0.7999,-0.8382,-0.8378,-1.0694,-1.1069,-1.059,-0.179,-0.1952,-0.2439,-0.3893,-0.3246,-0.3385,-0.5899,-0.5329,-0.4947,-0.5805,-0.5925,-0.5925,-0.5925,-0.5793,-0.5705,-0.5705,-0.5139,-0.49,-0.5372,-0.5428,-0.516,-0.4686,-0.4619,-0.4217,-0.3345,-0.3278,-0.3574,-0.411,-0.4577,-0.5136,-0.5705,-0.5705,-0.6143,-0.6933,-0.7252,-0.7876,-0.8678,-0.9524,-0.9919,-0.9913,-1.0428,-1.0301,-0.9806,-0.9022,-0.7643,-0.6063,-0.4944,-0.3478,-0.2058,-0.1741,-0.1619,-0.1619,-0.1619,-0.1397,-0.1006,-0.0615,-0.028,0.0,0.0,0.0,0.0,0.0,0.0273,0.0319,-0.037,-0.0477,-0.0587,-0.0921,-0.1324,-0.1619,-0.1619,-0.223,-0.2843,-0.3289,-0.3622,-0.4122,-0.4838,-0.4948,0.0,-0.5928,-0.6308,-0.6686,-0.7074,-0.7128,-0.7122,-0.7252,0.0,0.0,-0.6759,-0.7091,-0.6869,-0.6041,-0.6691,-0.7289,-0.7723,-0.7613,-0.7541,-0.7506,-0.7161,-0.6941,-0.6787,-0.6536,-0.6495,-0.6746,-0.7138,-0.7311,-0.7391,-0.7739,-0.7704,-0.753,-0.865,-0.8847,-0.8699,-1.0262,-1.0573,-1.0294,0.0,0.0,-0.0623,-0.2553,-0.2244,-0.2689,-0.5336,-0.5167,-0.497,-0.5643,-0.5769,-0.5769,-0.5769,-0.564,-0.5566,-0.5589,-0.5569,-0.5501,-0.5435,-0.5428,-0.5428,-0.5428,-0.5428,-0.5024,-0.4217,-0.4215,-0.4215,-0.4215,-0.5145,-0.5555,-0.5555,-0.5555,-0.6093,-0.7089,-0.772,-0.8549,-0.953,-1.0301,-1.0624,-1.0624,-1.0624,-1.0598,-1.0372,-0.9219,-0.8287,-0.7369,-0.5425,-0.4213,-0.334,-0.2619,-0.2397,-0.2397,-0.2341,-0.1842,-0.1284,-0.1284,-0.0671,0.0,0.0,-0.0056,-0.0168,-0.0167,0.0216,0.0318,-0.0977,-0.1232,-0.1433,-0.2021,-0.2272,-0.2397,-0.2506,-0.3116,-0.3671,-0.3782,-0.4398,-0.5007,-0.5597,0.0,-0.5928,-0.6696,-0.7343,-0.7723,-0.783,-0.7883,-0.7883,-0.7883,-0.7289,-0.6897,0.0,-0.7452,-0.7541,-0.6908,-0.7482,-0.7787,-0.7651,-0.7762,-0.7702,-0.7439,-0.7141,-0.6979,-0.6979,-0.6979,-0.728,-0.7746,-0.7746,-0.8028,-0.839,-0.7946,-0.7746,-0.7829,-0.8357,-0.8562,-0.8624,-0.9704,-1.005,-1.0037,0.0,0.0,-0.0378,-0.1625,-0.2278,-0.3154,-0.4522,-0.5249,-0.5639,-0.564,-0.5623,-0.5623,-0.5623,-0.5488,-0.545,-0.5579,-0.5471,-0.5452,-0.5428,-0.5428,-0.5428,-0.5428,-0.5428,-0.5359,-0.516,-0.516,-0.516,-0.516,-0.5316,-0.5463,-0.5463,-0.5463,-0.6316,-0.7816,-0.7977,-0.8871,-1.0428,-1.0561,-1.0624,-1.0624,-1.0624,-1.0408,-1.0147,-0.9689,-0.8946,-0.7903,-0.6728,-0.5366,-0.41,-0.345,-0.3234,-0.3178,-0.3121,-0.2619,-0.2009,-0.2009,-0.1062,0.0,0.0,-0.0448,-0.0944,-0.0917,-0.125,-0.156,-0.1816,-0.1843,-0.188,-0.1992,-0.2626,-0.334,-0.3932,-0.4656,-0.5374,-0.5982,-0.6204,-0.6317,-0.6426,0.0,-0.6691,-0.745,-0.7616,-0.7937,-0.8586,-0.8646,-0.8646,-0.8646,-0.854,-0.8377,-0.8146,-0.8234,-0.831,-0.8372,-0.8346,-0.8042,-0.7537,-0.7536,-0.7388,-0.7088,-0.7041,-0.6979,-0.6979,-0.6979,-0.7063,-0.7147,-0.7147,-0.7189,-0.7266,-0.7189,-0.7147,-0.7189,-0.778,-0.8063,-0.8202,-0.9214,-0.9658,-0.9793,0.0,0.0,-0.0369,-0.1385,-0.1962,-0.253,-0.3486,-0.3975,-0.4362,-0.4727,-0.471,-0.4889,-0.5282,-0.5355,-0.5355,-0.5345,-0.5355,-0.5428,-0.5428,-0.5428,-0.5428,-0.5428,-0.5428,-0.5428,-0.5428,-0.5281,-0.5277,-0.5428,-0.5277,-0.5281,-0.5428,-0.5428,-0.6338,-0.8027,-0.8027,-0.8856,-1.0327,-1.0494,-1.053,-1.0334,-1.0557,-1.0381,-1.0087,-0.9793,-0.9093,-0.8076,-0.6997,-0.5923,-0.4875,-0.4229,-0.4015,-0.4015,-0.3959,-0.3456,-0.2843,-0.2788,-0.1452,-0.0112,-0.0504,-0.0838,-0.1164,-0.15,-0.1783,-0.2104,-0.2419,-0.2522,-0.2794,-0.361,-0.4134,-0.4714,-0.5425,-0.5864,-0.6199,-0.6534,-0.6588,0.0,0.0,-0.7182,-0.745,-0.8209,-0.8321,-0.8427,-0.8752,-0.8804,-0.8804,-0.8804,-0.9159,-0.9181,-0.8827,-0.9188,-0.924,-0.8948,-0.8988,-0.8788,-0.8385,-0.8084,-0.7795,-0.7489,-0.7147,-0.6979,-0.6979,-0.6979,-0.6979,-0.6979,-0.6979,-0.6979,-0.6979,-0.6979,-0.6979,-0.7063,-0.7663,-0.7903,-0.8055,-0.9138,-0.9514,-0.969,0.0,0.0,-0.0288,-0.1074,-0.1429,-0.1772,-0.2427,-0.2682,-0.3057,-0.3654,-0.3692,-0.397,-0.4709,-0.4926,-0.5026,-0.5075,-0.524,-0.5321,-0.5425,-0.5428,-0.5428,-0.5428,-0.5428,-0.5345,-0.5308,-0.5226,-0.5223,-0.5308,-0.5223,-0.5243,-0.5428,-0.5428,-0.6338,-0.8027,-0.8027,-0.8794,-1.0134,-1.0361,-1.0327,-1.0134,-1.0294,-1.0221,-0.998,-0.9693,-0.9054,-0.8159,-0.703,-0.6258,-0.5655,-0.4787,-0.4519,-0.4519,-0.4519,-0.4015,-0.34,-0.3345,-0.2009,-0.0615,-0.1229,-0.1444,-0.17,-0.2138,-0.236,-0.2517,-0.2993,-0.3192,-0.3628,-0.4995,-0.5356,-0.5761,-0.6686,-0.6961,-0.7171,-0.7331,0.0,0.0,0.0,-0.8296,-0.8408,-0.8956,-0.891,-0.8804,-0.8804,-0.8804,-0.8804,-0.8804,-0.9349,-0.9517,-0.9092,-0.9612,-0.9694,-0.9232,-0.9264,-0.9229,-0.9003,-0.8582,-0.8245,-0.787,-0.7447,-0.7147,-0.6979,-0.6979,-0.6979,-0.6979,-0.6979,-0.6979,-0.6979,-0.6979,-0.7063,-0.7273,-0.7704,-0.8036,-0.8357,-0.9199,-0.9637,-0.9981,0.0,0.0,0.0,-0.0136,-0.0811,-0.1348,-0.1412,-0.2168,-0.2708,-0.2766,-0.2767,-0.3092,-0.3824,-0.3894,-0.425,-0.5058,-0.5142,-0.5209,-0.5418,-0.5428,-0.5428,-0.5428,-0.5428,-0.5294,-0.5148,-0.5277,-0.5281,-0.5148,-0.5281,-0.5418,-0.5428,-0.5428,-0.6338,-0.8027,-0.8027,-0.8794,-1.0114,-1.014,-1.0134,-1.0094,-0.9846,-0.9733,-0.9686,-0.9385,-0.9037,-0.8566,-0.7133,-0.6588,-0.6312,-0.4952,-0.4519,-0.4519,-0.4519,-0.4015,-0.34,-0.34,-0.2732,-0.2063,-0.212,-0.2509,-0.2982,-0.3028,-0.3327,-0.3677,-0.3714,-0.3721,-0.4003,-0.4931,-0.5217,-0.5768,-0.7351,-0.8119,-0.879,-0.9444,0.0,0.0,-1.0559,-1.0056,-0.9658,-0.971,-0.9159,-0.8804,-0.8804,-0.8804,-0.8804,-0.8804,-0.9098,-0.9085,-0.8754,-0.903,-0.9283,-0.9453,-0.9026,-0.8741,-0.8716,-0.8676,-0.8422,-0.7919,-0.7878,-0.753,-0.6979,-0.6979,-0.6979,-0.6979,-0.6979,-0.6979,-0.6979,-0.6979,-0.7321,-0.7829,-0.7878,-0.8521,-0.9399,-0.9478,-1.0099,-1.0905,0.0,0.0,0.0,0.0,-0.0269,-0.0471,-0.0471,-0.0787,-0.1222,-0.1736,-0.1818,-0.2137,-0.2932,-0.3462,-0.392,-0.4131,-0.4636,-0.5026,-0.5084,-0.5087,-0.5169,-0.5418,-0.5428,-0.5335,-0.5274,-0.5237,-0.5237,-0.5274,-0.5237,-0.5267,-0.5425,-0.5264,-0.623,-0.8011,-0.7669,-0.8414,-0.9846,-0.9846,-0.974,-0.9579,-0.9653,-0.9573,-0.9392,-0.923,-0.9058,-0.8646,-0.767,-0.6966,-0.6421,-0.5437,-0.4842,-0.4519,-0.4519,-0.4294,-0.407,-0.407,-0.4171,-0.4271,-0.4271,-0.3692,-0.3151,-0.3459,-0.3969,-0.4318,-0.4209,-0.4542,-0.5065,-0.5888,-0.6302,-0.6996,-0.8477,-0.9102,-0.9585,-1.0312,0.0,-1.0813,-1.0813,-1.0568,-1.0415,-1.0415,-1.0218,-1.0064,-1.0064,-1.0064,-0.9929,-0.9672,-1.0173,-1.0169,-0.9479,-0.9703,-0.9873,-1.0,-1.0099,-0.9972,-0.9677,-0.9359,-0.9079,-0.8878,-0.8234,-0.7787,-0.753,-0.7189,-0.6979,-0.6979,-0.6979,-0.6979,-0.6979,-0.6979,-0.7203,-0.7492,-0.7788,-0.8182,-0.8673,-0.9596,-1.0186,-1.0606,0.0,0.0,0.0,0.0,0.0,0.0,0.0,0.0,-0.0188,-0.0815,-0.0915,-0.1186,-0.197,-0.2828,-0.3384,-0.3579,-0.4367,-0.4867,-0.4914,-0.5097,-0.5399,-0.573,-0.5789,-0.5771,-0.5667,-0.5286,-0.5138,-0.5152,-0.5138,-0.5162,-0.5223,-0.5159,-0.6038,-0.7734,-0.7426,-0.8142,-0.9546,-0.9546,-0.9426,-0.9196,-0.9365,-0.9339,-0.9176,-0.9084,-0.8978,-0.8699,-0.7723,-0.702,-0.648,-0.5492,-0.4897,-0.4519,-0.4519,-0.4519,-0.4519,-0.4732,-0.5074,-0.5441,-0.5597,-0.4769,-0.3949,-0.4378,-0.4671,-0.4866,-0.4727,-0.507,-0.5666,-0.6556,-0.7038,-0.7794,-0.9276,-0.9926,-1.0439,-1.0998,-1.1325,-1.1484,-1.1484,-1.1275,-1.1116,-1.1116,-1.0914,-1.0772,-1.0606,-1.0598,-1.045,-1.0002,-1.047,-1.0579,-1.0036,-1.0341,-1.0505,-1.0505,-1.0992,-1.1094,-1.0764,-1.0254,-0.9825,-0.9478,-0.8756,-0.8242,-0.787,-0.7489,-0.7189,-0.7021,-0.7189,-0.728,-0.728,-0.7474,-0.7665,-0.796,-0.8294,-0.8638,-0.9082,-1.0079,-1.061,-1.0927,0.0,0.0,0.0,0.0,0.0,0.0,0.0,0.0,0.0,0.0,0.0,-0.028,-0.1006,-0.173,-0.2601,-0.3505,-0.4278,-0.4755,-0.4904,-0.5631,-0.6132,-0.6371,-0.6617,-0.654,-0.6229,-0.5483,-0.4986,-0.4694,-0.4986,-0.5057,-0.4921,-0.506,-0.591,-0.7289,-0.7284,-0.7982,-0.9183,-0.9183,-0.9183,-0.9157,-0.8925,-0.8978,-0.915,-0.8918,-0.8804,-0.8593,-0.7128,-0.6588,-0.6372,-0.5007,-0.4519,-0.4519,-0.4519,-0.4519,-0.4625,-0.5328,-0.5304,-0.5229,-0.5839,-0.5766,-0.5604,-0.5914,-0.5636,-0.5308,-0.5308,-0.5308,-0.5655,-0.689,-0.7281,-0.7932,-0.9525,-1.0573,-1.1316,-1.1751,-1.2442,-1.2871,-1.2871,-1.2286,-1.1805,-1.1805,-1.1208,-1.0673,-1.027,-1.0237,-1.0033,-0.9536,-0.9752,-1.0008,-1.0303,-1.0764,-1.1019,-1.1019,-1.1505,-1.1811,-1.1811,-1.1282,-1.0514,-0.9518,-0.9518,-0.8958,-0.7912,-0.7919,-0.7579,-0.7063,-0.7655,-0.7919,-0.7961,-0.848,-0.8999,-0.9518,-0.9518,-1.0137,-1.1008,-1.1008,-1.1475,-1.2098,0.0,0.0,0.0,0.0,0.0,0.0,0.0,0.0,0.0,0.0,0.0,-0.0056,-0.028,-0.1452,-0.2296,-0.2603,-0.3792,-0.4769,-0.5261,-0.6696,-0.7333,-0.6934,-0.648,-0.6161,-0.6053,-0.5319,-0.4938,-0.485,-0.4938,-0.52,-0.5695,-0.562,-0.6502,-0.8047,-0.7706,-0.8171,-0.917,-0.9025,-0.8938,-0.8931,-0.8844,-0.8858,-0.8925,-0.8838,-0.8804,-0.8752,-0.8321,-0.783,-0.7235,-0.6312,-0.5605,-0.5218,-0.5218,-0.5546,-0.5991,-0.6204,-0.6428,-0.6702,-0.684,-0.6895,-0.6666,-0.575,-0.5884,-0.622,-0.622,-0.6837,-0.7606,-0.8236,-0.8691,-0.942,-1.0663,-1.1072,-1.1377,-1.1988,-1.2271,-1.2314,-1.2047,-1.2022,-1.2063,-1.2063,-1.1921,-1.1732,-1.1612,-1.1593,-1.1305,-1.0539,-1.0287,-1.0213,-1.0293,-1.0764,-1.1019,-1.1019,-1.1836,-1.2138,-1.1811,-1.1627,-1.1207,-1.0552,-1.0157,-0.9649,-0.8999,-0.8635,-0.8349,-0.8185,-0.8398,-0.848,-0.848,-0.8635,-0.8805,-0.9082,-0.9732,-1.0238,-1.068,-1.148,-1.1904,-1.2114,0.0,0.0,0.0,0.0,0.0,0.0,0.0,0.0,0.0,0.0,0.0,-0.0112,-0.0392,-0.1507,-0.2343,-0.2621,-0.4061,-0.5167,-0.5873,-0.7258,-0.7793,-0.7345,-0.663,-0.6155,-0.5994,-0.524,-0.4799,-0.4738,-0.5092,-0.5439,-0.5831,-0.6072,-0.6929,-0.8107,-0.7804,-0.8195,-0.9058,-0.8884,-0.8804,-0.8804,-0.8804,-0.8804,-0.8804,-0.8804,-0.8804,-0.8752,-0.848,-0.8103,-0.7563,-0.6858,-0.6312,-0.5928,-0.5928,-0.6258,-0.6642,-0.6966,-0.7045,-0.7177,-0.7437,-0.75,-0.7262,-0.6226,-0.6455,-0.7013,-0.7276,-0.7863,-0.849,-0.9082,-0.9428,-0.9951,-1.1102,-1.1214,-1.1384,-1.2377,-1.2378,-1.2212,-1.2179,-1.222,-1.2223,-1.2223,-1.2088,-1.1895,-1.1684,-1.1709,-1.1416,-1.0713,-1.043,-1.0283,-1.0283,-1.0954,-1.1319,-1.1319,-1.2282,-1.265,-1.2354,-1.2354,-1.1982,-1.1319,-1.0771,-1.0263,-0.9776,-0.9231,-0.8918,-0.8716,-0.8918,-0.8999,-0.9039,-0.9239,-0.9343,-0.9431,-0.9989,-1.0376,-1.0747,-1.1784,-1.209,-1.2017,0.0,0.0,0.0,0.0,0.0,0.0,0.0,0.0,0.0,0.0,0.0,-0.028,-0.1006,-0.1786,-0.2508,-0.3345,-0.4772,-0.5923,-0.6642,-0.7396,-0.7723,-0.7616,-0.6966,-0.6354,-0.587,-0.5074,-0.4659,-0.457,-0.5381,-0.5767,-0.571,-0.6556,-0.7273,-0.7777,-0.7777,-0.8156,-0.8804,-0.8804,-0.8804,-0.8804,-0.8804,-0.8804,-0.8804,-0.8804,-0.8804,-0.8699,-0.8049,-0.7777,-0.767,-0.6966,-0.6696,-0.6696,-0.6696,-0.675,-0.6912,-0.7616,-0.7392,-0.7122,-0.7732,-0.7728,-0.745,-0.7088,-0.7241,-0.7685,-0.8349,-0.8459,-0.8654,-0.9583,-0.9708,-0.9949,-1.1113,-1.1098,-1.1414,-1.2736,-1.2603,-1.2436,-1.2839,-1.2498,-1.2246,-1.2246,-1.184,-1.139,-1.0947,-1.0879,-1.0693,-1.0312,-1.0283,-1.0283,-1.0283,-1.1255,-1.1811,-1.1811,-1.272,-1.3198,-1.3198,-1.3198,-1.2756,-1.1847,-1.1319,-1.0771,-1.0263,-0.9776,-0.9319,-0.8878,-0.9359,-0.9558,-0.9597,-1.0079,-1.0283,-1.0283,-1.0276,-1.0556,-1.1103,-1.2005,-1.2112,-1.1946,0.0,0.0,0.0,0.0,0.0,0.0,0.0,0.0,0.0,0.0,0.0,-0.028,-0.1006,-0.1786,-0.2508,-0.3345,-0.5214,-0.6691,-0.7396,-0.8156,-0.8049,-0.6912,-0.6696,-0.6082,-0.5027,-0.4685,-0.4768,-0.5273,-0.5474,-0.6128,-0.723,-0.7453,-0.7884,-0.854,-0.854,-0.8646,-0.8804,-0.8804,-0.8804,-0.8804,-0.8804,-0.8804,-0.8804,-0.8804,-0.8804,-0.8758,-0.8646,-0.854,-0.8427,-0.7723,-0.7456,-0.7456,-0.7456,-0.783,-0.8374,-0.8533,-0.842,-0.8226,-0.797,-0.785,-0.7666,-0.7125,-0.7241,-0.764,-0.8224,-0.8812,-0.9468,-1.023,-1.0529,-1.0916,-1.19,-1.1746,-1.1734,-1.241,-1.2436,-1.2318,-1.2106,-1.1944,-1.1818,-1.1818,-1.1377,-1.1016,-1.0918,-1.0615,-1.0381,-1.0332,-1.0283,-1.0283,-1.0283,-1.1255,-1.1811,-1.1811,-1.272,-1.3198,-1.3198,-1.3198,-1.2908,-1.2354,-1.1847,-1.1356,-1.0819,-1.0341,-1.004,-0.9961,-1.0079,-1.0127,-1.0118,-1.0244,-1.0283,-1.0351,-1.0689,-1.1168,-1.1693,-1.2422,-1.2555,-1.2458,-0.0505,-0.0783,-0.095,-0.056,-0.0504,-0.0392,-0.0056,0.0,0.0,0.0,0.0,-0.0392,-0.1507,-0.1953,-0.2783,-0.4278,-0.576,-0.6912,-0.767,-0.8374,-0.8321,-0.7182,-0.7128,-0.6638,-0.5647,-0.555,-0.5538,-0.5621,-0.5918,-0.6578,-0.7723,-0.8049,-0.8427,-0.8804,-0.8804,-0.8804,-0.8804,-0.8804,-0.8804,-0.8804,-0.8804,-0.8804,-0.8804,-0.8804,-0.8804,-0.8804,-0.8804,-0.9008,-0.9204,-0.8823,-0.8718,-0.8666,-0.8315,-0.8732,-0.9256,-0.9256,-0.9252,-0.9097,-0.8709,-0.8446,-0.8121,-0.7398,-0.7569,-0.801,-0.8342,-0.8876,-0.9528,-1.0241,-1.0484,-1.0882,-1.1812,-1.1861,-1.205,-1.2954,-1.2964,-1.2834,-1.29,-1.2444,-1.2079,-1.2079,-1.1415,-1.0875,-1.0645,-1.041,-1.0283,-1.0283,-1.0283,-1.0283,-1.0283,-1.1255,-1.1811,-1.1811,-1.272,-1.3323,-1.3622,-1.3622,-1.364,-1.3619,-1.2625,-1.1993,-1.1678,-1.1207,-1.0878,-1.0649,-1.0649,-1.0505,-1.0283,-1.0283,-1.0283,-1.0331,-1.0767,-1.1118,-1.1501,-1.2755,-1.3457,-1.3826,-0.1236,-0.1786,-0.2009,-0.1396,-0.1284,-0.1062,-0.0448,-0.0392,-0.0392,-0.0392,-0.0392,-0.0895,-0.2232,-0.2508,-0.3448,-0.5487,-0.6253,-0.6966,-0.783,-0.848,-0.848,-0.7723,-0.7723,-0.7365,-0.6643,-0.6608,-0.6454,-0.6119,-0.6564,-0.7182,-0.7889,-0.8533,-0.8804,-0.8804,-0.8804,-0.8804,-0.8804,-0.8804,-0.8804,-0.8804,-0.8804,-0.8804,-0.8804,-0.891,-0.8956,-0.9008,-0.9113,-0.951,-0.9961,-0.9961,-0.9961,-0.9865,-0.9309,-0.951,-0.9961,-0.9961,-0.9962,-0.9897,-0.9634,-0.9187,-0.8639,-0.7836,-0.7903,-0.8153,-0.8216,-0.8696,-0.9273,-0.9891,-1.0158,-1.0538,-1.1328,-1.1747,-1.2338,-1.3477,-1.3544,-1.3557,-1.3887,-1.3106,-1.2508,-1.2508,-1.1689,-1.0943,-1.0467,-1.0428,-1.04,-1.0322,-1.0283,-1.0312,-1.0381,-1.1297,-1.1856,-1.202,-1.2878,-1.3627,-1.4223,-1.4223,-1.4462,-1.4903,-1.3558,-1.2878,-1.2758,-1.2201,-1.1625,-1.1124,-1.105,-1.0725,-1.0283,-1.0283,-1.0283,-1.036,-1.0769,-1.0961,-1.1251,-1.3015,-1.4368,-1.5251,-0.1899,-0.212,-0.2174,-0.2063,-0.2063,-0.2009,-0.1898,-0.1898,-0.1898,-0.1898,-0.1898,-0.2232,-0.3121,-0.379,-0.4783,-0.6312,-0.6534,-0.7182,-0.854,-0.8752,-0.848,-0.7723,-0.7723,-0.7438,-0.6859,-0.6683,-0.6874,-0.7447,-0.7521,-0.7943,-0.8646,-0.8752,-0.8804,-0.8804,-0.8804,-0.8804,-0.8804,-0.8804,-0.8804,-0.8804,-0.8804,-0.8804,-0.8857,-0.9465,-0.9666,-0.9762,-1.0312,-1.0568,-1.0661,-1.0661,-1.0661,-1.0669,-1.0568,-1.061,-1.0661,-1.0661,-1.0819,-1.0883,-1.0421,-0.9744,-0.9096,-0.8488,-0.7773,-0.7181,-0.7186,-0.8175,-0.9206,-0.9502,-0.996,-1.0468,-1.0995,-1.1832,-1.2528,-1.2681,-1.3423,-1.3837,-1.3373,-1.2839,-1.2508,-1.2508,-1.2029,-1.1468,-1.0943,-1.0905,-1.0725,-1.0322,-1.0283,-1.0439,-1.0811,-1.1388,-1.2117,-1.2977,-1.3574,-1.4174,-1.4802,-1.479,-1.484,-1.4916,-1.4675,-1.4307,-1.3831,-1.2904,-1.2207,-1.1665,-1.1187,-1.0725,-1.0283,-1.0283,-1.0283,-1.0351,-1.0805,-1.1259,-1.1822,-1.308,-1.4471,-1.563,-0.2695,-0.3503,-0.3776,-0.2952,-0.3169,-0.3166,-0.2341,-0.2174,-0.2174,-0.2174,-0.2174,-0.2508,-0.3289,-0.407,-0.5066,-0.648,-0.6588,-0.7235,-0.8699,-0.8804,-0.8646,-0.8321,-0.8315,-0.8211,-0.7936,-0.789,-0.799,-0.8315,-0.7883,-0.8103,-0.8804,-0.8804,-0.8804,-0.8804,-0.8804,-0.8804,-0.8804,-0.8804,-0.8804,-0.8857,-0.9211,-0.9361,-0.9413,-1.0115,-1.0364,-1.0466,-1.1116,-1.1366,-1.1366,-1.1366,-1.1366,-1.1316,-1.0914,-1.1065,-1.1366,-1.1366,-1.1553,-1.1687,-1.1314,-1.0382,-0.9412,-0.8844,-0.7973,-0.7228,-0.7061,-0.7757,-0.854,-0.8952,-0.9478,-1.0173,-1.1135,-1.2004,-1.2726,-1.3185,-1.3966,-1.4318,-1.3774,-1.3529,-1.3167,-1.2579,-1.2318,-1.1884,-1.1094,-1.1019,-1.0802,-1.0361,-1.0498,-1.0713,-1.0898,-1.1624,-1.2392,-1.3178,-1.3732,-1.441,-1.5329,-1.5329,-1.5492,-1.5793,-1.5793,-1.5374,-1.4516,-1.4089,-1.358,-1.306,-1.2844,-1.2296,-1.1563,-1.1563,-1.1414,-1.118,-1.1653,-1.2294,-1.3064,-1.3776,-1.4649,-1.5404]}]]